<?xml version="1.0" encoding="UTF-8" standalone="yes"?>
<gpx
 xmlns="http://www.topografix.com/GPX/1/1"
 creator="OziExplorer Version 3956f - http://www.oziexplorer.com"
 version="1.1"
 xmlns:xsi="http://www.w3.org/2001/XMLSchema-instance"
 xsi:schemaLocation="http://www.topografix.com/GPX/1/1 http://www.topografix.com/GPX/1/1/gpx.xsd">
<metadata>
 <time>2022-12-21T08:26:12Z</time>
 <bounds minlat="30.814402" minlon="34.780863" maxlat="30.857214" maxlon="34.973101"/>
</metadata>
<wpt lat="30.8179000" lon="34.9446600">
 <time>2021-04-07T08:00:06.338Z</time>
 <name>EIN-UM-TINA</name>
 <sym>Flag, Red</sym>
</wpt>
<wpt lat="30.8343100" lon="34.9585000">
 <time>2021-04-07T08:00:06.357Z</time>
 <name>GEV-ZARHAN</name>
 <sym>Flag, Red</sym>
</wpt>
<wpt lat="30.8558800" lon="34.9655000">
 <time>2021-04-07T08:00:06.357Z</time>
 <name>TONNEL</name>
 <sym>Flag, Red</sym>
</wpt>
<wpt lat="30.8144023" lon="34.8135527">
 <time>2022-12-21T08:22:26.898Z</time>
 <name>EinOkev</name>
 <sym>Flag, Red</sym>
</wpt>
<wpt lat="30.8435965" lon="34.7809264">
 <time>2022-12-21T08:22:45.123Z</time>
 <name>StFin</name>
 <sym>Flag, Red</sym>
</wpt>
<trk>
 <name>zin-zarhan2_Okev_57km.580m</name>
 <desc>zin-zarhan2_Okev_57km.580m</desc>
<trkseg>
<trkpt lat="30.8435920" lon="34.7809800">
<ele>365.600006</ele>
<time>2021-04-09T04:58:08.000Z</time>
</trkpt>
<trkpt lat="30.8434730" lon="34.7808890">
<ele>365.399994</ele>
<time>2021-04-09T05:02:13.000Z</time>
</trkpt>
<trkpt lat="30.8433790" lon="34.7809230">
<ele>365.300018</ele>
<time>2021-04-09T05:02:25.000Z</time>
</trkpt>
<trkpt lat="30.8434130" lon="34.7809760">
<ele>365.200012</ele>
<time>2021-04-09T05:02:51.000Z</time>
</trkpt>
<trkpt lat="30.8434510" lon="34.7812370">
<ele>365.000000</ele>
<time>2021-04-09T05:03:59.000Z</time>
</trkpt>
<trkpt lat="30.8434310" lon="34.7816300">
<ele>364.799988</ele>
<time>2021-04-09T05:04:07.000Z</time>
</trkpt>
<trkpt lat="30.8434400" lon="34.7821650">
<ele>364.299988</ele>
<time>2021-04-09T05:04:17.000Z</time>
</trkpt>
<trkpt lat="30.8434720" lon="34.7825680">
<ele>363.500000</ele>
<time>2021-04-09T05:04:25.000Z</time>
</trkpt>
<trkpt lat="30.8435130" lon="34.7827490">
<ele>363.100006</ele>
<time>2021-04-09T05:04:29.000Z</time>
</trkpt>
<trkpt lat="30.8435470" lon="34.7833730">
<ele>362.500000</ele>
<time>2021-04-09T05:04:41.000Z</time>
</trkpt>
<trkpt lat="30.8435620" lon="34.7835460">
<ele>362.399994</ele>
<time>2021-04-09T05:04:45.000Z</time>
</trkpt>
<trkpt lat="30.8435910" lon="34.7836560">
<ele>362.300018</ele>
<time>2021-04-09T05:04:48.000Z</time>
</trkpt>
<trkpt lat="30.8436610" lon="34.7845060">
<ele>361.700012</ele>
<time>2021-04-09T05:05:05.000Z</time>
</trkpt>
<trkpt lat="30.8436670" lon="34.7846360">
<ele>361.600006</ele>
<time>2021-04-09T05:05:08.000Z</time>
</trkpt>
<trkpt lat="30.8436420" lon="34.7851150">
<ele>361.200012</ele>
<time>2021-04-09T05:05:15.000Z</time>
</trkpt>
<trkpt lat="30.8436150" lon="34.7852270">
<ele>361.399994</ele>
<time>2021-04-09T05:05:17.000Z</time>
</trkpt>
<trkpt lat="30.8435360" lon="34.7853580">
<ele>361.700012</ele>
<time>2021-04-09T05:05:20.000Z</time>
</trkpt>
<trkpt lat="30.8434890" lon="34.7854800">
<ele>362.300018</ele>
<time>2021-04-09T05:05:23.000Z</time>
</trkpt>
<trkpt lat="30.8433780" lon="34.7856260">
<ele>363.599976</ele>
<time>2021-04-09T05:05:30.000Z</time>
</trkpt>
<trkpt lat="30.8434270" lon="34.7856020">
<ele>364.000000</ele>
<time>2021-04-09T05:05:32.000Z</time>
</trkpt>
<trkpt lat="30.8432830" lon="34.7857720">
<ele>364.799988</ele>
<time>2021-04-09T05:05:37.000Z</time>
</trkpt>
<trkpt lat="30.8432710" lon="34.7858010">
<ele>364.799988</ele>
<time>2021-04-09T05:05:38.000Z</time>
</trkpt>
<trkpt lat="30.8432460" lon="34.7860940">
<ele>364.000000</ele>
<time>2021-04-09T05:05:46.000Z</time>
</trkpt>
<trkpt lat="30.8431890" lon="34.7862280">
<ele>363.399994</ele>
<time>2021-04-09T05:05:49.000Z</time>
</trkpt>
<trkpt lat="30.8429850" lon="34.7865750">
<ele>361.600006</ele>
<time>2021-04-09T05:05:54.000Z</time>
</trkpt>
<trkpt lat="30.8428250" lon="34.7870870">
<ele>362.999969</ele>
<time>2021-04-09T05:06:01.000Z</time>
</trkpt>
<trkpt lat="30.8427660" lon="34.7871650">
<ele>363.500000</ele>
<time>2021-04-09T05:06:03.000Z</time>
</trkpt>
<trkpt lat="30.8426980" lon="34.7872130">
<ele>363.899994</ele>
<time>2021-04-09T05:06:05.000Z</time>
</trkpt>
<trkpt lat="30.8425200" lon="34.7872700">
<ele>364.799988</ele>
<time>2021-04-09T05:06:10.000Z</time>
</trkpt>
<trkpt lat="30.8424870" lon="34.7872980">
<ele>365.000000</ele>
<time>2021-04-09T05:06:12.000Z</time>
</trkpt>
<trkpt lat="30.8423040" lon="34.7872940">
<ele>365.799988</ele>
<time>2021-04-09T05:06:17.000Z</time>
</trkpt>
<trkpt lat="30.8421060" lon="34.7872250">
<ele>366.700012</ele>
<time>2021-04-09T05:06:23.000Z</time>
</trkpt>
<trkpt lat="30.8419820" lon="34.7872050">
<ele>367.199982</ele>
<time>2021-04-09T05:06:27.000Z</time>
</trkpt>
<trkpt lat="30.8418280" lon="34.7873420">
<ele>367.700012</ele>
<time>2021-04-09T05:06:34.000Z</time>
</trkpt>
<trkpt lat="30.8417500" lon="34.7874580">
<ele>367.899994</ele>
<time>2021-04-09T05:06:37.000Z</time>
</trkpt>
<trkpt lat="30.8416770" lon="34.7879550">
<ele>366.899994</ele>
<time>2021-04-09T05:06:49.000Z</time>
</trkpt>
<trkpt lat="30.8416920" lon="34.7882960">
<ele>365.600006</ele>
<time>2021-04-09T05:06:56.000Z</time>
</trkpt>
<trkpt lat="30.8417800" lon="34.7892230">
<ele>361.700012</ele>
<time>2021-04-09T05:07:09.000Z</time>
</trkpt>
<trkpt lat="30.8416840" lon="34.7899280">
<ele>360.200012</ele>
<time>2021-04-09T05:07:18.000Z</time>
</trkpt>
<trkpt lat="30.8416090" lon="34.7904950">
<ele>359.700012</ele>
<time>2021-04-09T05:07:26.000Z</time>
</trkpt>
<trkpt lat="30.8416090" lon="34.7906090">
<ele>359.500000</ele>
<time>2021-04-09T05:07:28.000Z</time>
</trkpt>
<trkpt lat="30.8416450" lon="34.7909710">
<ele>359.000000</ele>
<time>2021-04-09T05:07:34.000Z</time>
</trkpt>
<trkpt lat="30.8417060" lon="34.7913050">
<ele>358.000000</ele>
<time>2021-04-09T05:07:40.000Z</time>
</trkpt>
<trkpt lat="30.8418330" lon="34.7917750">
<ele>356.199982</ele>
<time>2021-04-09T05:07:47.000Z</time>
</trkpt>
<trkpt lat="30.8418810" lon="34.7922130">
<ele>354.399994</ele>
<time>2021-04-09T05:07:53.000Z</time>
</trkpt>
<trkpt lat="30.8418570" lon="34.7925330">
<ele>353.000000</ele>
<time>2021-04-09T05:07:58.000Z</time>
</trkpt>
<trkpt lat="30.8418320" lon="34.7926080">
<ele>352.800018</ele>
<time>2021-04-09T05:08:00.000Z</time>
</trkpt>
<trkpt lat="30.8416830" lon="34.7926290">
<ele>352.200012</ele>
<time>2021-04-09T05:08:04.000Z</time>
</trkpt>
<trkpt lat="30.8415710" lon="34.7926950">
<ele>351.699982</ele>
<time>2021-04-09T05:08:06.000Z</time>
</trkpt>
<trkpt lat="30.8416000" lon="34.7927260">
<ele>351.500000</ele>
<time>2021-04-09T05:08:07.000Z</time>
</trkpt>
<trkpt lat="30.8416080" lon="34.7930270">
<ele>350.600006</ele>
<time>2021-04-09T05:08:13.000Z</time>
</trkpt>
<trkpt lat="30.8414330" lon="34.7934780">
<ele>350.100006</ele>
<time>2021-04-09T05:08:24.000Z</time>
</trkpt>
<trkpt lat="30.8413930" lon="34.7935000">
<ele>350.100006</ele>
<time>2021-04-09T05:08:25.000Z</time>
</trkpt>
<trkpt lat="30.8412930" lon="34.7935100">
<ele>350.100006</ele>
<time>2021-04-09T05:08:29.000Z</time>
</trkpt>
<trkpt lat="30.8411330" lon="34.7935890">
<ele>350.100006</ele>
<time>2021-04-09T05:08:34.000Z</time>
</trkpt>
<trkpt lat="30.8410370" lon="34.7936560">
<ele>350.100006</ele>
<time>2021-04-09T05:08:37.000Z</time>
</trkpt>
<trkpt lat="30.8407090" lon="34.7941480">
<ele>349.599976</ele>
<time>2021-04-09T05:08:51.000Z</time>
</trkpt>
<trkpt lat="30.8405470" lon="34.7948690">
<ele>348.700012</ele>
<time>2021-04-09T05:09:08.000Z</time>
</trkpt>
<trkpt lat="30.8405680" lon="34.7951400">
<ele>348.600006</ele>
<time>2021-04-09T05:09:13.000Z</time>
</trkpt>
<trkpt lat="30.8405420" lon="34.7956240">
<ele>348.199982</ele>
<time>2021-04-09T05:09:22.000Z</time>
</trkpt>
<trkpt lat="30.8405770" lon="34.7958440">
<ele>348.100006</ele>
<time>2021-04-09T05:09:26.000Z</time>
</trkpt>
<trkpt lat="30.8406680" lon="34.7960980">
<ele>348.000000</ele>
<time>2021-04-09T05:09:31.000Z</time>
</trkpt>
<trkpt lat="30.8410950" lon="34.7967180">
<ele>347.100006</ele>
<time>2021-04-09T05:09:46.000Z</time>
</trkpt>
<trkpt lat="30.8411540" lon="34.7968630">
<ele>346.800018</ele>
<time>2021-04-09T05:09:49.000Z</time>
</trkpt>
<trkpt lat="30.8411850" lon="34.7969000">
<ele>346.800018</ele>
<time>2021-04-09T05:09:50.000Z</time>
</trkpt>
<trkpt lat="30.8412760" lon="34.7969310">
<ele>346.600006</ele>
<time>2021-04-09T05:09:53.000Z</time>
</trkpt>
<trkpt lat="30.8413590" lon="34.7970160">
<ele>346.399994</ele>
<time>2021-04-09T05:09:55.000Z</time>
</trkpt>
<trkpt lat="30.8415660" lon="34.7970990">
<ele>346.099976</ele>
<time>2021-04-09T05:10:00.000Z</time>
</trkpt>
<trkpt lat="30.8417200" lon="34.7971360">
<ele>345.899994</ele>
<time>2021-04-09T05:10:04.000Z</time>
</trkpt>
<trkpt lat="30.8417570" lon="34.7971350">
<ele>345.799988</ele>
<time>2021-04-09T05:10:05.000Z</time>
</trkpt>
<trkpt lat="30.8418570" lon="34.7970850">
<ele>345.700012</ele>
<time>2021-04-09T05:10:08.000Z</time>
</trkpt>
<trkpt lat="30.8419980" lon="34.7971000">
<ele>345.199982</ele>
<time>2021-04-09T05:10:12.000Z</time>
</trkpt>
<trkpt lat="30.8422050" lon="34.7972480">
<ele>344.200012</ele>
<time>2021-04-09T05:10:18.000Z</time>
</trkpt>
<trkpt lat="30.8423970" lon="34.7975460">
<ele>342.899994</ele>
<time>2021-04-09T05:10:24.000Z</time>
</trkpt>
<trkpt lat="30.8426720" lon="34.7977710">
<ele>343.300018</ele>
<time>2021-04-09T05:10:31.000Z</time>
</trkpt>
<trkpt lat="30.8427570" lon="34.7978740">
<ele>343.600006</ele>
<time>2021-04-09T05:10:34.000Z</time>
</trkpt>
<trkpt lat="30.8427900" lon="34.7979590">
<ele>343.799988</ele>
<time>2021-04-09T05:10:36.000Z</time>
</trkpt>
<trkpt lat="30.8428150" lon="34.7980860">
<ele>344.000000</ele>
<time>2021-04-09T05:10:39.000Z</time>
</trkpt>
<trkpt lat="30.8428140" lon="34.7982270">
<ele>344.299988</ele>
<time>2021-04-09T05:10:42.000Z</time>
</trkpt>
<trkpt lat="30.8428390" lon="34.7983200">
<ele>344.399994</ele>
<time>2021-04-09T05:10:43.000Z</time>
</trkpt>
<trkpt lat="30.8427280" lon="34.7987270">
<ele>345.799988</ele>
<time>2021-04-09T05:10:51.000Z</time>
</trkpt>
<trkpt lat="30.8426950" lon="34.7993310">
<ele>346.300018</ele>
<time>2021-04-09T05:11:05.000Z</time>
</trkpt>
<trkpt lat="30.8426420" lon="34.7996760">
<ele>345.400024</ele>
<time>2021-04-09T05:11:10.000Z</time>
</trkpt>
<trkpt lat="30.8425690" lon="34.7999140">
<ele>345.000000</ele>
<time>2021-04-09T05:11:13.000Z</time>
</trkpt>
<trkpt lat="30.8423270" lon="34.8004100">
<ele>344.500000</ele>
<time>2021-04-09T05:11:20.000Z</time>
</trkpt>
<trkpt lat="30.8422810" lon="34.8005490">
<ele>344.500000</ele>
<time>2021-04-09T05:11:22.000Z</time>
</trkpt>
<trkpt lat="30.8422540" lon="34.8007690">
<ele>344.700012</ele>
<time>2021-04-09T05:11:25.000Z</time>
</trkpt>
<trkpt lat="30.8421920" lon="34.8010140">
<ele>344.899994</ele>
<time>2021-04-09T05:11:29.000Z</time>
</trkpt>
<trkpt lat="30.8421530" lon="34.8013680">
<ele>344.500000</ele>
<time>2021-04-09T05:11:35.000Z</time>
</trkpt>
<trkpt lat="30.8420900" lon="34.8014610">
<ele>344.100006</ele>
<time>2021-04-09T05:11:37.000Z</time>
</trkpt>
<trkpt lat="30.8420450" lon="34.8014810">
<ele>343.900024</ele>
<time>2021-04-09T05:11:38.000Z</time>
</trkpt>
<trkpt lat="30.8419980" lon="34.8014860">
<ele>343.699982</ele>
<time>2021-04-09T05:11:39.000Z</time>
</trkpt>
<trkpt lat="30.8417490" lon="34.8014440">
<ele>343.399994</ele>
<time>2021-04-09T05:11:43.000Z</time>
</trkpt>
<trkpt lat="30.8416360" lon="34.8014870">
<ele>343.600006</ele>
<time>2021-04-09T05:11:45.000Z</time>
</trkpt>
<trkpt lat="30.8415710" lon="34.8015510">
<ele>343.300018</ele>
<time>2021-04-09T05:11:47.000Z</time>
</trkpt>
<trkpt lat="30.8415450" lon="34.8016870">
<ele>342.400024</ele>
<time>2021-04-09T05:11:50.000Z</time>
</trkpt>
<trkpt lat="30.8416090" lon="34.8018570">
<ele>340.600006</ele>
<time>2021-04-09T05:11:53.000Z</time>
</trkpt>
<trkpt lat="30.8415970" lon="34.8020290">
<ele>338.399994</ele>
<time>2021-04-09T05:11:56.000Z</time>
</trkpt>
<trkpt lat="30.8415460" lon="34.8021280">
<ele>336.799988</ele>
<time>2021-04-09T05:11:58.000Z</time>
</trkpt>
<trkpt lat="30.8414100" lon="34.8022650">
<ele>334.400024</ele>
<time>2021-04-09T05:12:03.000Z</time>
</trkpt>
<trkpt lat="30.8412470" lon="34.8026490">
<ele>332.799988</ele>
<time>2021-04-09T05:12:10.000Z</time>
</trkpt>
<trkpt lat="30.8408140" lon="34.8031190">
<ele>332.399994</ele>
<time>2021-04-09T05:12:23.000Z</time>
</trkpt>
<trkpt lat="30.8405120" lon="34.8032950">
<ele>332.200012</ele>
<time>2021-04-09T05:12:31.000Z</time>
</trkpt>
<trkpt lat="30.8402070" lon="34.8035330">
<ele>332.099976</ele>
<time>2021-04-09T05:12:39.000Z</time>
</trkpt>
<trkpt lat="30.8398100" lon="34.8039810">
<ele>331.600006</ele>
<time>2021-04-09T05:12:50.000Z</time>
</trkpt>
<trkpt lat="30.8392130" lon="34.8048270">
<ele>331.199982</ele>
<time>2021-04-09T05:13:08.000Z</time>
</trkpt>
<trkpt lat="30.8389510" lon="34.8053630">
<ele>330.899994</ele>
<time>2021-04-09T05:13:18.000Z</time>
</trkpt>
<trkpt lat="30.8387390" lon="34.8058740">
<ele>330.899994</ele>
<time>2021-04-09T05:13:27.000Z</time>
</trkpt>
<trkpt lat="30.8386110" lon="34.8062460">
<ele>330.500000</ele>
<time>2021-04-09T05:13:34.000Z</time>
</trkpt>
<trkpt lat="30.8384330" lon="34.8065500">
<ele>330.299988</ele>
<time>2021-04-09T05:13:41.000Z</time>
</trkpt>
<trkpt lat="30.8383870" lon="34.8067010">
<ele>330.399994</ele>
<time>2021-04-09T05:13:44.000Z</time>
</trkpt>
<trkpt lat="30.8384010" lon="34.8068110">
<ele>330.399994</ele>
<time>2021-04-09T05:13:46.000Z</time>
</trkpt>
<trkpt lat="30.8384610" lon="34.8069610">
<ele>330.299988</ele>
<time>2021-04-09T05:13:49.000Z</time>
</trkpt>
<trkpt lat="30.8384980" lon="34.8071180">
<ele>330.200012</ele>
<time>2021-04-09T05:13:52.000Z</time>
</trkpt>
<trkpt lat="30.8385260" lon="34.8073520">
<ele>330.100006</ele>
<time>2021-04-09T05:13:56.000Z</time>
</trkpt>
<trkpt lat="30.8386030" lon="34.8076410">
<ele>330.000000</ele>
<time>2021-04-09T05:14:01.000Z</time>
</trkpt>
<trkpt lat="30.8389250" lon="34.8083430">
<ele>329.399994</ele>
<time>2021-04-09T05:14:16.000Z</time>
</trkpt>
<trkpt lat="30.8389370" lon="34.8084470">
<ele>329.300018</ele>
<time>2021-04-09T05:14:18.000Z</time>
</trkpt>
<trkpt lat="30.8389120" lon="34.8086020">
<ele>329.200012</ele>
<time>2021-04-09T05:14:21.000Z</time>
</trkpt>
<trkpt lat="30.8389300" lon="34.8088230">
<ele>329.200012</ele>
<time>2021-04-09T05:14:25.000Z</time>
</trkpt>
<trkpt lat="30.8389450" lon="34.8089300">
<ele>329.300018</ele>
<time>2021-04-09T05:14:27.000Z</time>
</trkpt>
<trkpt lat="30.8390440" lon="34.8091400">
<ele>329.300018</ele>
<time>2021-04-09T05:14:33.000Z</time>
</trkpt>
<trkpt lat="30.8390890" lon="34.8093090">
<ele>329.000000</ele>
<time>2021-04-09T05:14:37.000Z</time>
</trkpt>
<trkpt lat="30.8390800" lon="34.8095710">
<ele>328.799988</ele>
<time>2021-04-09T05:14:42.000Z</time>
</trkpt>
<trkpt lat="30.8390340" lon="34.8100040">
<ele>328.700012</ele>
<time>2021-04-09T05:14:51.000Z</time>
</trkpt>
<trkpt lat="30.8390560" lon="34.8102030">
<ele>328.700012</ele>
<time>2021-04-09T05:14:55.000Z</time>
</trkpt>
<trkpt lat="30.8390300" lon="34.8104000">
<ele>328.700012</ele>
<time>2021-04-09T05:14:59.000Z</time>
</trkpt>
<trkpt lat="30.8389940" lon="34.8104570">
<ele>328.799988</ele>
<time>2021-04-09T05:15:01.000Z</time>
</trkpt>
<trkpt lat="30.8389360" lon="34.8104760">
<ele>328.799988</ele>
<time>2021-04-09T05:15:03.000Z</time>
</trkpt>
<trkpt lat="30.8385650" lon="34.8103220">
<ele>329.099976</ele>
<time>2021-04-09T05:15:12.000Z</time>
</trkpt>
<trkpt lat="30.8384990" lon="34.8103180">
<ele>329.099976</ele>
<time>2021-04-09T05:15:14.000Z</time>
</trkpt>
<trkpt lat="30.8383000" lon="34.8103520">
<ele>328.899994</ele>
<time>2021-04-09T05:15:19.000Z</time>
</trkpt>
<trkpt lat="30.8379630" lon="34.8104970">
<ele>328.899994</ele>
<time>2021-04-09T05:15:28.000Z</time>
</trkpt>
<trkpt lat="30.8379220" lon="34.8105010">
<ele>328.899994</ele>
<time>2021-04-09T05:15:29.000Z</time>
</trkpt>
<trkpt lat="30.8377620" lon="34.8104680">
<ele>329.099976</ele>
<time>2021-04-09T05:15:33.000Z</time>
</trkpt>
<trkpt lat="30.8376530" lon="34.8105050">
<ele>329.200012</ele>
<time>2021-04-09T05:15:36.000Z</time>
</trkpt>
<trkpt lat="30.8374900" lon="34.8105170">
<ele>329.600006</ele>
<time>2021-04-09T05:15:40.000Z</time>
</trkpt>
<trkpt lat="30.8372330" lon="34.8105990">
<ele>330.100006</ele>
<time>2021-04-09T05:15:48.000Z</time>
</trkpt>
<trkpt lat="30.8369380" lon="34.8106530">
<ele>330.599976</ele>
<time>2021-04-09T05:15:56.000Z</time>
</trkpt>
<trkpt lat="30.8364890" lon="34.8106910">
<ele>331.400024</ele>
<time>2021-04-09T05:16:08.000Z</time>
</trkpt>
<trkpt lat="30.8364030" lon="34.8107210">
<ele>331.400024</ele>
<time>2021-04-09T05:16:10.000Z</time>
</trkpt>
<trkpt lat="30.8363350" lon="34.8107720">
<ele>331.299988</ele>
<time>2021-04-09T05:16:13.000Z</time>
</trkpt>
<trkpt lat="30.8360330" lon="34.8110820">
<ele>331.600006</ele>
<time>2021-04-09T05:16:22.000Z</time>
</trkpt>
<trkpt lat="30.8359110" lon="34.8112780">
<ele>332.500000</ele>
<time>2021-04-09T05:16:29.000Z</time>
</trkpt>
<trkpt lat="30.8358990" lon="34.8113520">
<ele>332.799988</ele>
<time>2021-04-09T05:16:31.000Z</time>
</trkpt>
<trkpt lat="30.8359020" lon="34.8114120">
<ele>334.300018</ele>
<time>2021-04-09T05:16:33.000Z</time>
</trkpt>
<trkpt lat="30.8359280" lon="34.8115040">
<ele>334.500000</ele>
<time>2021-04-09T05:16:37.000Z</time>
</trkpt>
<trkpt lat="30.8361540" lon="34.8115730">
<ele>335.000031</ele>
<time>2021-04-09T05:16:47.000Z</time>
</trkpt>
<trkpt lat="30.8362020" lon="34.8115740">
<ele>335.300018</ele>
<time>2021-04-09T05:16:48.000Z</time>
</trkpt>
<trkpt lat="30.8364080" lon="34.8113720">
<ele>337.399994</ele>
<time>2021-04-09T05:16:57.000Z</time>
</trkpt>
<trkpt lat="30.8365760" lon="34.8113350">
<ele>337.799988</ele>
<time>2021-04-09T05:17:06.000Z</time>
</trkpt>
<trkpt lat="30.8369010" lon="34.8113590">
<ele>338.100006</ele>
<time>2021-04-09T05:17:18.000Z</time>
</trkpt>
<trkpt lat="30.8369800" lon="34.8113810">
<ele>338.200012</ele>
<time>2021-04-09T05:17:20.000Z</time>
</trkpt>
<trkpt lat="30.8372330" lon="34.8115940">
<ele>338.899994</ele>
<time>2021-04-09T05:17:27.000Z</time>
</trkpt>
<trkpt lat="30.8377520" lon="34.8118970">
<ele>340.799988</ele>
<time>2021-04-09T05:17:44.000Z</time>
</trkpt>
<trkpt lat="30.8378960" lon="34.8119500">
<ele>340.699982</ele>
<time>2021-04-09T05:17:48.000Z</time>
</trkpt>
<trkpt lat="30.8381990" lon="34.8120110">
<ele>339.899994</ele>
<time>2021-04-09T05:17:55.000Z</time>
</trkpt>
<trkpt lat="30.8383060" lon="34.8120460">
<ele>339.600006</ele>
<time>2021-04-09T05:17:57.000Z</time>
</trkpt>
<trkpt lat="30.8385180" lon="34.8121790">
<ele>338.899994</ele>
<time>2021-04-09T05:18:01.000Z</time>
</trkpt>
<trkpt lat="30.8386040" lon="34.8122630">
<ele>338.699982</ele>
<time>2021-04-09T05:18:03.000Z</time>
</trkpt>
<trkpt lat="30.8389370" lon="34.8127140">
<ele>337.399994</ele>
<time>2021-04-09T05:18:12.000Z</time>
</trkpt>
<trkpt lat="30.8390680" lon="34.8130300">
<ele>336.799988</ele>
<time>2021-04-09T05:18:17.000Z</time>
</trkpt>
<trkpt lat="30.8392860" lon="34.8134370">
<ele>336.299988</ele>
<time>2021-04-09T05:18:24.000Z</time>
</trkpt>
<trkpt lat="30.8394960" lon="34.8135680">
<ele>335.699982</ele>
<time>2021-04-09T05:18:28.000Z</time>
</trkpt>
<trkpt lat="30.8396380" lon="34.8137130">
<ele>335.300018</ele>
<time>2021-04-09T05:18:31.000Z</time>
</trkpt>
<trkpt lat="30.8397570" lon="34.8139010">
<ele>335.100006</ele>
<time>2021-04-09T05:18:34.000Z</time>
</trkpt>
<trkpt lat="30.8401620" lon="34.8143990">
<ele>334.400024</ele>
<time>2021-04-09T05:18:43.000Z</time>
</trkpt>
<trkpt lat="30.8403600" lon="34.8147900">
<ele>333.700012</ele>
<time>2021-04-09T05:18:49.000Z</time>
</trkpt>
<trkpt lat="30.8410070" lon="34.8153800">
<ele>332.200012</ele>
<time>2021-04-09T05:19:02.000Z</time>
</trkpt>
<trkpt lat="30.8413680" lon="34.8159250">
<ele>331.400024</ele>
<time>2021-04-09T05:19:12.000Z</time>
</trkpt>
<trkpt lat="30.8418830" lon="34.8165440">
<ele>329.900024</ele>
<time>2021-04-09T05:19:25.000Z</time>
</trkpt>
<trkpt lat="30.8419860" lon="34.8167150">
<ele>329.600006</ele>
<time>2021-04-09T05:19:28.000Z</time>
</trkpt>
<trkpt lat="30.8421310" lon="34.8170420">
<ele>329.900024</ele>
<time>2021-04-09T05:19:33.000Z</time>
</trkpt>
<trkpt lat="30.8423700" lon="34.8174290">
<ele>329.699982</ele>
<time>2021-04-09T05:19:41.000Z</time>
</trkpt>
<trkpt lat="30.8425200" lon="34.8177460">
<ele>328.700012</ele>
<time>2021-04-09T05:19:46.000Z</time>
</trkpt>
<trkpt lat="30.8426110" lon="34.8178410">
<ele>328.500000</ele>
<time>2021-04-09T05:19:48.000Z</time>
</trkpt>
<trkpt lat="30.8427700" lon="34.8179310">
<ele>328.100006</ele>
<time>2021-04-09T05:19:51.000Z</time>
</trkpt>
<trkpt lat="30.8428690" lon="34.8180120">
<ele>327.700012</ele>
<time>2021-04-09T05:19:53.000Z</time>
</trkpt>
<trkpt lat="30.8429400" lon="34.8181280">
<ele>327.399994</ele>
<time>2021-04-09T05:19:55.000Z</time>
</trkpt>
<trkpt lat="30.8431110" lon="34.8187690">
<ele>326.500000</ele>
<time>2021-04-09T05:20:04.000Z</time>
</trkpt>
<trkpt lat="30.8432330" lon="34.8190920">
<ele>326.399994</ele>
<time>2021-04-09T05:20:09.000Z</time>
</trkpt>
<trkpt lat="30.8432540" lon="34.8193570">
<ele>326.199982</ele>
<time>2021-04-09T05:20:13.000Z</time>
</trkpt>
<trkpt lat="30.8433610" lon="34.8197090">
<ele>325.899994</ele>
<time>2021-04-09T05:20:19.000Z</time>
</trkpt>
<trkpt lat="30.8434420" lon="34.8197760">
<ele>325.700012</ele>
<time>2021-04-09T05:20:21.000Z</time>
</trkpt>
<trkpt lat="30.8435450" lon="34.8198010">
<ele>325.499969</ele>
<time>2021-04-09T05:20:23.000Z</time>
</trkpt>
<trkpt lat="30.8436260" lon="34.8198680">
<ele>325.399994</ele>
<time>2021-04-09T05:20:25.000Z</time>
</trkpt>
<trkpt lat="30.8436490" lon="34.8199200">
<ele>325.299988</ele>
<time>2021-04-09T05:20:26.000Z</time>
</trkpt>
<trkpt lat="30.8437170" lon="34.8203540">
<ele>324.699982</ele>
<time>2021-04-09T05:20:33.000Z</time>
</trkpt>
<trkpt lat="30.8437120" lon="34.8206950">
<ele>324.399994</ele>
<time>2021-04-09T05:20:38.000Z</time>
</trkpt>
<trkpt lat="30.8437460" lon="34.8209610">
<ele>324.299988</ele>
<time>2021-04-09T05:20:42.000Z</time>
</trkpt>
<trkpt lat="30.8437510" lon="34.8210960">
<ele>324.299988</ele>
<time>2021-04-09T05:20:44.000Z</time>
</trkpt>
<trkpt lat="30.8438380" lon="34.8213390">
<ele>324.100006</ele>
<time>2021-04-09T05:20:48.000Z</time>
</trkpt>
<trkpt lat="30.8438960" lon="34.8218810">
<ele>324.299988</ele>
<time>2021-04-09T05:20:56.000Z</time>
</trkpt>
<trkpt lat="30.8439490" lon="34.8220510">
<ele>324.299988</ele>
<time>2021-04-09T05:20:59.000Z</time>
</trkpt>
<trkpt lat="30.8441370" lon="34.8224370">
<ele>324.399994</ele>
<time>2021-04-09T05:21:06.000Z</time>
</trkpt>
<trkpt lat="30.8441520" lon="34.8225540">
<ele>324.699982</ele>
<time>2021-04-09T05:21:08.000Z</time>
</trkpt>
<trkpt lat="30.8441350" lon="34.8228770">
<ele>325.700012</ele>
<time>2021-04-09T05:21:14.000Z</time>
</trkpt>
<trkpt lat="30.8441830" lon="34.8231080">
<ele>326.699982</ele>
<time>2021-04-09T05:21:20.000Z</time>
</trkpt>
<trkpt lat="30.8442560" lon="34.8232030">
<ele>327.100006</ele>
<time>2021-04-09T05:21:23.000Z</time>
</trkpt>
<trkpt lat="30.8442710" lon="34.8232850">
<ele>327.299988</ele>
<time>2021-04-09T05:21:25.000Z</time>
</trkpt>
<trkpt lat="30.8441880" lon="34.8234690">
<ele>328.100006</ele>
<time>2021-04-09T05:21:31.000Z</time>
</trkpt>
<trkpt lat="30.8426320" lon="34.8253150">
<ele>328.400024</ele>
<time>2021-04-09T05:22:21.000Z</time>
</trkpt>
<trkpt lat="30.8418430" lon="34.8263710">
<ele>330.500000</ele>
<time>2021-04-09T05:22:37.000Z</time>
</trkpt>
<trkpt lat="30.8409190" lon="34.8274860">
<ele>331.500000</ele>
<time>2021-04-09T05:23:03.000Z</time>
</trkpt>
<trkpt lat="30.8406130" lon="34.8279220">
<ele>332.799988</ele>
<time>2021-04-09T05:23:12.000Z</time>
</trkpt>
<trkpt lat="30.8401370" lon="34.8285420">
<ele>334.100006</ele>
<time>2021-04-09T05:23:28.000Z</time>
</trkpt>
<trkpt lat="30.8395140" lon="34.8293930">
<ele>335.000031</ele>
<time>2021-04-09T05:23:45.000Z</time>
</trkpt>
<trkpt lat="30.8390230" lon="34.8300020">
<ele>334.700012</ele>
<time>2021-04-09T05:23:58.000Z</time>
</trkpt>
<trkpt lat="30.8384610" lon="34.8307450">
<ele>336.200012</ele>
<time>2021-04-09T05:24:15.000Z</time>
</trkpt>
<trkpt lat="30.8378440" lon="34.8314680">
<ele>337.099976</ele>
<time>2021-04-09T05:24:33.000Z</time>
</trkpt>
<trkpt lat="30.8375600" lon="34.8318510">
<ele>337.500000</ele>
<time>2021-04-09T05:24:41.000Z</time>
</trkpt>
<trkpt lat="30.8369600" lon="34.8327440">
<ele>336.000000</ele>
<time>2021-04-09T05:25:00.000Z</time>
</trkpt>
<trkpt lat="30.8366960" lon="34.8330680">
<ele>334.799988</ele>
<time>2021-04-09T05:25:05.000Z</time>
</trkpt>
<trkpt lat="30.8362860" lon="34.8334850">
<ele>333.800018</ele>
<time>2021-04-09T05:25:13.000Z</time>
</trkpt>
<trkpt lat="30.8360980" lon="34.8337530">
<ele>332.699982</ele>
<time>2021-04-09T05:25:17.000Z</time>
</trkpt>
<trkpt lat="30.8348930" lon="34.8357180">
<ele>333.100006</ele>
<time>2021-04-09T05:25:46.000Z</time>
</trkpt>
<trkpt lat="30.8346420" lon="34.8360730">
<ele>333.399994</ele>
<time>2021-04-09T05:25:53.000Z</time>
</trkpt>
<trkpt lat="30.8334170" lon="34.8379250">
<ele>333.600006</ele>
<time>2021-04-09T05:26:28.000Z</time>
</trkpt>
<trkpt lat="30.8330780" lon="34.8383850">
<ele>332.900024</ele>
<time>2021-04-09T05:26:34.000Z</time>
</trkpt>
<trkpt lat="30.8328180" lon="34.8388280">
<ele>333.700012</ele>
<time>2021-04-09T05:26:41.000Z</time>
</trkpt>
<trkpt lat="30.8310520" lon="34.8414200">
<ele>332.099976</ele>
<time>2021-04-09T05:27:26.000Z</time>
</trkpt>
<trkpt lat="30.8308610" lon="34.8417870">
<ele>331.100006</ele>
<time>2021-04-09T05:27:31.000Z</time>
</trkpt>
<trkpt lat="30.8300890" lon="34.8430200">
<ele>325.000000</ele>
<time>2021-04-09T05:27:48.000Z</time>
</trkpt>
<trkpt lat="30.8298970" lon="34.8433070">
<ele>324.299988</ele>
<time>2021-04-09T05:27:51.000Z</time>
</trkpt>
<trkpt lat="30.8294990" lon="34.8437790">
<ele>323.500000</ele>
<time>2021-04-09T05:27:57.000Z</time>
</trkpt>
<trkpt lat="30.8290370" lon="34.8445960">
<ele>327.800018</ele>
<time>2021-04-09T05:28:08.000Z</time>
</trkpt>
<trkpt lat="30.8280940" lon="34.8455310">
<ele>321.300018</ele>
<time>2021-04-09T05:28:22.000Z</time>
</trkpt>
<trkpt lat="30.8270550" lon="34.8467300">
<ele>321.300018</ele>
<time>2021-04-09T05:28:38.000Z</time>
</trkpt>
<trkpt lat="30.8264490" lon="34.8473460">
<ele>321.900024</ele>
<time>2021-04-09T05:28:49.000Z</time>
</trkpt>
<trkpt lat="30.8257340" lon="34.8480290">
<ele>321.900024</ele>
<time>2021-04-09T05:29:00.000Z</time>
</trkpt>
<trkpt lat="30.8255560" lon="34.8481710">
<ele>322.800018</ele>
<time>2021-04-09T05:29:03.000Z</time>
</trkpt>
<trkpt lat="30.8248900" lon="34.8485430">
<ele>323.300018</ele>
<time>2021-04-09T05:29:17.000Z</time>
</trkpt>
<trkpt lat="30.8241220" lon="34.8490670">
<ele>322.500031</ele>
<time>2021-04-09T05:29:33.000Z</time>
</trkpt>
<trkpt lat="30.8239770" lon="34.8491590">
<ele>322.399994</ele>
<time>2021-04-09T05:29:36.000Z</time>
</trkpt>
<trkpt lat="30.8235660" lon="34.8493540">
<ele>321.600006</ele>
<time>2021-04-09T05:29:45.000Z</time>
</trkpt>
<trkpt lat="30.8231790" lon="34.8495860">
<ele>321.600006</ele>
<time>2021-04-09T05:29:55.000Z</time>
</trkpt>
<trkpt lat="30.8231200" lon="34.8495900">
<ele>321.500000</ele>
<time>2021-04-09T05:29:57.000Z</time>
</trkpt>
<trkpt lat="30.8228770" lon="34.8497980">
<ele>321.300018</ele>
<time>2021-04-09T05:30:06.000Z</time>
</trkpt>
<trkpt lat="30.8228240" lon="34.8497590">
<ele>321.300018</ele>
<time>2021-04-09T05:31:28.000Z</time>
</trkpt>
<trkpt lat="30.8227460" lon="34.8498470">
<ele>321.100006</ele>
<time>2021-04-09T05:31:36.000Z</time>
</trkpt>
<trkpt lat="30.8227310" lon="34.8499130">
<ele>320.899994</ele>
<time>2021-04-09T05:31:39.000Z</time>
</trkpt>
<trkpt lat="30.8227120" lon="34.8504510">
<ele>317.700012</ele>
<time>2021-04-09T05:31:47.000Z</time>
</trkpt>
<trkpt lat="30.8226220" lon="34.8509470">
<ele>315.200012</ele>
<time>2021-04-09T05:31:52.000Z</time>
</trkpt>
<trkpt lat="30.8225250" lon="34.8517550">
<ele>313.500000</ele>
<time>2021-04-09T05:32:01.000Z</time>
</trkpt>
<trkpt lat="30.8224790" lon="34.8523470">
<ele>313.299988</ele>
<time>2021-04-09T05:32:08.000Z</time>
</trkpt>
<trkpt lat="30.8223410" lon="34.8530510">
<ele>313.100006</ele>
<time>2021-04-09T05:32:17.000Z</time>
</trkpt>
<trkpt lat="30.8224270" lon="34.8534710">
<ele>312.699982</ele>
<time>2021-04-09T05:32:23.000Z</time>
</trkpt>
<trkpt lat="30.8224540" lon="34.8538280">
<ele>312.500000</ele>
<time>2021-04-09T05:32:28.000Z</time>
</trkpt>
<trkpt lat="30.8224310" lon="34.8539700">
<ele>312.399994</ele>
<time>2021-04-09T05:32:30.000Z</time>
</trkpt>
<trkpt lat="30.8223380" lon="34.8542380">
<ele>311.899994</ele>
<time>2021-04-09T05:32:34.000Z</time>
</trkpt>
<trkpt lat="30.8222620" lon="34.8548390">
<ele>311.100006</ele>
<time>2021-04-09T05:32:42.000Z</time>
</trkpt>
<trkpt lat="30.8221930" lon="34.8551870">
<ele>310.600006</ele>
<time>2021-04-09T05:32:47.000Z</time>
</trkpt>
<trkpt lat="30.8221870" lon="34.8552600">
<ele>310.500000</ele>
<time>2021-04-09T05:32:48.000Z</time>
</trkpt>
<trkpt lat="30.8222310" lon="34.8556100">
<ele>310.500000</ele>
<time>2021-04-09T05:32:53.000Z</time>
</trkpt>
<trkpt lat="30.8222330" lon="34.8558880">
<ele>310.600006</ele>
<time>2021-04-09T05:32:58.000Z</time>
</trkpt>
<trkpt lat="30.8221330" lon="34.8565610">
<ele>311.399994</ele>
<time>2021-04-09T05:33:11.000Z</time>
</trkpt>
<trkpt lat="30.8221100" lon="34.8569200">
<ele>312.799988</ele>
<time>2021-04-09T05:33:18.000Z</time>
</trkpt>
<trkpt lat="30.8220760" lon="34.8570990">
<ele>313.399994</ele>
<time>2021-04-09T05:33:22.000Z</time>
</trkpt>
<trkpt lat="30.8220140" lon="34.8572910">
<ele>313.299988</ele>
<time>2021-04-09T05:33:26.000Z</time>
</trkpt>
<trkpt lat="30.8219450" lon="34.8576840">
<ele>312.899994</ele>
<time>2021-04-09T05:33:32.000Z</time>
</trkpt>
<trkpt lat="30.8218390" lon="34.8579060">
<ele>312.500000</ele>
<time>2021-04-09T05:33:36.000Z</time>
</trkpt>
<trkpt lat="30.8218130" lon="34.8583210">
<ele>312.199982</ele>
<time>2021-04-09T05:33:42.000Z</time>
</trkpt>
<trkpt lat="30.8217340" lon="34.8586850">
<ele>313.299988</ele>
<time>2021-04-09T05:33:50.000Z</time>
</trkpt>
<trkpt lat="30.8217040" lon="34.8587220">
<ele>313.299988</ele>
<time>2021-04-09T05:33:53.000Z</time>
</trkpt>
<trkpt lat="30.8216090" lon="34.8593230">
<ele>312.799988</ele>
<time>2021-04-09T05:34:01.000Z</time>
</trkpt>
<trkpt lat="30.8215340" lon="34.8600550">
<ele>312.100006</ele>
<time>2021-04-09T05:34:14.000Z</time>
</trkpt>
<trkpt lat="30.8214770" lon="34.8603750">
<ele>312.100006</ele>
<time>2021-04-09T05:34:19.000Z</time>
</trkpt>
<trkpt lat="30.8214820" lon="34.8607070">
<ele>312.600006</ele>
<time>2021-04-09T05:34:26.000Z</time>
</trkpt>
<trkpt lat="30.8215370" lon="34.8609370">
<ele>312.699982</ele>
<time>2021-04-09T05:34:32.000Z</time>
</trkpt>
<trkpt lat="30.8216310" lon="34.8610940">
<ele>312.399994</ele>
<time>2021-04-09T05:34:36.000Z</time>
</trkpt>
<trkpt lat="30.8219260" lon="34.8614360">
<ele>312.399994</ele>
<time>2021-04-09T05:34:46.000Z</time>
</trkpt>
<trkpt lat="30.8221590" lon="34.8616630">
<ele>312.399994</ele>
<time>2021-04-09T05:34:55.000Z</time>
</trkpt>
<trkpt lat="30.8224280" lon="34.8620270">
<ele>311.500000</ele>
<time>2021-04-09T05:35:04.000Z</time>
</trkpt>
<trkpt lat="30.8225150" lon="34.8623110">
<ele>310.899994</ele>
<time>2021-04-09T05:35:09.000Z</time>
</trkpt>
<trkpt lat="30.8225520" lon="34.8625850">
<ele>310.299988</ele>
<time>2021-04-09T05:35:13.000Z</time>
</trkpt>
<trkpt lat="30.8227200" lon="34.8631600">
<ele>309.300018</ele>
<time>2021-04-09T05:35:22.000Z</time>
</trkpt>
<trkpt lat="30.8227860" lon="34.8635180">
<ele>309.000000</ele>
<time>2021-04-09T05:35:28.000Z</time>
</trkpt>
<trkpt lat="30.8227540" lon="34.8642200">
<ele>307.899994</ele>
<time>2021-04-09T05:35:40.000Z</time>
</trkpt>
<trkpt lat="30.8227480" lon="34.8647490">
<ele>306.699982</ele>
<time>2021-04-09T05:35:48.000Z</time>
</trkpt>
<trkpt lat="30.8226430" lon="34.8662140">
<ele>304.100006</ele>
<time>2021-04-09T05:36:09.000Z</time>
</trkpt>
<trkpt lat="30.8226380" lon="34.8672990">
<ele>303.200012</ele>
<time>2021-04-09T05:36:24.000Z</time>
</trkpt>
<trkpt lat="30.8226130" lon="34.8675920">
<ele>302.600006</ele>
<time>2021-04-09T05:36:28.000Z</time>
</trkpt>
<trkpt lat="30.8225620" lon="34.8678840">
<ele>301.899994</ele>
<time>2021-04-09T05:36:32.000Z</time>
</trkpt>
<trkpt lat="30.8224800" lon="34.8681570">
<ele>301.199982</ele>
<time>2021-04-09T05:36:36.000Z</time>
</trkpt>
<trkpt lat="30.8223910" lon="34.8687750">
<ele>300.600006</ele>
<time>2021-04-09T05:36:45.000Z</time>
</trkpt>
<trkpt lat="30.8224240" lon="34.8691090">
<ele>298.799988</ele>
<time>2021-04-09T05:36:50.000Z</time>
</trkpt>
<trkpt lat="30.8223980" lon="34.8693570">
<ele>297.399994</ele>
<time>2021-04-09T05:36:53.000Z</time>
</trkpt>
<trkpt lat="30.8224120" lon="34.8695320">
<ele>296.200012</ele>
<time>2021-04-09T05:36:55.000Z</time>
</trkpt>
<trkpt lat="30.8224010" lon="34.8697140">
<ele>295.200012</ele>
<time>2021-04-09T05:36:57.000Z</time>
</trkpt>
<trkpt lat="30.8223640" lon="34.8700760">
<ele>294.199982</ele>
<time>2021-04-09T05:37:01.000Z</time>
</trkpt>
<trkpt lat="30.8222690" lon="34.8704740">
<ele>293.500000</ele>
<time>2021-04-09T05:37:06.000Z</time>
</trkpt>
<trkpt lat="30.8222530" lon="34.8709000">
<ele>291.100006</ele>
<time>2021-04-09T05:37:11.000Z</time>
</trkpt>
<trkpt lat="30.8221850" lon="34.8712590">
<ele>290.200012</ele>
<time>2021-04-09T05:37:15.000Z</time>
</trkpt>
<trkpt lat="30.8221980" lon="34.8715240">
<ele>289.299988</ele>
<time>2021-04-09T05:37:18.000Z</time>
</trkpt>
<trkpt lat="30.8222050" lon="34.8717830">
<ele>288.100006</ele>
<time>2021-04-09T05:37:21.000Z</time>
</trkpt>
<trkpt lat="30.8221580" lon="34.8725020">
<ele>285.899994</ele>
<time>2021-04-09T05:37:30.000Z</time>
</trkpt>
<trkpt lat="30.8221790" lon="34.8728180">
<ele>285.299988</ele>
<time>2021-04-09T05:37:34.000Z</time>
</trkpt>
<trkpt lat="30.8221560" lon="34.8733060">
<ele>284.100006</ele>
<time>2021-04-09T05:37:40.000Z</time>
</trkpt>
<trkpt lat="30.8221650" lon="34.8735650">
<ele>283.299988</ele>
<time>2021-04-09T05:37:43.000Z</time>
</trkpt>
<trkpt lat="30.8222250" lon="34.8739820">
<ele>282.399994</ele>
<time>2021-04-09T05:37:48.000Z</time>
</trkpt>
<trkpt lat="30.8220980" lon="34.8749620">
<ele>279.799988</ele>
<time>2021-04-09T05:38:00.000Z</time>
</trkpt>
<trkpt lat="30.8219350" lon="34.8758400">
<ele>279.299988</ele>
<time>2021-04-09T05:38:12.000Z</time>
</trkpt>
<trkpt lat="30.8218350" lon="34.8762830">
<ele>278.500000</ele>
<time>2021-04-09T05:38:18.000Z</time>
</trkpt>
<trkpt lat="30.8218080" lon="34.8764430">
<ele>277.899994</ele>
<time>2021-04-09T05:38:20.000Z</time>
</trkpt>
<trkpt lat="30.8218110" lon="34.8766100">
<ele>277.199982</ele>
<time>2021-04-09T05:38:22.000Z</time>
</trkpt>
<trkpt lat="30.8217090" lon="34.8769150">
<ele>275.799988</ele>
<time>2021-04-09T05:38:26.000Z</time>
</trkpt>
<trkpt lat="30.8215920" lon="34.8773730">
<ele>275.399994</ele>
<time>2021-04-09T05:38:32.000Z</time>
</trkpt>
<trkpt lat="30.8215350" lon="34.8776810">
<ele>275.100006</ele>
<time>2021-04-09T05:38:36.000Z</time>
</trkpt>
<trkpt lat="30.8215150" lon="34.8780670">
<ele>274.399994</ele>
<time>2021-04-09T05:38:41.000Z</time>
</trkpt>
<trkpt lat="30.8214950" lon="34.8782180">
<ele>274.200012</ele>
<time>2021-04-09T05:38:43.000Z</time>
</trkpt>
<trkpt lat="30.8214380" lon="34.8784400">
<ele>273.799988</ele>
<time>2021-04-09T05:38:46.000Z</time>
</trkpt>
<trkpt lat="30.8214350" lon="34.8785950">
<ele>273.600006</ele>
<time>2021-04-09T05:38:48.000Z</time>
</trkpt>
<trkpt lat="30.8213930" lon="34.8788870">
<ele>273.100006</ele>
<time>2021-04-09T05:38:52.000Z</time>
</trkpt>
<trkpt lat="30.8212840" lon="34.8792880">
<ele>272.700012</ele>
<time>2021-04-09T05:38:58.000Z</time>
</trkpt>
<trkpt lat="30.8212080" lon="34.8796390">
<ele>271.899994</ele>
<time>2021-04-09T05:39:03.000Z</time>
</trkpt>
<trkpt lat="30.8211050" lon="34.8799160">
<ele>271.600006</ele>
<time>2021-04-09T05:39:07.000Z</time>
</trkpt>
<trkpt lat="30.8210590" lon="34.8801810">
<ele>272.100006</ele>
<time>2021-04-09T05:39:11.000Z</time>
</trkpt>
<trkpt lat="30.8206600" lon="34.8817970">
<ele>270.700012</ele>
<time>2021-04-09T05:39:35.000Z</time>
</trkpt>
<trkpt lat="30.8205660" lon="34.8824770">
<ele>269.600006</ele>
<time>2021-04-09T05:39:44.000Z</time>
</trkpt>
<trkpt lat="30.8203680" lon="34.8835580">
<ele>267.600006</ele>
<time>2021-04-09T05:39:58.000Z</time>
</trkpt>
<trkpt lat="30.8202650" lon="34.8843100">
<ele>266.500000</ele>
<time>2021-04-09T05:40:09.000Z</time>
</trkpt>
<trkpt lat="30.8201130" lon="34.8848570">
<ele>265.200012</ele>
<time>2021-04-09T05:40:17.000Z</time>
</trkpt>
<trkpt lat="30.8200950" lon="34.8851540">
<ele>264.699982</ele>
<time>2021-04-09T05:40:21.000Z</time>
</trkpt>
<trkpt lat="30.8201020" lon="34.8855160">
<ele>264.200012</ele>
<time>2021-04-09T05:40:26.000Z</time>
</trkpt>
<trkpt lat="30.8200560" lon="34.8856490">
<ele>264.000000</ele>
<time>2021-04-09T05:40:28.000Z</time>
</trkpt>
<trkpt lat="30.8198170" lon="34.8860370">
<ele>263.799988</ele>
<time>2021-04-09T05:40:35.000Z</time>
</trkpt>
<trkpt lat="30.8195240" lon="34.8874190">
<ele>262.799988</ele>
<time>2021-04-09T05:40:57.000Z</time>
</trkpt>
<trkpt lat="30.8193140" lon="34.8876790">
<ele>262.199982</ele>
<time>2021-04-09T05:41:05.000Z</time>
</trkpt>
<trkpt lat="30.8193350" lon="34.8876720">
<ele>262.300018</ele>
<time>2021-04-09T05:41:06.000Z</time>
</trkpt>
<trkpt lat="30.8192560" lon="34.8878410">
<ele>263.000000</ele>
<time>2021-04-09T05:41:10.000Z</time>
</trkpt>
<trkpt lat="30.8192340" lon="34.8879150">
<ele>263.600006</ele>
<time>2021-04-09T05:41:12.000Z</time>
</trkpt>
<trkpt lat="30.8192530" lon="34.8880480">
<ele>265.000000</ele>
<time>2021-04-09T05:41:15.000Z</time>
</trkpt>
<trkpt lat="30.8192420" lon="34.8882630">
<ele>266.700012</ele>
<time>2021-04-09T05:41:23.000Z</time>
</trkpt>
<trkpt lat="30.8192170" lon="34.8884240">
<ele>267.399994</ele>
<time>2021-04-09T05:41:29.000Z</time>
</trkpt>
<trkpt lat="30.8192630" lon="34.8886370">
<ele>268.000000</ele>
<time>2021-04-09T05:41:36.000Z</time>
</trkpt>
<trkpt lat="30.8194580" lon="34.8890440">
<ele>267.899994</ele>
<time>2021-04-09T05:41:46.000Z</time>
</trkpt>
<trkpt lat="30.8195470" lon="34.8891670">
<ele>267.500000</ele>
<time>2021-04-09T05:41:49.000Z</time>
</trkpt>
<trkpt lat="30.8206450" lon="34.8903610">
<ele>265.299988</ele>
<time>2021-04-09T05:42:14.000Z</time>
</trkpt>
<trkpt lat="30.8213260" lon="34.8915880">
<ele>263.399994</ele>
<time>2021-04-09T05:42:37.000Z</time>
</trkpt>
<trkpt lat="30.8215070" lon="34.8919710">
<ele>262.300018</ele>
<time>2021-04-09T05:42:44.000Z</time>
</trkpt>
<trkpt lat="30.8217040" lon="34.8923130">
<ele>260.699982</ele>
<time>2021-04-09T05:42:50.000Z</time>
</trkpt>
<trkpt lat="30.8218820" lon="34.8925280">
<ele>259.500000</ele>
<time>2021-04-09T05:42:54.000Z</time>
</trkpt>
<trkpt lat="30.8219430" lon="34.8928660">
<ele>258.200012</ele>
<time>2021-04-09T05:42:58.000Z</time>
</trkpt>
<trkpt lat="30.8219280" lon="34.8932720">
<ele>257.100006</ele>
<time>2021-04-09T05:43:03.000Z</time>
</trkpt>
<trkpt lat="30.8219580" lon="34.8934100">
<ele>257.000000</ele>
<time>2021-04-09T05:43:05.000Z</time>
</trkpt>
<trkpt lat="30.8221730" lon="34.8938850">
<ele>256.699982</ele>
<time>2021-04-09T05:43:12.000Z</time>
</trkpt>
<trkpt lat="30.8223240" lon="34.8946820">
<ele>256.100006</ele>
<time>2021-04-09T05:43:22.000Z</time>
</trkpt>
<trkpt lat="30.8225040" lon="34.8952070">
<ele>255.600006</ele>
<time>2021-04-09T05:43:29.000Z</time>
</trkpt>
<trkpt lat="30.8227840" lon="34.8957700">
<ele>254.599991</ele>
<time>2021-04-09T05:43:37.000Z</time>
</trkpt>
<trkpt lat="30.8229000" lon="34.8960580">
<ele>254.299988</ele>
<time>2021-04-09T05:43:41.000Z</time>
</trkpt>
<trkpt lat="30.8229290" lon="34.8962100">
<ele>254.100006</ele>
<time>2021-04-09T05:43:43.000Z</time>
</trkpt>
<trkpt lat="30.8229540" lon="34.8965770">
<ele>253.500000</ele>
<time>2021-04-09T05:43:48.000Z</time>
</trkpt>
<trkpt lat="30.8230590" lon="34.8974560">
<ele>252.300003</ele>
<time>2021-04-09T05:44:00.000Z</time>
</trkpt>
<trkpt lat="30.8230600" lon="34.8976620">
<ele>252.099991</ele>
<time>2021-04-09T05:44:03.000Z</time>
</trkpt>
<trkpt lat="30.8229950" lon="34.8980610">
<ele>251.599991</ele>
<time>2021-04-09T05:44:09.000Z</time>
</trkpt>
<trkpt lat="30.8229330" lon="34.8983560">
<ele>251.400009</ele>
<time>2021-04-09T05:44:13.000Z</time>
</trkpt>
<trkpt lat="30.8227850" lon="34.8987890">
<ele>250.500000</ele>
<time>2021-04-09T05:44:19.000Z</time>
</trkpt>
<trkpt lat="30.8227250" lon="34.8991780">
<ele>250.199997</ele>
<time>2021-04-09T05:44:24.000Z</time>
</trkpt>
<trkpt lat="30.8226720" lon="34.8993940">
<ele>250.199997</ele>
<time>2021-04-09T05:44:27.000Z</time>
</trkpt>
<trkpt lat="30.8226460" lon="34.8995470">
<ele>250.100006</ele>
<time>2021-04-09T05:44:29.000Z</time>
</trkpt>
<trkpt lat="30.8226160" lon="34.8998590">
<ele>249.699997</ele>
<time>2021-04-09T05:44:33.000Z</time>
</trkpt>
<trkpt lat="30.8225540" lon="34.9001530">
<ele>249.300003</ele>
<time>2021-04-09T05:44:37.000Z</time>
</trkpt>
<trkpt lat="30.8225280" lon="34.9002950">
<ele>249.200012</ele>
<time>2021-04-09T05:44:39.000Z</time>
</trkpt>
<trkpt lat="30.8225080" lon="34.9005040">
<ele>249.300003</ele>
<time>2021-04-09T05:44:42.000Z</time>
</trkpt>
<trkpt lat="30.8223480" lon="34.9011280">
<ele>249.399994</ele>
<time>2021-04-09T05:44:52.000Z</time>
</trkpt>
<trkpt lat="30.8222480" lon="34.9014360">
<ele>249.699997</ele>
<time>2021-04-09T05:44:57.000Z</time>
</trkpt>
<trkpt lat="30.8221210" lon="34.9015890">
<ele>250.300003</ele>
<time>2021-04-09T05:45:00.000Z</time>
</trkpt>
<trkpt lat="30.8219660" lon="34.9017010">
<ele>251.800003</ele>
<time>2021-04-09T05:45:04.000Z</time>
</trkpt>
<trkpt lat="30.8218710" lon="34.9018880">
<ele>254.299988</ele>
<time>2021-04-09T05:45:14.000Z</time>
</trkpt>
<trkpt lat="30.8219090" lon="34.9021470">
<ele>255.800003</ele>
<time>2021-04-09T05:45:26.000Z</time>
</trkpt>
<trkpt lat="30.8219270" lon="34.9021540">
<ele>255.900009</ele>
<time>2021-04-09T05:45:29.000Z</time>
</trkpt>
<trkpt lat="30.8219840" lon="34.9022450">
<ele>256.100006</ele>
<time>2021-04-09T05:46:46.000Z</time>
</trkpt>
<trkpt lat="30.8220340" lon="34.9024500">
<ele>256.100006</ele>
<time>2021-04-09T05:46:52.000Z</time>
</trkpt>
<trkpt lat="30.8221430" lon="34.9027690">
<ele>255.600006</ele>
<time>2021-04-09T05:46:57.000Z</time>
</trkpt>
<trkpt lat="30.8223450" lon="34.9032040">
<ele>255.000000</ele>
<time>2021-04-09T05:47:05.000Z</time>
</trkpt>
<trkpt lat="30.8226250" lon="34.9038710">
<ele>253.699997</ele>
<time>2021-04-09T05:47:16.000Z</time>
</trkpt>
<trkpt lat="30.8228710" lon="34.9043780">
<ele>253.300003</ele>
<time>2021-04-09T05:47:24.000Z</time>
</trkpt>
<trkpt lat="30.8229700" lon="34.9047130">
<ele>252.499985</ele>
<time>2021-04-09T05:47:29.000Z</time>
</trkpt>
<trkpt lat="30.8231070" lon="34.9050550">
<ele>251.800003</ele>
<time>2021-04-09T05:47:34.000Z</time>
</trkpt>
<trkpt lat="30.8232360" lon="34.9054880">
<ele>251.400009</ele>
<time>2021-04-09T05:47:40.000Z</time>
</trkpt>
<trkpt lat="30.8233730" lon="34.9060340">
<ele>250.500000</ele>
<time>2021-04-09T05:47:47.000Z</time>
</trkpt>
<trkpt lat="30.8235010" lon="34.9068760">
<ele>250.199997</ele>
<time>2021-04-09T05:47:57.000Z</time>
</trkpt>
<trkpt lat="30.8236600" lon="34.9075800">
<ele>250.100006</ele>
<time>2021-04-09T05:48:06.000Z</time>
</trkpt>
<trkpt lat="30.8240440" lon="34.9084010">
<ele>248.100006</ele>
<time>2021-04-09T05:48:18.000Z</time>
</trkpt>
<trkpt lat="30.8242740" lon="34.9090880">
<ele>247.100006</ele>
<time>2021-04-09T05:48:27.000Z</time>
</trkpt>
<trkpt lat="30.8243280" lon="34.9093060">
<ele>247.100006</ele>
<time>2021-04-09T05:48:30.000Z</time>
</trkpt>
<trkpt lat="30.8243230" lon="34.9095220">
<ele>247.500000</ele>
<time>2021-04-09T05:48:33.000Z</time>
</trkpt>
<trkpt lat="30.8242930" lon="34.9096540">
<ele>247.700012</ele>
<time>2021-04-09T05:48:35.000Z</time>
</trkpt>
<trkpt lat="30.8242540" lon="34.9100550">
<ele>247.500000</ele>
<time>2021-04-09T05:48:42.000Z</time>
</trkpt>
<trkpt lat="30.8243010" lon="34.9108650">
<ele>246.200012</ele>
<time>2021-04-09T05:48:55.000Z</time>
</trkpt>
<trkpt lat="30.8243550" lon="34.9112850">
<ele>244.599991</ele>
<time>2021-04-09T05:49:01.000Z</time>
</trkpt>
<trkpt lat="30.8243570" lon="34.9117060">
<ele>245.300003</ele>
<time>2021-04-09T05:49:06.000Z</time>
</trkpt>
<trkpt lat="30.8244180" lon="34.9121070">
<ele>248.500000</ele>
<time>2021-04-09T05:49:17.000Z</time>
</trkpt>
<trkpt lat="30.8244510" lon="34.9122520">
<ele>249.200012</ele>
<time>2021-04-09T05:49:23.000Z</time>
</trkpt>
<trkpt lat="30.8244560" lon="34.9123350">
<ele>249.500015</ele>
<time>2021-04-09T05:49:26.000Z</time>
</trkpt>
<trkpt lat="30.8245970" lon="34.9129490">
<ele>251.400009</ele>
<time>2021-04-09T05:49:46.000Z</time>
</trkpt>
<trkpt lat="30.8247720" lon="34.9133560">
<ele>251.199997</ele>
<time>2021-04-09T05:49:58.000Z</time>
</trkpt>
<trkpt lat="30.8251990" lon="34.9144890">
<ele>251.400009</ele>
<time>2021-04-09T05:50:25.000Z</time>
</trkpt>
<trkpt lat="30.8253120" lon="34.9147070">
<ele>251.299988</ele>
<time>2021-04-09T05:50:30.000Z</time>
</trkpt>
<trkpt lat="30.8253290" lon="34.9148110">
<ele>251.199997</ele>
<time>2021-04-09T05:50:33.000Z</time>
</trkpt>
<trkpt lat="30.8255100" lon="34.9153050">
<ele>250.500000</ele>
<time>2021-04-09T05:50:44.000Z</time>
</trkpt>
<trkpt lat="30.8258670" lon="34.9159340">
<ele>248.799988</ele>
<time>2021-04-09T05:50:57.000Z</time>
</trkpt>
<trkpt lat="30.8259440" lon="34.9161340">
<ele>248.300003</ele>
<time>2021-04-09T05:51:01.000Z</time>
</trkpt>
<trkpt lat="30.8260650" lon="34.9165720">
<ele>245.600006</ele>
<time>2021-04-09T05:51:09.000Z</time>
</trkpt>
<trkpt lat="30.8262370" lon="34.9168760">
<ele>242.200012</ele>
<time>2021-04-09T05:51:15.000Z</time>
</trkpt>
<trkpt lat="30.8262580" lon="34.9169510">
<ele>241.600006</ele>
<time>2021-04-09T05:51:16.000Z</time>
</trkpt>
<trkpt lat="30.8262490" lon="34.9171120">
<ele>240.599991</ele>
<time>2021-04-09T05:51:18.000Z</time>
</trkpt>
<trkpt lat="30.8260660" lon="34.9174560">
<ele>238.600006</ele>
<time>2021-04-09T05:51:23.000Z</time>
</trkpt>
<trkpt lat="30.8260360" lon="34.9175980">
<ele>238.499985</ele>
<time>2021-04-09T05:51:25.000Z</time>
</trkpt>
<trkpt lat="30.8260300" lon="34.9176650">
<ele>238.600006</ele>
<time>2021-04-09T05:51:26.000Z</time>
</trkpt>
<trkpt lat="30.8261770" lon="34.9181100">
<ele>238.799988</ele>
<time>2021-04-09T05:51:35.000Z</time>
</trkpt>
<trkpt lat="30.8261490" lon="34.9185790">
<ele>238.600006</ele>
<time>2021-04-09T05:51:43.000Z</time>
</trkpt>
<trkpt lat="30.8261620" lon="34.9193130">
<ele>238.000000</ele>
<time>2021-04-09T05:51:56.000Z</time>
</trkpt>
<trkpt lat="30.8261360" lon="34.9194880">
<ele>237.699997</ele>
<time>2021-04-09T05:51:59.000Z</time>
</trkpt>
<trkpt lat="30.8260440" lon="34.9196910">
<ele>237.500000</ele>
<time>2021-04-09T05:52:03.000Z</time>
</trkpt>
<trkpt lat="30.8260180" lon="34.9197910">
<ele>237.300003</ele>
<time>2021-04-09T05:52:05.000Z</time>
</trkpt>
<trkpt lat="30.8260410" lon="34.9199610">
<ele>237.000015</ele>
<time>2021-04-09T05:52:08.000Z</time>
</trkpt>
<trkpt lat="30.8260360" lon="34.9203710">
<ele>236.599991</ele>
<time>2021-04-09T05:52:14.000Z</time>
</trkpt>
<trkpt lat="30.8261500" lon="34.9210240">
<ele>235.699997</ele>
<time>2021-04-09T05:52:24.000Z</time>
</trkpt>
<trkpt lat="30.8261180" lon="34.9212950">
<ele>234.900009</ele>
<time>2021-04-09T05:52:28.000Z</time>
</trkpt>
<trkpt lat="30.8260470" lon="34.9215440">
<ele>234.799988</ele>
<time>2021-04-09T05:52:32.000Z</time>
</trkpt>
<trkpt lat="30.8257790" lon="34.9221220">
<ele>234.699997</ele>
<time>2021-04-09T05:52:41.000Z</time>
</trkpt>
<trkpt lat="30.8255480" lon="34.9232090">
<ele>234.900009</ele>
<time>2021-04-09T05:52:56.000Z</time>
</trkpt>
<trkpt lat="30.8255170" lon="34.9235010">
<ele>234.799988</ele>
<time>2021-04-09T05:53:00.000Z</time>
</trkpt>
<trkpt lat="30.8254960" lon="34.9239370">
<ele>234.500000</ele>
<time>2021-04-09T05:53:06.000Z</time>
</trkpt>
<trkpt lat="30.8253260" lon="34.9245750">
<ele>233.400009</ele>
<time>2021-04-09T05:53:15.000Z</time>
</trkpt>
<trkpt lat="30.8252410" lon="34.9247800">
<ele>233.299988</ele>
<time>2021-04-09T05:53:18.000Z</time>
</trkpt>
<trkpt lat="30.8250640" lon="34.9250860">
<ele>232.899994</ele>
<time>2021-04-09T05:53:23.000Z</time>
</trkpt>
<trkpt lat="30.8245600" lon="34.9257300">
<ele>232.099991</ele>
<time>2021-04-09T05:53:35.000Z</time>
</trkpt>
<trkpt lat="30.8243000" lon="34.9261760">
<ele>231.900009</ele>
<time>2021-04-09T05:53:43.000Z</time>
</trkpt>
<trkpt lat="30.8240640" lon="34.9264600">
<ele>231.799988</ele>
<time>2021-04-09T05:53:49.000Z</time>
</trkpt>
<trkpt lat="30.8237080" lon="34.9269620">
<ele>231.900009</ele>
<time>2021-04-09T05:53:59.000Z</time>
</trkpt>
<trkpt lat="30.8234830" lon="34.9271660">
<ele>232.300003</ele>
<time>2021-04-09T05:54:04.000Z</time>
</trkpt>
<trkpt lat="30.8231960" lon="34.9273690">
<ele>233.100006</ele>
<time>2021-04-09T05:54:11.000Z</time>
</trkpt>
<trkpt lat="30.8229560" lon="34.9274750">
<ele>233.700012</ele>
<time>2021-04-09T05:54:17.000Z</time>
</trkpt>
<trkpt lat="30.8216740" lon="34.9279450">
<ele>232.500000</ele>
<time>2021-04-09T05:54:42.000Z</time>
</trkpt>
<trkpt lat="30.8208760" lon="34.9284700">
<ele>230.800003</ele>
<time>2021-04-09T05:54:57.000Z</time>
</trkpt>
<trkpt lat="30.8206300" lon="34.9286690">
<ele>229.899994</ele>
<time>2021-04-09T05:55:02.000Z</time>
</trkpt>
<trkpt lat="30.8204650" lon="34.9288440">
<ele>229.299988</ele>
<time>2021-04-09T05:55:06.000Z</time>
</trkpt>
<trkpt lat="30.8201990" lon="34.9290490">
<ele>228.500000</ele>
<time>2021-04-09T05:55:12.000Z</time>
</trkpt>
<trkpt lat="30.8201000" lon="34.9291000">
<ele>228.300003</ele>
<time>2021-04-09T05:55:14.000Z</time>
</trkpt>
<trkpt lat="30.8197870" lon="34.9292150">
<ele>227.399994</ele>
<time>2021-04-09T05:55:20.000Z</time>
</trkpt>
<trkpt lat="30.8193060" lon="34.9292780">
<ele>226.100006</ele>
<time>2021-04-09T05:55:28.000Z</time>
</trkpt>
<trkpt lat="30.8191260" lon="34.9293520">
<ele>225.300003</ele>
<time>2021-04-09T05:55:31.000Z</time>
</trkpt>
<trkpt lat="30.8184150" lon="34.9297480">
<ele>223.100006</ele>
<time>2021-04-09T05:55:43.000Z</time>
</trkpt>
<trkpt lat="30.8173180" lon="34.9305590">
<ele>221.300003</ele>
<time>2021-04-09T05:56:04.000Z</time>
</trkpt>
<trkpt lat="30.8170180" lon="34.9309170">
<ele>221.000000</ele>
<time>2021-04-09T05:56:11.000Z</time>
</trkpt>
<trkpt lat="30.8167770" lon="34.9311010">
<ele>221.200012</ele>
<time>2021-04-09T05:56:16.000Z</time>
</trkpt>
<trkpt lat="30.8163880" lon="34.9315790">
<ele>220.900009</ele>
<time>2021-04-09T05:56:27.000Z</time>
</trkpt>
<trkpt lat="30.8162770" lon="34.9317560">
<ele>220.799988</ele>
<time>2021-04-09T05:56:31.000Z</time>
</trkpt>
<trkpt lat="30.8160530" lon="34.9320080">
<ele>220.399994</ele>
<time>2021-04-09T05:56:38.000Z</time>
</trkpt>
<trkpt lat="30.8160120" lon="34.9321410">
<ele>220.099991</ele>
<time>2021-04-09T05:56:41.000Z</time>
</trkpt>
<trkpt lat="30.8159870" lon="34.9324180">
<ele>219.500000</ele>
<time>2021-04-09T05:56:45.000Z</time>
</trkpt>
<trkpt lat="30.8159250" lon="34.9325090">
<ele>219.500000</ele>
<time>2021-04-09T05:56:47.000Z</time>
</trkpt>
<trkpt lat="30.8158030" lon="34.9326010">
<ele>219.800003</ele>
<time>2021-04-09T05:56:50.000Z</time>
</trkpt>
<trkpt lat="30.8156750" lon="34.9327310">
<ele>220.099991</ele>
<time>2021-04-09T05:56:54.000Z</time>
</trkpt>
<trkpt lat="30.8154080" lon="34.9331610">
<ele>219.599991</ele>
<time>2021-04-09T05:57:04.000Z</time>
</trkpt>
<trkpt lat="30.8153080" lon="34.9334250">
<ele>219.299988</ele>
<time>2021-04-09T05:57:09.000Z</time>
</trkpt>
<trkpt lat="30.8151980" lon="34.9339020">
<ele>218.400009</ele>
<time>2021-04-09T05:57:17.000Z</time>
</trkpt>
<trkpt lat="30.8151460" lon="34.9344200">
<ele>217.800003</ele>
<time>2021-04-09T05:57:25.000Z</time>
</trkpt>
<trkpt lat="30.8150130" lon="34.9350430">
<ele>217.399994</ele>
<time>2021-04-09T05:57:35.000Z</time>
</trkpt>
<trkpt lat="30.8149670" lon="34.9353850">
<ele>217.200012</ele>
<time>2021-04-09T05:57:40.000Z</time>
</trkpt>
<trkpt lat="30.8149460" lon="34.9357300">
<ele>216.799988</ele>
<time>2021-04-09T05:57:45.000Z</time>
</trkpt>
<trkpt lat="30.8148820" lon="34.9364540">
<ele>216.600006</ele>
<time>2021-04-09T05:57:58.000Z</time>
</trkpt>
<trkpt lat="30.8148870" lon="34.9365300">
<ele>216.699997</ele>
<time>2021-04-09T05:58:02.000Z</time>
</trkpt>
<trkpt lat="30.8148310" lon="34.9365810">
<ele>216.799988</ele>
<time>2021-04-09T05:58:08.000Z</time>
</trkpt>
<trkpt lat="30.8147520" lon="34.9367520">
<ele>217.200012</ele>
<time>2021-04-09T05:58:14.000Z</time>
</trkpt>
<trkpt lat="30.8146960" lon="34.9368380">
<ele>217.399994</ele>
<time>2021-04-09T05:58:18.000Z</time>
</trkpt>
<trkpt lat="30.8146940" lon="34.9368770">
<ele>217.500015</ele>
<time>2021-04-09T05:58:20.000Z</time>
</trkpt>
<trkpt lat="30.8147300" lon="34.9369040">
<ele>217.600006</ele>
<time>2021-04-09T05:58:23.000Z</time>
</trkpt>
<trkpt lat="30.8146890" lon="34.9369750">
<ele>217.699997</ele>
<time>2021-04-09T05:58:29.000Z</time>
</trkpt>
<trkpt lat="30.8146910" lon="34.9370510">
<ele>217.699997</ele>
<time>2021-04-09T05:58:32.000Z</time>
</trkpt>
<trkpt lat="30.8146580" lon="34.9372770">
<ele>218.100006</ele>
<time>2021-04-09T05:58:41.000Z</time>
</trkpt>
<trkpt lat="30.8145820" lon="34.9378640">
<ele>220.099991</ele>
<time>2021-04-09T05:58:54.000Z</time>
</trkpt>
<trkpt lat="30.8145810" lon="34.9380710">
<ele>221.200012</ele>
<time>2021-04-09T05:58:59.000Z</time>
</trkpt>
<trkpt lat="30.8145440" lon="34.9383860">
<ele>222.899994</ele>
<time>2021-04-09T05:59:08.000Z</time>
</trkpt>
<trkpt lat="30.8144710" lon="34.9386570">
<ele>224.900009</ele>
<time>2021-04-09T05:59:18.000Z</time>
</trkpt>
<trkpt lat="30.8144800" lon="34.9387470">
<ele>225.599991</ele>
<time>2021-04-09T05:59:22.000Z</time>
</trkpt>
<trkpt lat="30.8145900" lon="34.9387820">
<ele>226.100006</ele>
<time>2021-04-09T05:59:29.000Z</time>
</trkpt>
<trkpt lat="30.8146350" lon="34.9386930">
<ele>225.400009</ele>
<time>2021-04-09T05:59:33.000Z</time>
</trkpt>
<trkpt lat="30.8146110" lon="34.9385570">
<ele>224.399994</ele>
<time>2021-04-09T05:59:38.000Z</time>
</trkpt>
<trkpt lat="30.8146060" lon="34.9384480">
<ele>223.699997</ele>
<time>2021-04-09T05:59:41.000Z</time>
</trkpt>
<trkpt lat="30.8147500" lon="34.9381060">
<ele>221.399994</ele>
<time>2021-04-09T05:59:51.000Z</time>
</trkpt>
<trkpt lat="30.8149370" lon="34.9378460">
<ele>220.600006</ele>
<time>2021-04-09T06:00:00.000Z</time>
</trkpt>
<trkpt lat="30.8152460" lon="34.9373540">
<ele>220.499985</ele>
<time>2021-04-09T06:00:19.000Z</time>
</trkpt>
<trkpt lat="30.8153060" lon="34.9373060">
<ele>220.000000</ele>
<time>2021-04-09T06:00:21.000Z</time>
</trkpt>
<trkpt lat="30.8154050" lon="34.9372760">
<ele>219.800003</ele>
<time>2021-04-09T06:00:25.000Z</time>
</trkpt>
<trkpt lat="30.8154920" lon="34.9371360">
<ele>219.199997</ele>
<time>2021-04-09T06:00:32.000Z</time>
</trkpt>
<trkpt lat="30.8155550" lon="34.9371160">
<ele>218.899994</ele>
<time>2021-04-09T06:00:34.000Z</time>
</trkpt>
<trkpt lat="30.8157770" lon="34.9373340">
<ele>219.199997</ele>
<time>2021-04-09T06:00:46.000Z</time>
</trkpt>
<trkpt lat="30.8159710" lon="34.9375710">
<ele>219.500000</ele>
<time>2021-04-09T06:00:58.000Z</time>
</trkpt>
<trkpt lat="30.8159270" lon="34.9376580">
<ele>219.599991</ele>
<time>2021-04-09T06:01:04.000Z</time>
</trkpt>
<trkpt lat="30.8159120" lon="34.9377460">
<ele>219.699997</ele>
<time>2021-04-09T06:01:10.000Z</time>
</trkpt>
<trkpt lat="30.8159140" lon="34.9377210">
<ele>219.699997</ele>
<time>2021-04-09T06:01:15.000Z</time>
</trkpt>
<trkpt lat="30.8158850" lon="34.9377670">
<ele>219.800003</ele>
<time>2021-04-09T06:01:26.000Z</time>
</trkpt>
<trkpt lat="30.8158760" lon="34.9379460">
<ele>220.000000</ele>
<time>2021-04-09T06:01:45.000Z</time>
</trkpt>
<trkpt lat="30.8158410" lon="34.9380640">
<ele>220.099991</ele>
<time>2021-04-09T06:01:50.000Z</time>
</trkpt>
<trkpt lat="30.8158560" lon="34.9382500">
<ele>220.300003</ele>
<time>2021-04-09T06:01:57.000Z</time>
</trkpt>
<trkpt lat="30.8159030" lon="34.9383650">
<ele>220.399994</ele>
<time>2021-04-09T06:02:03.000Z</time>
</trkpt>
<trkpt lat="30.8161270" lon="34.9387120">
<ele>220.799988</ele>
<time>2021-04-09T06:02:15.000Z</time>
</trkpt>
<trkpt lat="30.8162610" lon="34.9389640">
<ele>221.099991</ele>
<time>2021-04-09T06:02:23.000Z</time>
</trkpt>
<trkpt lat="30.8163160" lon="34.9391040">
<ele>221.200012</ele>
<time>2021-04-09T06:02:26.000Z</time>
</trkpt>
<trkpt lat="30.8163320" lon="34.9392370">
<ele>221.300003</ele>
<time>2021-04-09T06:02:30.000Z</time>
</trkpt>
<trkpt lat="30.8163160" lon="34.9393990">
<ele>221.500000</ele>
<time>2021-04-09T06:02:34.000Z</time>
</trkpt>
<trkpt lat="30.8162710" lon="34.9395740">
<ele>221.600006</ele>
<time>2021-04-09T06:02:41.000Z</time>
</trkpt>
<trkpt lat="30.8161140" lon="34.9397960">
<ele>221.899994</ele>
<time>2021-04-09T06:02:52.000Z</time>
</trkpt>
<trkpt lat="30.8161280" lon="34.9401980">
<ele>218.899994</ele>
<time>2021-04-09T06:03:03.000Z</time>
</trkpt>
<trkpt lat="30.8160520" lon="34.9406250">
<ele>217.200012</ele>
<time>2021-04-09T06:03:08.000Z</time>
</trkpt>
<trkpt lat="30.8159510" lon="34.9410280">
<ele>215.800003</ele>
<time>2021-04-09T06:03:13.000Z</time>
</trkpt>
<trkpt lat="30.8159090" lon="34.9411850">
<ele>214.899994</ele>
<time>2021-04-09T06:03:15.000Z</time>
</trkpt>
<trkpt lat="30.8157920" lon="34.9414910">
<ele>212.400009</ele>
<time>2021-04-09T06:03:20.000Z</time>
</trkpt>
<trkpt lat="30.8157260" lon="34.9416070">
<ele>211.100006</ele>
<time>2021-04-09T06:03:22.000Z</time>
</trkpt>
<trkpt lat="30.8156780" lon="34.9416540">
<ele>210.500000</ele>
<time>2021-04-09T06:03:23.000Z</time>
</trkpt>
<trkpt lat="30.8154210" lon="34.9417650">
<ele>208.800003</ele>
<time>2021-04-09T06:03:27.000Z</time>
</trkpt>
<trkpt lat="30.8153120" lon="34.9418350">
<ele>208.100006</ele>
<time>2021-04-09T06:03:30.000Z</time>
</trkpt>
<trkpt lat="30.8153170" lon="34.9418760">
<ele>207.800003</ele>
<time>2021-04-09T06:03:32.000Z</time>
</trkpt>
<trkpt lat="30.8154570" lon="34.9419730">
<ele>206.699997</ele>
<time>2021-04-09T06:03:36.000Z</time>
</trkpt>
<trkpt lat="30.8155300" lon="34.9420770">
<ele>206.200012</ele>
<time>2021-04-09T06:03:39.000Z</time>
</trkpt>
<trkpt lat="30.8155430" lon="34.9421690">
<ele>205.900009</ele>
<time>2021-04-09T06:03:41.000Z</time>
</trkpt>
<trkpt lat="30.8154250" lon="34.9426530">
<ele>206.099991</ele>
<time>2021-04-09T06:03:52.000Z</time>
</trkpt>
<trkpt lat="30.8154050" lon="34.9427010">
<ele>206.200012</ele>
<time>2021-04-09T06:03:53.000Z</time>
</trkpt>
<trkpt lat="30.8151330" lon="34.9429390">
<ele>207.199997</ele>
<time>2021-04-09T06:04:01.000Z</time>
</trkpt>
<trkpt lat="30.8150560" lon="34.9430780">
<ele>207.800003</ele>
<time>2021-04-09T06:04:04.000Z</time>
</trkpt>
<trkpt lat="30.8150110" lon="34.9432300">
<ele>207.999985</ele>
<time>2021-04-09T06:04:07.000Z</time>
</trkpt>
<trkpt lat="30.8149700" lon="34.9437540">
<ele>207.999985</ele>
<time>2021-04-09T06:04:16.000Z</time>
</trkpt>
<trkpt lat="30.8150260" lon="34.9440720">
<ele>207.800003</ele>
<time>2021-04-09T06:04:21.000Z</time>
</trkpt>
<trkpt lat="30.8150060" lon="34.9444550">
<ele>207.599991</ele>
<time>2021-04-09T06:04:27.000Z</time>
</trkpt>
<trkpt lat="30.8150680" lon="34.9447010">
<ele>207.199997</ele>
<time>2021-04-09T06:04:31.000Z</time>
</trkpt>
<trkpt lat="30.8151710" lon="34.9448690">
<ele>206.900009</ele>
<time>2021-04-09T06:04:34.000Z</time>
</trkpt>
<trkpt lat="30.8153880" lon="34.9450090">
<ele>206.600006</ele>
<time>2021-04-09T06:04:38.000Z</time>
</trkpt>
<trkpt lat="30.8157650" lon="34.9451650">
<ele>206.099991</ele>
<time>2021-04-09T06:04:45.000Z</time>
</trkpt>
<trkpt lat="30.8159640" lon="34.9451880">
<ele>207.000000</ele>
<time>2021-04-09T06:04:50.000Z</time>
</trkpt>
<trkpt lat="30.8161940" lon="34.9453400">
<ele>208.800003</ele>
<time>2021-04-09T06:04:56.000Z</time>
</trkpt>
<trkpt lat="30.8165620" lon="34.9454090">
<ele>207.999985</ele>
<time>2021-04-09T06:05:03.000Z</time>
</trkpt>
<trkpt lat="30.8167920" lon="34.9453690">
<ele>207.300003</ele>
<time>2021-04-09T06:05:08.000Z</time>
</trkpt>
<trkpt lat="30.8170560" lon="34.9453690">
<ele>206.099991</ele>
<time>2021-04-09T06:05:14.000Z</time>
</trkpt>
<trkpt lat="30.8171600" lon="34.9453320">
<ele>205.400009</ele>
<time>2021-04-09T06:05:16.000Z</time>
</trkpt>
<trkpt lat="30.8176210" lon="34.9449380">
<ele>205.300003</ele>
<time>2021-04-09T06:05:29.000Z</time>
</trkpt>
<trkpt lat="30.8176920" lon="34.9448940">
<ele>205.400009</ele>
<time>2021-04-09T06:05:32.000Z</time>
</trkpt>
<trkpt lat="30.8177460" lon="34.9448740">
<ele>205.300003</ele>
<time>2021-04-09T06:05:34.000Z</time>
</trkpt>
<trkpt lat="30.8177740" lon="34.9448880">
<ele>205.300003</ele>
<time>2021-04-09T06:05:35.000Z</time>
</trkpt>
<trkpt lat="30.8178510" lon="34.9446950">
<ele>205.300003</ele>
<time>2021-04-09T06:05:42.000Z</time>
</trkpt>
<trkpt lat="30.8178090" lon="34.9447550">
<ele>205.300003</ele>
<time>2021-04-09T06:05:49.000Z</time>
</trkpt>
<trkpt lat="30.8176870" lon="34.9448020">
<ele>205.199997</ele>
<time>2021-04-09T06:15:08.000Z</time>
</trkpt>
<trkpt lat="30.8175170" lon="34.9449480">
<ele>204.899994</ele>
<time>2021-04-09T06:15:15.000Z</time>
</trkpt>
<trkpt lat="30.8172310" lon="34.9452630">
<ele>205.500000</ele>
<time>2021-04-09T06:15:27.000Z</time>
</trkpt>
<trkpt lat="30.8170470" lon="34.9453670">
<ele>206.399994</ele>
<time>2021-04-09T06:15:32.000Z</time>
</trkpt>
<trkpt lat="30.8169150" lon="34.9453760">
<ele>206.799988</ele>
<time>2021-04-09T06:15:35.000Z</time>
</trkpt>
<trkpt lat="30.8168280" lon="34.9453480">
<ele>207.000000</ele>
<time>2021-04-09T06:15:38.000Z</time>
</trkpt>
<trkpt lat="30.8167910" lon="34.9452860">
<ele>207.699997</ele>
<time>2021-04-09T06:15:41.000Z</time>
</trkpt>
<trkpt lat="30.8169180" lon="34.9450230">
<ele>210.500000</ele>
<time>2021-04-09T06:15:56.000Z</time>
</trkpt>
<trkpt lat="30.8171440" lon="34.9448280">
<ele>209.699997</ele>
<time>2021-04-09T06:16:13.000Z</time>
</trkpt>
<trkpt lat="30.8173850" lon="34.9448360">
<ele>210.399994</ele>
<time>2021-04-09T06:16:20.000Z</time>
</trkpt>
<trkpt lat="30.8174720" lon="34.9447370">
<ele>209.699997</ele>
<time>2021-04-09T06:16:26.000Z</time>
</trkpt>
<trkpt lat="30.8174930" lon="34.9446510">
<ele>208.899994</ele>
<time>2021-04-09T06:16:29.000Z</time>
</trkpt>
<trkpt lat="30.8176250" lon="34.9445580">
<ele>207.999985</ele>
<time>2021-04-09T06:16:34.000Z</time>
</trkpt>
<trkpt lat="30.8176750" lon="34.9445940">
<ele>207.800003</ele>
<time>2021-04-09T06:16:36.000Z</time>
</trkpt>
<trkpt lat="30.8176260" lon="34.9447740">
<ele>207.300003</ele>
<time>2021-04-09T06:16:44.000Z</time>
</trkpt>
<trkpt lat="30.8176280" lon="34.9447570">
<ele>207.300003</ele>
<time>2021-04-09T06:16:45.000Z</time>
</trkpt>
<trkpt lat="30.8176910" lon="34.9447480">
<ele>207.300003</ele>
<time>2021-04-09T06:16:51.000Z</time>
</trkpt>
<trkpt lat="30.8177370" lon="34.9446980">
<ele>207.300003</ele>
<time>2021-04-09T06:16:55.000Z</time>
</trkpt>
<trkpt lat="30.8178150" lon="34.9446850">
<ele>207.500000</ele>
<time>2021-04-09T06:17:02.000Z</time>
</trkpt>
<trkpt lat="30.8177740" lon="34.9446750">
<ele>207.699997</ele>
<time>2021-04-09T06:19:08.000Z</time>
</trkpt>
<trkpt lat="30.8177510" lon="34.9446440">
<ele>207.800003</ele>
<time>2021-04-09T06:19:12.000Z</time>
</trkpt>
<trkpt lat="30.8177200" lon="34.9446260">
<ele>207.999985</ele>
<time>2021-04-09T06:23:35.000Z</time>
</trkpt>
<trkpt lat="30.8176840" lon="34.9446270">
<ele>208.199997</ele>
<time>2021-04-09T06:23:41.000Z</time>
</trkpt>
<trkpt lat="30.8176200" lon="34.9445600">
<ele>208.299988</ele>
<time>2021-04-09T06:23:47.000Z</time>
</trkpt>
<trkpt lat="30.8176190" lon="34.9444700">
<ele>208.299988</ele>
<time>2021-04-09T06:24:10.000Z</time>
</trkpt>
<trkpt lat="30.8176460" lon="34.9444260">
<ele>208.299988</ele>
<time>2021-04-09T06:24:15.000Z</time>
</trkpt>
<trkpt lat="30.8177750" lon="34.9443200">
<ele>208.299988</ele>
<time>2021-04-09T06:25:16.000Z</time>
</trkpt>
<trkpt lat="30.8178170" lon="34.9443120">
<ele>208.500000</ele>
<time>2021-04-09T06:25:18.000Z</time>
</trkpt>
<trkpt lat="30.8179110" lon="34.9443520">
<ele>208.700012</ele>
<time>2021-04-09T06:25:23.000Z</time>
</trkpt>
<trkpt lat="30.8179750" lon="34.9443500">
<ele>208.700012</ele>
<time>2021-04-09T06:25:25.000Z</time>
</trkpt>
<trkpt lat="30.8180880" lon="34.9443780">
<ele>208.599991</ele>
<time>2021-04-09T06:25:32.000Z</time>
</trkpt>
<trkpt lat="30.8182070" lon="34.9444420">
<ele>208.700012</ele>
<time>2021-04-09T06:25:40.000Z</time>
</trkpt>
<trkpt lat="30.8184080" lon="34.9444240">
<ele>208.800003</ele>
<time>2021-04-09T06:25:50.000Z</time>
</trkpt>
<trkpt lat="30.8185630" lon="34.9444460">
<ele>209.000000</ele>
<time>2021-04-09T06:25:58.000Z</time>
</trkpt>
<trkpt lat="30.8187450" lon="34.9444290">
<ele>209.500000</ele>
<time>2021-04-09T06:26:06.000Z</time>
</trkpt>
<trkpt lat="30.8188370" lon="34.9443850">
<ele>209.799988</ele>
<time>2021-04-09T06:26:11.000Z</time>
</trkpt>
<trkpt lat="30.8190250" lon="34.9442300">
<ele>210.500000</ele>
<time>2021-04-09T06:26:21.000Z</time>
</trkpt>
<trkpt lat="30.8191240" lon="34.9440800">
<ele>211.000000</ele>
<time>2021-04-09T06:26:27.000Z</time>
</trkpt>
<trkpt lat="30.8193130" lon="34.9438610">
<ele>212.300003</ele>
<time>2021-04-09T06:26:38.000Z</time>
</trkpt>
<trkpt lat="30.8194110" lon="34.9436110">
<ele>213.499985</ele>
<time>2021-04-09T06:26:48.000Z</time>
</trkpt>
<trkpt lat="30.8194780" lon="34.9433790">
<ele>213.499985</ele>
<time>2021-04-09T06:26:57.000Z</time>
</trkpt>
<trkpt lat="30.8194720" lon="34.9432460">
<ele>213.600006</ele>
<time>2021-04-09T06:27:05.000Z</time>
</trkpt>
<trkpt lat="30.8195550" lon="34.9431710">
<ele>213.699997</ele>
<time>2021-04-09T06:27:19.000Z</time>
</trkpt>
<trkpt lat="30.8196880" lon="34.9431720">
<ele>213.900009</ele>
<time>2021-04-09T06:27:55.000Z</time>
</trkpt>
<trkpt lat="30.8198430" lon="34.9431340">
<ele>214.199997</ele>
<time>2021-04-09T06:28:03.000Z</time>
</trkpt>
<trkpt lat="30.8199270" lon="34.9431360">
<ele>214.399994</ele>
<time>2021-04-09T06:28:06.000Z</time>
</trkpt>
<trkpt lat="30.8202100" lon="34.9432110">
<ele>214.800003</ele>
<time>2021-04-09T06:28:16.000Z</time>
</trkpt>
<trkpt lat="30.8203240" lon="34.9432710">
<ele>214.500000</ele>
<time>2021-04-09T06:28:21.000Z</time>
</trkpt>
<trkpt lat="30.8203790" lon="34.9433470">
<ele>214.500000</ele>
<time>2021-04-09T06:28:24.000Z</time>
</trkpt>
<trkpt lat="30.8203920" lon="34.9436120">
<ele>215.299988</ele>
<time>2021-04-09T06:28:33.000Z</time>
</trkpt>
<trkpt lat="30.8204360" lon="34.9437130">
<ele>215.700012</ele>
<time>2021-04-09T06:28:37.000Z</time>
</trkpt>
<trkpt lat="30.8204960" lon="34.9440070">
<ele>216.300003</ele>
<time>2021-04-09T06:28:45.000Z</time>
</trkpt>
<trkpt lat="30.8205610" lon="34.9441890">
<ele>216.399994</ele>
<time>2021-04-09T06:28:51.000Z</time>
</trkpt>
<trkpt lat="30.8207420" lon="34.9450420">
<ele>218.500000</ele>
<time>2021-04-09T06:29:15.000Z</time>
</trkpt>
<trkpt lat="30.8208250" lon="34.9451810">
<ele>219.000015</ele>
<time>2021-04-09T06:29:19.000Z</time>
</trkpt>
<trkpt lat="30.8209060" lon="34.9452360">
<ele>219.100006</ele>
<time>2021-04-09T06:29:21.000Z</time>
</trkpt>
<trkpt lat="30.8210000" lon="34.9452560">
<ele>218.899994</ele>
<time>2021-04-09T06:29:24.000Z</time>
</trkpt>
<trkpt lat="30.8210840" lon="34.9453440">
<ele>218.800003</ele>
<time>2021-04-09T06:29:27.000Z</time>
</trkpt>
<trkpt lat="30.8211740" lon="34.9455590">
<ele>219.000015</ele>
<time>2021-04-09T06:29:32.000Z</time>
</trkpt>
<trkpt lat="30.8214650" lon="34.9460730">
<ele>219.800003</ele>
<time>2021-04-09T06:29:46.000Z</time>
</trkpt>
<trkpt lat="30.8217470" lon="34.9467870">
<ele>220.499985</ele>
<time>2021-04-09T06:30:06.000Z</time>
</trkpt>
<trkpt lat="30.8219860" lon="34.9470940">
<ele>221.099991</ele>
<time>2021-04-09T06:30:17.000Z</time>
</trkpt>
<trkpt lat="30.8221360" lon="34.9473550">
<ele>221.399994</ele>
<time>2021-04-09T06:30:25.000Z</time>
</trkpt>
<trkpt lat="30.8222180" lon="34.9475960">
<ele>222.000000</ele>
<time>2021-04-09T06:30:31.000Z</time>
</trkpt>
<trkpt lat="30.8224930" lon="34.9479680">
<ele>223.300003</ele>
<time>2021-04-09T06:30:44.000Z</time>
</trkpt>
<trkpt lat="30.8225880" lon="34.9481950">
<ele>223.799988</ele>
<time>2021-04-09T06:30:52.000Z</time>
</trkpt>
<trkpt lat="30.8226360" lon="34.9483730">
<ele>224.099991</ele>
<time>2021-04-09T06:30:56.000Z</time>
</trkpt>
<trkpt lat="30.8227450" lon="34.9486190">
<ele>224.699997</ele>
<time>2021-04-09T06:31:04.000Z</time>
</trkpt>
<trkpt lat="30.8228090" lon="34.9487250">
<ele>225.000000</ele>
<time>2021-04-09T06:31:07.000Z</time>
</trkpt>
<trkpt lat="30.8230000" lon="34.9489490">
<ele>226.400009</ele>
<time>2021-04-09T06:31:16.000Z</time>
</trkpt>
<trkpt lat="30.8232380" lon="34.9491680">
<ele>227.600006</ele>
<time>2021-04-09T06:31:27.000Z</time>
</trkpt>
<trkpt lat="30.8232590" lon="34.9492450">
<ele>227.699997</ele>
<time>2021-04-09T06:31:29.000Z</time>
</trkpt>
<trkpt lat="30.8232400" lon="34.9493890">
<ele>227.799988</ele>
<time>2021-04-09T06:31:33.000Z</time>
</trkpt>
<trkpt lat="30.8233420" lon="34.9496060">
<ele>227.600006</ele>
<time>2021-04-09T06:31:38.000Z</time>
</trkpt>
<trkpt lat="30.8233740" lon="34.9497240">
<ele>227.900009</ele>
<time>2021-04-09T06:31:40.000Z</time>
</trkpt>
<trkpt lat="30.8234440" lon="34.9498380">
<ele>228.899994</ele>
<time>2021-04-09T06:31:42.000Z</time>
</trkpt>
<trkpt lat="30.8236050" lon="34.9498840">
<ele>230.600006</ele>
<time>2021-04-09T06:31:51.000Z</time>
</trkpt>
<trkpt lat="30.8236950" lon="34.9498600">
<ele>231.300003</ele>
<time>2021-04-09T06:31:58.000Z</time>
</trkpt>
<trkpt lat="30.8240260" lon="34.9500440">
<ele>234.000000</ele>
<time>2021-04-09T06:32:17.000Z</time>
</trkpt>
<trkpt lat="30.8240660" lon="34.9500560">
<ele>234.399994</ele>
<time>2021-04-09T06:32:19.000Z</time>
</trkpt>
<trkpt lat="30.8242640" lon="34.9500120">
<ele>236.599991</ele>
<time>2021-04-09T06:32:32.000Z</time>
</trkpt>
<trkpt lat="30.8245280" lon="34.9501930">
<ele>239.099991</ele>
<time>2021-04-09T06:32:50.000Z</time>
</trkpt>
<trkpt lat="30.8246270" lon="34.9502010">
<ele>239.699997</ele>
<time>2021-04-09T06:32:56.000Z</time>
</trkpt>
<trkpt lat="30.8247510" lon="34.9501780">
<ele>240.700012</ele>
<time>2021-04-09T06:33:03.000Z</time>
</trkpt>
<trkpt lat="30.8248450" lon="34.9501820">
<ele>241.500000</ele>
<time>2021-04-09T06:33:08.000Z</time>
</trkpt>
<trkpt lat="30.8251040" lon="34.9501560">
<ele>243.199997</ele>
<time>2021-04-09T06:33:21.000Z</time>
</trkpt>
<trkpt lat="30.8252420" lon="34.9501260">
<ele>243.599991</ele>
<time>2021-04-09T06:33:28.000Z</time>
</trkpt>
<trkpt lat="30.8255400" lon="34.9499810">
<ele>244.300003</ele>
<time>2021-04-09T06:33:39.000Z</time>
</trkpt>
<trkpt lat="30.8257820" lon="34.9499280">
<ele>244.599991</ele>
<time>2021-04-09T06:33:47.000Z</time>
</trkpt>
<trkpt lat="30.8259530" lon="34.9498480">
<ele>244.500000</ele>
<time>2021-04-09T06:33:51.000Z</time>
</trkpt>
<trkpt lat="30.8260680" lon="34.9498230">
<ele>244.300003</ele>
<time>2021-04-09T06:33:54.000Z</time>
</trkpt>
<trkpt lat="30.8263210" lon="34.9498740">
<ele>244.199997</ele>
<time>2021-04-09T06:33:57.000Z</time>
</trkpt>
<trkpt lat="30.8266800" lon="34.9500620">
<ele>245.000000</ele>
<time>2021-04-09T06:34:05.000Z</time>
</trkpt>
<trkpt lat="30.8267800" lon="34.9500440">
<ele>244.800003</ele>
<time>2021-04-09T06:34:08.000Z</time>
</trkpt>
<trkpt lat="30.8268720" lon="34.9500070">
<ele>244.500000</ele>
<time>2021-04-09T06:34:11.000Z</time>
</trkpt>
<trkpt lat="30.8270510" lon="34.9499780">
<ele>243.899994</ele>
<time>2021-04-09T06:34:14.000Z</time>
</trkpt>
<trkpt lat="30.8273820" lon="34.9501250">
<ele>244.100006</ele>
<time>2021-04-09T06:34:21.000Z</time>
</trkpt>
<trkpt lat="30.8275260" lon="34.9501590">
<ele>243.599991</ele>
<time>2021-04-09T06:34:24.000Z</time>
</trkpt>
<trkpt lat="30.8275840" lon="34.9501910">
<ele>243.400009</ele>
<time>2021-04-09T06:34:25.000Z</time>
</trkpt>
<trkpt lat="30.8277340" lon="34.9503990">
<ele>242.600006</ele>
<time>2021-04-09T06:34:29.000Z</time>
</trkpt>
<trkpt lat="30.8278790" lon="34.9504860">
<ele>242.500000</ele>
<time>2021-04-09T06:34:33.000Z</time>
</trkpt>
<trkpt lat="30.8279440" lon="34.9505600">
<ele>242.500000</ele>
<time>2021-04-09T06:34:37.000Z</time>
</trkpt>
<trkpt lat="30.8279600" lon="34.9506580">
<ele>242.399994</ele>
<time>2021-04-09T06:34:39.000Z</time>
</trkpt>
<trkpt lat="30.8280340" lon="34.9508470">
<ele>242.099991</ele>
<time>2021-04-09T06:34:43.000Z</time>
</trkpt>
<trkpt lat="30.8284210" lon="34.9511550">
<ele>237.400009</ele>
<time>2021-04-09T06:34:52.000Z</time>
</trkpt>
<trkpt lat="30.8284530" lon="34.9512570">
<ele>236.400009</ele>
<time>2021-04-09T06:34:54.000Z</time>
</trkpt>
<trkpt lat="30.8284200" lon="34.9513570">
<ele>235.500000</ele>
<time>2021-04-09T06:34:56.000Z</time>
</trkpt>
<trkpt lat="30.8283310" lon="34.9514720">
<ele>234.500000</ele>
<time>2021-04-09T06:34:59.000Z</time>
</trkpt>
<trkpt lat="30.8283100" lon="34.9515640">
<ele>234.199997</ele>
<time>2021-04-09T06:35:01.000Z</time>
</trkpt>
<trkpt lat="30.8283760" lon="34.9517030">
<ele>233.700012</ele>
<time>2021-04-09T06:35:05.000Z</time>
</trkpt>
<trkpt lat="30.8284850" lon="34.9517790">
<ele>233.299988</ele>
<time>2021-04-09T06:35:08.000Z</time>
</trkpt>
<trkpt lat="30.8284390" lon="34.9518190">
<ele>233.199997</ele>
<time>2021-04-09T06:35:10.000Z</time>
</trkpt>
<trkpt lat="30.8287740" lon="34.9519270">
<ele>233.299988</ele>
<time>2021-04-09T06:35:16.000Z</time>
</trkpt>
<trkpt lat="30.8288350" lon="34.9519550">
<ele>233.500000</ele>
<time>2021-04-09T06:35:18.000Z</time>
</trkpt>
<trkpt lat="30.8290900" lon="34.9521590">
<ele>234.300003</ele>
<time>2021-04-09T06:35:26.000Z</time>
</trkpt>
<trkpt lat="30.8292520" lon="34.9523490">
<ele>235.099991</ele>
<time>2021-04-09T06:35:32.000Z</time>
</trkpt>
<trkpt lat="30.8295020" lon="34.9527600">
<ele>237.300003</ele>
<time>2021-04-09T06:35:44.000Z</time>
</trkpt>
<trkpt lat="30.8296380" lon="34.9531330">
<ele>238.900009</ele>
<time>2021-04-09T06:35:57.000Z</time>
</trkpt>
<trkpt lat="30.8296610" lon="34.9532450">
<ele>239.300003</ele>
<time>2021-04-09T06:36:00.000Z</time>
</trkpt>
<trkpt lat="30.8296170" lon="34.9535160">
<ele>239.300003</ele>
<time>2021-04-09T06:36:08.000Z</time>
</trkpt>
<trkpt lat="30.8296190" lon="34.9537100">
<ele>239.599991</ele>
<time>2021-04-09T06:36:13.000Z</time>
</trkpt>
<trkpt lat="30.8296410" lon="34.9538390">
<ele>240.299988</ele>
<time>2021-04-09T06:36:16.000Z</time>
</trkpt>
<trkpt lat="30.8296980" lon="34.9539640">
<ele>241.399994</ele>
<time>2021-04-09T06:36:19.000Z</time>
</trkpt>
<trkpt lat="30.8297570" lon="34.9540360">
<ele>242.200012</ele>
<time>2021-04-09T06:36:22.000Z</time>
</trkpt>
<trkpt lat="30.8299170" lon="34.9541570">
<ele>243.700012</ele>
<time>2021-04-09T06:36:29.000Z</time>
</trkpt>
<trkpt lat="30.8299660" lon="34.9543460">
<ele>244.800003</ele>
<time>2021-04-09T06:36:38.000Z</time>
</trkpt>
<trkpt lat="30.8300220" lon="34.9544520">
<ele>245.399994</ele>
<time>2021-04-09T06:36:43.000Z</time>
</trkpt>
<trkpt lat="30.8301270" lon="34.9545530">
<ele>246.600006</ele>
<time>2021-04-09T06:36:48.000Z</time>
</trkpt>
<trkpt lat="30.8303430" lon="34.9547140">
<ele>249.500015</ele>
<time>2021-04-09T06:37:02.000Z</time>
</trkpt>
<trkpt lat="30.8303740" lon="34.9547110">
<ele>249.800003</ele>
<time>2021-04-09T06:37:04.000Z</time>
</trkpt>
<trkpt lat="30.8305840" lon="34.9548390">
<ele>251.400009</ele>
<time>2021-04-09T06:37:19.000Z</time>
</trkpt>
<trkpt lat="30.8307900" lon="34.9549300">
<ele>251.500000</ele>
<time>2021-04-09T06:37:28.000Z</time>
</trkpt>
<trkpt lat="30.8308810" lon="34.9549170">
<ele>250.800003</ele>
<time>2021-04-09T06:37:32.000Z</time>
</trkpt>
<trkpt lat="30.8311120" lon="34.9548050">
<ele>248.300003</ele>
<time>2021-04-09T06:37:37.000Z</time>
</trkpt>
<trkpt lat="30.8313020" lon="34.9547010">
<ele>246.699997</ele>
<time>2021-04-09T06:37:41.000Z</time>
</trkpt>
<trkpt lat="30.8315060" lon="34.9545460">
<ele>246.099991</ele>
<time>2021-04-09T06:37:46.000Z</time>
</trkpt>
<trkpt lat="30.8316600" lon="34.9545010">
<ele>246.300003</ele>
<time>2021-04-09T06:37:50.000Z</time>
</trkpt>
<trkpt lat="30.8317190" lon="34.9545210">
<ele>246.600006</ele>
<time>2021-04-09T06:37:52.000Z</time>
</trkpt>
<trkpt lat="30.8318200" lon="34.9546050">
<ele>247.299988</ele>
<time>2021-04-09T06:37:56.000Z</time>
</trkpt>
<trkpt lat="30.8320950" lon="34.9546720">
<ele>247.400009</ele>
<time>2021-04-09T06:38:07.000Z</time>
</trkpt>
<trkpt lat="30.8322520" lon="34.9547330">
<ele>247.700012</ele>
<time>2021-04-09T06:38:11.000Z</time>
</trkpt>
<trkpt lat="30.8324250" lon="34.9548370">
<ele>248.399994</ele>
<time>2021-04-09T06:38:16.000Z</time>
</trkpt>
<trkpt lat="30.8325310" lon="34.9548620">
<ele>248.600006</ele>
<time>2021-04-09T06:38:19.000Z</time>
</trkpt>
<trkpt lat="30.8326710" lon="34.9548300">
<ele>248.799988</ele>
<time>2021-04-09T06:38:23.000Z</time>
</trkpt>
<trkpt lat="30.8327730" lon="34.9547890">
<ele>249.099991</ele>
<time>2021-04-09T06:38:27.000Z</time>
</trkpt>
<trkpt lat="30.8328680" lon="34.9548050">
<ele>249.200012</ele>
<time>2021-04-09T06:38:30.000Z</time>
</trkpt>
<trkpt lat="30.8329240" lon="34.9548480">
<ele>249.300003</ele>
<time>2021-04-09T06:38:32.000Z</time>
</trkpt>
<trkpt lat="30.8330420" lon="34.9550210">
<ele>249.500015</ele>
<time>2021-04-09T06:38:37.000Z</time>
</trkpt>
<trkpt lat="30.8331450" lon="34.9552830">
<ele>250.100006</ele>
<time>2021-04-09T06:38:43.000Z</time>
</trkpt>
<trkpt lat="30.8332310" lon="34.9556950">
<ele>251.299988</ele>
<time>2021-04-09T06:38:52.000Z</time>
</trkpt>
<trkpt lat="30.8332300" lon="34.9561440">
<ele>252.000000</ele>
<time>2021-04-09T06:39:01.000Z</time>
</trkpt>
<trkpt lat="30.8332580" lon="34.9562730">
<ele>252.199997</ele>
<time>2021-04-09T06:39:04.000Z</time>
</trkpt>
<trkpt lat="30.8331780" lon="34.9568410">
<ele>253.200012</ele>
<time>2021-04-09T06:39:15.000Z</time>
</trkpt>
<trkpt lat="30.8331660" lon="34.9570390">
<ele>253.300003</ele>
<time>2021-04-09T06:39:19.000Z</time>
</trkpt>
<trkpt lat="30.8331940" lon="34.9573670">
<ele>253.500000</ele>
<time>2021-04-09T06:39:26.000Z</time>
</trkpt>
<trkpt lat="30.8332940" lon="34.9575680">
<ele>253.800003</ele>
<time>2021-04-09T06:39:32.000Z</time>
</trkpt>
<trkpt lat="30.8333340" lon="34.9576980">
<ele>254.000000</ele>
<time>2021-04-09T06:39:36.000Z</time>
</trkpt>
<trkpt lat="30.8333420" lon="34.9579150">
<ele>254.599991</ele>
<time>2021-04-09T06:39:43.000Z</time>
</trkpt>
<trkpt lat="30.8334760" lon="34.9580570">
<ele>255.199997</ele>
<time>2021-04-09T06:39:49.000Z</time>
</trkpt>
<trkpt lat="30.8335570" lon="34.9580690">
<ele>255.500000</ele>
<time>2021-04-09T06:39:52.000Z</time>
</trkpt>
<trkpt lat="30.8336120" lon="34.9581810">
<ele>255.699997</ele>
<time>2021-04-09T06:39:55.000Z</time>
</trkpt>
<trkpt lat="30.8336690" lon="34.9584630">
<ele>256.299988</ele>
<time>2021-04-09T06:40:05.000Z</time>
</trkpt>
<trkpt lat="30.8337240" lon="34.9585440">
<ele>256.399994</ele>
<time>2021-04-09T06:41:13.000Z</time>
</trkpt>
<trkpt lat="30.8337060" lon="34.9585450">
<ele>256.399994</ele>
<time>2021-04-09T06:41:40.000Z</time>
</trkpt>
<trkpt lat="30.8337230" lon="34.9585570">
<ele>256.399994</ele>
<time>2021-04-09T06:43:05.000Z</time>
</trkpt>
<trkpt lat="30.8337130" lon="34.9585570">
<ele>256.299988</ele>
<time>2021-04-09T06:43:17.000Z</time>
</trkpt>
<trkpt lat="30.8337200" lon="34.9585700">
<ele>256.299988</ele>
<time>2021-04-09T06:44:13.000Z</time>
</trkpt>
<trkpt lat="30.8337610" lon="34.9585790">
<ele>256.100006</ele>
<time>2021-04-09T06:47:32.000Z</time>
</trkpt>
<trkpt lat="30.8337290" lon="34.9585510">
<ele>255.900009</ele>
<time>2021-04-09T06:55:27.000Z</time>
</trkpt>
<trkpt lat="30.8337690" lon="34.9585720">
<ele>255.699997</ele>
<time>2021-04-09T07:02:23.000Z</time>
</trkpt>
<trkpt lat="30.8336710" lon="34.9584700">
<ele>255.500000</ele>
<time>2021-04-09T07:03:54.000Z</time>
</trkpt>
<trkpt lat="30.8336120" lon="34.9584830">
<ele>255.399994</ele>
<time>2021-04-09T07:04:01.000Z</time>
</trkpt>
<trkpt lat="30.8335590" lon="34.9585340">
<ele>255.199997</ele>
<time>2021-04-09T07:05:57.000Z</time>
</trkpt>
<trkpt lat="30.8335990" lon="34.9585580">
<ele>255.100006</ele>
<time>2021-04-09T07:11:03.000Z</time>
</trkpt>
<trkpt lat="30.8335940" lon="34.9585790">
<ele>255.300003</ele>
<time>2021-04-09T07:16:18.000Z</time>
</trkpt>
<trkpt lat="30.8336420" lon="34.9585160">
<ele>256.399994</ele>
<time>2021-04-09T07:19:40.000Z</time>
</trkpt>
<trkpt lat="30.8336650" lon="34.9582960">
<ele>256.200012</ele>
<time>2021-04-09T07:20:16.000Z</time>
</trkpt>
<trkpt lat="30.8336260" lon="34.9581550">
<ele>255.900009</ele>
<time>2021-04-09T07:20:22.000Z</time>
</trkpt>
<trkpt lat="30.8335120" lon="34.9580800">
<ele>255.600006</ele>
<time>2021-04-09T07:20:28.000Z</time>
</trkpt>
<trkpt lat="30.8334180" lon="34.9579750">
<ele>255.199997</ele>
<time>2021-04-09T07:20:33.000Z</time>
</trkpt>
<trkpt lat="30.8333820" lon="34.9578890">
<ele>254.899994</ele>
<time>2021-04-09T07:20:35.000Z</time>
</trkpt>
<trkpt lat="30.8333370" lon="34.9575840">
<ele>254.000000</ele>
<time>2021-04-09T07:20:44.000Z</time>
</trkpt>
<trkpt lat="30.8332380" lon="34.9573700">
<ele>253.600006</ele>
<time>2021-04-09T07:20:50.000Z</time>
</trkpt>
<trkpt lat="30.8332130" lon="34.9571940">
<ele>253.399994</ele>
<time>2021-04-09T07:20:54.000Z</time>
</trkpt>
<trkpt lat="30.8332140" lon="34.9570010">
<ele>253.300003</ele>
<time>2021-04-09T07:20:58.000Z</time>
</trkpt>
<trkpt lat="30.8332760" lon="34.9566790">
<ele>253.200012</ele>
<time>2021-04-09T07:21:07.000Z</time>
</trkpt>
<trkpt lat="30.8333460" lon="34.9565820">
<ele>253.600006</ele>
<time>2021-04-09T07:21:11.000Z</time>
</trkpt>
<trkpt lat="30.8333940" lon="34.9565610">
<ele>253.800003</ele>
<time>2021-04-09T07:21:16.000Z</time>
</trkpt>
<trkpt lat="30.8333620" lon="34.9565850">
<ele>253.899994</ele>
<time>2021-04-09T07:21:18.000Z</time>
</trkpt>
<trkpt lat="30.8334110" lon="34.9564700">
<ele>254.299988</ele>
<time>2021-04-09T07:21:41.000Z</time>
</trkpt>
<trkpt lat="30.8335790" lon="34.9562550">
<ele>255.199997</ele>
<time>2021-04-09T07:22:19.000Z</time>
</trkpt>
<trkpt lat="30.8336200" lon="34.9561040">
<ele>255.699997</ele>
<time>2021-04-09T07:22:35.000Z</time>
</trkpt>
<trkpt lat="30.8337170" lon="34.9560890">
<ele>256.100006</ele>
<time>2021-04-09T07:22:49.000Z</time>
</trkpt>
<trkpt lat="30.8337230" lon="34.9561310">
<ele>256.200012</ele>
<time>2021-04-09T07:22:53.000Z</time>
</trkpt>
<trkpt lat="30.8337060" lon="34.9562120">
<ele>256.399994</ele>
<time>2021-04-09T07:23:01.000Z</time>
</trkpt>
<trkpt lat="30.8337170" lon="34.9562870">
<ele>256.699982</ele>
<time>2021-04-09T07:23:11.000Z</time>
</trkpt>
<trkpt lat="30.8337070" lon="34.9563780">
<ele>257.000000</ele>
<time>2021-04-09T07:23:27.000Z</time>
</trkpt>
<trkpt lat="30.8336910" lon="34.9564200">
<ele>257.100006</ele>
<time>2021-04-09T07:23:34.000Z</time>
</trkpt>
<trkpt lat="30.8336930" lon="34.9564700">
<ele>257.200012</ele>
<time>2021-04-09T07:23:40.000Z</time>
</trkpt>
<trkpt lat="30.8336140" lon="34.9567390">
<ele>258.100006</ele>
<time>2021-04-09T07:24:05.000Z</time>
</trkpt>
<trkpt lat="30.8335490" lon="34.9567840">
<ele>258.399994</ele>
<time>2021-04-09T07:24:13.000Z</time>
</trkpt>
<trkpt lat="30.8335440" lon="34.9568050">
<ele>258.399994</ele>
<time>2021-04-09T07:24:15.000Z</time>
</trkpt>
<trkpt lat="30.8335530" lon="34.9568230">
<ele>258.500000</ele>
<time>2021-04-09T07:24:19.000Z</time>
</trkpt>
<trkpt lat="30.8335260" lon="34.9569630">
<ele>258.899994</ele>
<time>2021-04-09T07:24:29.000Z</time>
</trkpt>
<trkpt lat="30.8335680" lon="34.9571000">
<ele>259.399994</ele>
<time>2021-04-09T07:24:42.000Z</time>
</trkpt>
<trkpt lat="30.8335890" lon="34.9572610">
<ele>259.799988</ele>
<time>2021-04-09T07:24:52.000Z</time>
</trkpt>
<trkpt lat="30.8337870" lon="34.9576000">
<ele>261.100006</ele>
<time>2021-04-09T07:25:10.000Z</time>
</trkpt>
<trkpt lat="30.8338530" lon="34.9578070">
<ele>261.700012</ele>
<time>2021-04-09T07:25:16.000Z</time>
</trkpt>
<trkpt lat="30.8339040" lon="34.9578530">
<ele>262.000000</ele>
<time>2021-04-09T07:25:18.000Z</time>
</trkpt>
<trkpt lat="30.8339410" lon="34.9578560">
<ele>262.100006</ele>
<time>2021-04-09T07:25:20.000Z</time>
</trkpt>
<trkpt lat="30.8342010" lon="34.9581540">
<ele>263.299988</ele>
<time>2021-04-09T07:25:32.000Z</time>
</trkpt>
<trkpt lat="30.8342640" lon="34.9582110">
<ele>263.600006</ele>
<time>2021-04-09T07:25:34.000Z</time>
</trkpt>
<trkpt lat="30.8344910" lon="34.9583430">
<ele>264.000000</ele>
<time>2021-04-09T07:25:42.000Z</time>
</trkpt>
<trkpt lat="30.8346320" lon="34.9584660">
<ele>264.100006</ele>
<time>2021-04-09T07:25:52.000Z</time>
</trkpt>
<trkpt lat="30.8346650" lon="34.9585230">
<ele>264.200012</ele>
<time>2021-04-09T07:25:55.000Z</time>
</trkpt>
<trkpt lat="30.8346590" lon="34.9587220">
<ele>264.200012</ele>
<time>2021-04-09T07:26:04.000Z</time>
</trkpt>
<trkpt lat="30.8346080" lon="34.9588550">
<ele>264.000000</ele>
<time>2021-04-09T07:26:10.000Z</time>
</trkpt>
<trkpt lat="30.8346150" lon="34.9588860">
<ele>264.000000</ele>
<time>2021-04-09T07:26:11.000Z</time>
</trkpt>
<trkpt lat="30.8346940" lon="34.9589520">
<ele>264.000000</ele>
<time>2021-04-09T07:26:17.000Z</time>
</trkpt>
<trkpt lat="30.8347050" lon="34.9591490">
<ele>264.000000</ele>
<time>2021-04-09T07:26:26.000Z</time>
</trkpt>
<trkpt lat="30.8348880" lon="34.9594490">
<ele>264.299988</ele>
<time>2021-04-09T07:26:40.000Z</time>
</trkpt>
<trkpt lat="30.8351390" lon="34.9597490">
<ele>264.600006</ele>
<time>2021-04-09T07:26:52.000Z</time>
</trkpt>
<trkpt lat="30.8352010" lon="34.9598770">
<ele>264.800018</ele>
<time>2021-04-09T07:26:56.000Z</time>
</trkpt>
<trkpt lat="30.8357970" lon="34.9605570">
<ele>267.100006</ele>
<time>2021-04-09T07:27:20.000Z</time>
</trkpt>
<trkpt lat="30.8360210" lon="34.9610220">
<ele>268.399994</ele>
<time>2021-04-09T07:27:34.000Z</time>
</trkpt>
<trkpt lat="30.8360700" lon="34.9611690">
<ele>268.799988</ele>
<time>2021-04-09T07:27:40.000Z</time>
</trkpt>
<trkpt lat="30.8360560" lon="34.9611210">
<ele>268.899994</ele>
<time>2021-04-09T07:27:43.000Z</time>
</trkpt>
<trkpt lat="30.8360890" lon="34.9611490">
<ele>269.000000</ele>
<time>2021-04-09T07:27:47.000Z</time>
</trkpt>
<trkpt lat="30.8361200" lon="34.9613070">
<ele>269.500000</ele>
<time>2021-04-09T07:27:52.000Z</time>
</trkpt>
<trkpt lat="30.8361790" lon="34.9614350">
<ele>269.700012</ele>
<time>2021-04-09T07:27:56.000Z</time>
</trkpt>
<trkpt lat="30.8362530" lon="34.9616780">
<ele>269.700012</ele>
<time>2021-04-09T07:28:02.000Z</time>
</trkpt>
<trkpt lat="30.8362550" lon="34.9620900">
<ele>269.799988</ele>
<time>2021-04-09T07:28:15.000Z</time>
</trkpt>
<trkpt lat="30.8362530" lon="34.9623140">
<ele>270.000000</ele>
<time>2021-04-09T07:28:20.000Z</time>
</trkpt>
<trkpt lat="30.8362340" lon="34.9624550">
<ele>270.300018</ele>
<time>2021-04-09T07:28:24.000Z</time>
</trkpt>
<trkpt lat="30.8362430" lon="34.9625670">
<ele>270.500000</ele>
<time>2021-04-09T07:28:28.000Z</time>
</trkpt>
<trkpt lat="30.8363460" lon="34.9630890">
<ele>270.899994</ele>
<time>2021-04-09T07:28:41.000Z</time>
</trkpt>
<trkpt lat="30.8363290" lon="34.9633550">
<ele>271.399994</ele>
<time>2021-04-09T07:28:48.000Z</time>
</trkpt>
<trkpt lat="30.8363630" lon="34.9635250">
<ele>271.899994</ele>
<time>2021-04-09T07:28:52.000Z</time>
</trkpt>
<trkpt lat="30.8363510" lon="34.9637460">
<ele>272.399994</ele>
<time>2021-04-09T07:28:59.000Z</time>
</trkpt>
<trkpt lat="30.8363640" lon="34.9638840">
<ele>272.600006</ele>
<time>2021-04-09T07:29:03.000Z</time>
</trkpt>
<trkpt lat="30.8363740" lon="34.9639870">
<ele>272.600006</ele>
<time>2021-04-09T07:29:06.000Z</time>
</trkpt>
<trkpt lat="30.8363580" lon="34.9640750">
<ele>272.600006</ele>
<time>2021-04-09T07:29:08.000Z</time>
</trkpt>
<trkpt lat="30.8363770" lon="34.9642350">
<ele>272.799988</ele>
<time>2021-04-09T07:29:13.000Z</time>
</trkpt>
<trkpt lat="30.8363690" lon="34.9643300">
<ele>273.000000</ele>
<time>2021-04-09T07:29:17.000Z</time>
</trkpt>
<trkpt lat="30.8363910" lon="34.9644370">
<ele>273.199982</ele>
<time>2021-04-09T07:29:21.000Z</time>
</trkpt>
<trkpt lat="30.8363900" lon="34.9646830">
<ele>273.700012</ele>
<time>2021-04-09T07:29:31.000Z</time>
</trkpt>
<trkpt lat="30.8364830" lon="34.9649120">
<ele>274.100006</ele>
<time>2021-04-09T07:29:37.000Z</time>
</trkpt>
<trkpt lat="30.8365100" lon="34.9650410">
<ele>274.399994</ele>
<time>2021-04-09T07:29:41.000Z</time>
</trkpt>
<trkpt lat="30.8365100" lon="34.9652910">
<ele>275.000000</ele>
<time>2021-04-09T07:29:51.000Z</time>
</trkpt>
<trkpt lat="30.8365610" lon="34.9654060">
<ele>275.200012</ele>
<time>2021-04-09T07:29:57.000Z</time>
</trkpt>
<trkpt lat="30.8366430" lon="34.9654560">
<ele>275.299988</ele>
<time>2021-04-09T07:30:03.000Z</time>
</trkpt>
<trkpt lat="30.8367450" lon="34.9655660">
<ele>275.700012</ele>
<time>2021-04-09T07:30:11.000Z</time>
</trkpt>
<trkpt lat="30.8368000" lon="34.9655920">
<ele>276.000000</ele>
<time>2021-04-09T07:30:14.000Z</time>
</trkpt>
<trkpt lat="30.8367760" lon="34.9655430">
<ele>276.799988</ele>
<time>2021-04-09T07:30:33.000Z</time>
</trkpt>
<trkpt lat="30.8368510" lon="34.9654910">
<ele>276.899994</ele>
<time>2021-04-09T07:30:46.000Z</time>
</trkpt>
<trkpt lat="30.8372080" lon="34.9657060">
<ele>277.300018</ele>
<time>2021-04-09T07:31:20.000Z</time>
</trkpt>
<trkpt lat="30.8373660" lon="34.9657550">
<ele>277.899994</ele>
<time>2021-04-09T07:31:24.000Z</time>
</trkpt>
<trkpt lat="30.8375780" lon="34.9657930">
<ele>278.100006</ele>
<time>2021-04-09T07:31:29.000Z</time>
</trkpt>
<trkpt lat="30.8378880" lon="34.9657660">
<ele>278.299988</ele>
<time>2021-04-09T07:31:36.000Z</time>
</trkpt>
<trkpt lat="30.8382070" lon="34.9656730">
<ele>278.200012</ele>
<time>2021-04-09T07:31:44.000Z</time>
</trkpt>
<trkpt lat="30.8383360" lon="34.9656090">
<ele>278.200012</ele>
<time>2021-04-09T07:31:48.000Z</time>
</trkpt>
<trkpt lat="30.8384260" lon="34.9655860">
<ele>278.299988</ele>
<time>2021-04-09T07:31:50.000Z</time>
</trkpt>
<trkpt lat="30.8386390" lon="34.9654430">
<ele>278.600006</ele>
<time>2021-04-09T07:31:58.000Z</time>
</trkpt>
<trkpt lat="30.8387850" lon="34.9653160">
<ele>279.000000</ele>
<time>2021-04-09T07:32:04.000Z</time>
</trkpt>
<trkpt lat="30.8388930" lon="34.9651780">
<ele>279.200012</ele>
<time>2021-04-09T07:32:12.000Z</time>
</trkpt>
<trkpt lat="30.8389190" lon="34.9651040">
<ele>279.299988</ele>
<time>2021-04-09T07:32:16.000Z</time>
</trkpt>
<trkpt lat="30.8389660" lon="34.9651050">
<ele>279.299988</ele>
<time>2021-04-09T07:32:20.000Z</time>
</trkpt>
<trkpt lat="30.8390860" lon="34.9649790">
<ele>279.700012</ele>
<time>2021-04-09T07:32:35.000Z</time>
</trkpt>
<trkpt lat="30.8390850" lon="34.9649690">
<ele>279.700012</ele>
<time>2021-04-09T07:32:38.000Z</time>
</trkpt>
<trkpt lat="30.8391430" lon="34.9648940">
<ele>279.899994</ele>
<time>2021-04-09T07:32:55.000Z</time>
</trkpt>
<trkpt lat="30.8392710" lon="34.9646320">
<ele>280.500000</ele>
<time>2021-04-09T07:33:05.000Z</time>
</trkpt>
<trkpt lat="30.8397480" lon="34.9640240">
<ele>281.899994</ele>
<time>2021-04-09T07:33:40.000Z</time>
</trkpt>
<trkpt lat="30.8397710" lon="34.9639880">
<ele>281.899994</ele>
<time>2021-04-09T07:33:42.000Z</time>
</trkpt>
<trkpt lat="30.8397660" lon="34.9639310">
<ele>281.899994</ele>
<time>2021-04-09T07:33:45.000Z</time>
</trkpt>
<trkpt lat="30.8397320" lon="34.9639740">
<ele>282.000000</ele>
<time>2021-04-09T07:33:50.000Z</time>
</trkpt>
<trkpt lat="30.8399570" lon="34.9634960">
<ele>283.399994</ele>
<time>2021-04-09T07:34:23.000Z</time>
</trkpt>
<trkpt lat="30.8400570" lon="34.9633820">
<ele>283.600006</ele>
<time>2021-04-09T07:34:30.000Z</time>
</trkpt>
<trkpt lat="30.8401260" lon="34.9633630">
<ele>283.799988</ele>
<time>2021-04-09T07:34:48.000Z</time>
</trkpt>
<trkpt lat="30.8402590" lon="34.9631340">
<ele>284.100006</ele>
<time>2021-04-09T07:35:11.000Z</time>
</trkpt>
<trkpt lat="30.8404730" lon="34.9629440">
<ele>284.399994</ele>
<time>2021-04-09T07:35:21.000Z</time>
</trkpt>
<trkpt lat="30.8406090" lon="34.9628590">
<ele>284.600006</ele>
<time>2021-04-09T07:35:26.000Z</time>
</trkpt>
<trkpt lat="30.8408970" lon="34.9627090">
<ele>284.899994</ele>
<time>2021-04-09T07:35:37.000Z</time>
</trkpt>
<trkpt lat="30.8409680" lon="34.9626940">
<ele>284.899994</ele>
<time>2021-04-09T07:35:40.000Z</time>
</trkpt>
<trkpt lat="30.8410020" lon="34.9627140">
<ele>285.000000</ele>
<time>2021-04-09T07:35:42.000Z</time>
</trkpt>
<trkpt lat="30.8410450" lon="34.9627890">
<ele>285.000000</ele>
<time>2021-04-09T07:35:45.000Z</time>
</trkpt>
<trkpt lat="30.8410480" lon="34.9628350">
<ele>285.100006</ele>
<time>2021-04-09T07:35:46.000Z</time>
</trkpt>
<trkpt lat="30.8411200" lon="34.9629060">
<ele>285.200012</ele>
<time>2021-04-09T07:35:51.000Z</time>
</trkpt>
<trkpt lat="30.8411850" lon="34.9628250">
<ele>285.299988</ele>
<time>2021-04-09T07:36:01.000Z</time>
</trkpt>
<trkpt lat="30.8414140" lon="34.9627430">
<ele>285.500000</ele>
<time>2021-04-09T07:36:10.000Z</time>
</trkpt>
<trkpt lat="30.8415570" lon="34.9627250">
<ele>285.600006</ele>
<time>2021-04-09T07:36:14.000Z</time>
</trkpt>
<trkpt lat="30.8419010" lon="34.9627310">
<ele>284.399994</ele>
<time>2021-04-09T07:36:27.000Z</time>
</trkpt>
<trkpt lat="30.8420970" lon="34.9626950">
<ele>284.399994</ele>
<time>2021-04-09T07:36:34.000Z</time>
</trkpt>
<trkpt lat="30.8423900" lon="34.9625040">
<ele>284.500000</ele>
<time>2021-04-09T07:36:44.000Z</time>
</trkpt>
<trkpt lat="30.8425970" lon="34.9624810">
<ele>284.600006</ele>
<time>2021-04-09T07:36:50.000Z</time>
</trkpt>
<trkpt lat="30.8428890" lon="34.9625440">
<ele>284.700012</ele>
<time>2021-04-09T07:36:59.000Z</time>
</trkpt>
<trkpt lat="30.8430250" lon="34.9626740">
<ele>284.600006</ele>
<time>2021-04-09T07:37:05.000Z</time>
</trkpt>
<trkpt lat="30.8431100" lon="34.9628480">
<ele>284.500000</ele>
<time>2021-04-09T07:37:12.000Z</time>
</trkpt>
<trkpt lat="30.8431260" lon="34.9629380">
<ele>284.399994</ele>
<time>2021-04-09T07:37:15.000Z</time>
</trkpt>
<trkpt lat="30.8431080" lon="34.9632210">
<ele>284.100006</ele>
<time>2021-04-09T07:37:25.000Z</time>
</trkpt>
<trkpt lat="30.8430220" lon="34.9634340">
<ele>283.500000</ele>
<time>2021-04-09T07:37:34.000Z</time>
</trkpt>
<trkpt lat="30.8428990" lon="34.9639090">
<ele>283.399994</ele>
<time>2021-04-09T07:37:50.000Z</time>
</trkpt>
<trkpt lat="30.8426970" lon="34.9642440">
<ele>284.000000</ele>
<time>2021-04-09T07:38:05.000Z</time>
</trkpt>
<trkpt lat="30.8426700" lon="34.9643120">
<ele>284.100006</ele>
<time>2021-04-09T07:38:10.000Z</time>
</trkpt>
<trkpt lat="30.8426090" lon="34.9643550">
<ele>284.199982</ele>
<time>2021-04-09T07:38:14.000Z</time>
</trkpt>
<trkpt lat="30.8424600" lon="34.9645310">
<ele>284.500000</ele>
<time>2021-04-09T07:38:25.000Z</time>
</trkpt>
<trkpt lat="30.8424770" lon="34.9645440">
<ele>284.600006</ele>
<time>2021-04-09T07:38:30.000Z</time>
</trkpt>
<trkpt lat="30.8424160" lon="34.9646450">
<ele>284.899994</ele>
<time>2021-04-09T07:38:48.000Z</time>
</trkpt>
<trkpt lat="30.8421650" lon="34.9649780">
<ele>285.500000</ele>
<time>2021-04-09T07:39:07.000Z</time>
</trkpt>
<trkpt lat="30.8421260" lon="34.9650940">
<ele>285.600006</ele>
<time>2021-04-09T07:39:14.000Z</time>
</trkpt>
<trkpt lat="30.8418790" lon="34.9654850">
<ele>286.299988</ele>
<time>2021-04-09T07:39:28.000Z</time>
</trkpt>
<trkpt lat="30.8418230" lon="34.9656640">
<ele>286.600006</ele>
<time>2021-04-09T07:39:32.000Z</time>
</trkpt>
<trkpt lat="30.8417410" lon="34.9658340">
<ele>286.799988</ele>
<time>2021-04-09T07:39:36.000Z</time>
</trkpt>
<trkpt lat="30.8417240" lon="34.9659220">
<ele>287.000000</ele>
<time>2021-04-09T07:39:39.000Z</time>
</trkpt>
<trkpt lat="30.8417410" lon="34.9660770">
<ele>287.199982</ele>
<time>2021-04-09T07:39:42.000Z</time>
</trkpt>
<trkpt lat="30.8417410" lon="34.9662940">
<ele>287.500000</ele>
<time>2021-04-09T07:39:48.000Z</time>
</trkpt>
<trkpt lat="30.8417300" lon="34.9663860">
<ele>287.600006</ele>
<time>2021-04-09T07:39:50.000Z</time>
</trkpt>
<trkpt lat="30.8416270" lon="34.9666560">
<ele>288.000000</ele>
<time>2021-04-09T07:39:57.000Z</time>
</trkpt>
<trkpt lat="30.8415920" lon="34.9668920">
<ele>288.299988</ele>
<time>2021-04-09T07:40:05.000Z</time>
</trkpt>
<trkpt lat="30.8417430" lon="34.9675780">
<ele>289.299988</ele>
<time>2021-04-09T07:40:28.000Z</time>
</trkpt>
<trkpt lat="30.8417500" lon="34.9679050">
<ele>289.800018</ele>
<time>2021-04-09T07:40:37.000Z</time>
</trkpt>
<trkpt lat="30.8417390" lon="34.9681650">
<ele>290.100006</ele>
<time>2021-04-09T07:40:44.000Z</time>
</trkpt>
<trkpt lat="30.8417480" lon="34.9682320">
<ele>290.200012</ele>
<time>2021-04-09T07:40:46.000Z</time>
</trkpt>
<trkpt lat="30.8419880" lon="34.9685180">
<ele>290.799988</ele>
<time>2021-04-09T07:40:55.000Z</time>
</trkpt>
<trkpt lat="30.8420810" lon="34.9686720">
<ele>291.000000</ele>
<time>2021-04-09T07:40:59.000Z</time>
</trkpt>
<trkpt lat="30.8422200" lon="34.9689860">
<ele>291.500000</ele>
<time>2021-04-09T07:41:05.000Z</time>
</trkpt>
<trkpt lat="30.8422880" lon="34.9692170">
<ele>291.799988</ele>
<time>2021-04-09T07:41:09.000Z</time>
</trkpt>
<trkpt lat="30.8423430" lon="34.9693600">
<ele>292.000000</ele>
<time>2021-04-09T07:41:12.000Z</time>
</trkpt>
<trkpt lat="30.8425160" lon="34.9696800">
<ele>292.600006</ele>
<time>2021-04-09T07:41:20.000Z</time>
</trkpt>
<trkpt lat="30.8425310" lon="34.9697300">
<ele>292.600006</ele>
<time>2021-04-09T07:41:21.000Z</time>
</trkpt>
<trkpt lat="30.8425330" lon="34.9699220">
<ele>292.899994</ele>
<time>2021-04-09T07:41:25.000Z</time>
</trkpt>
<trkpt lat="30.8426050" lon="34.9702780">
<ele>293.399994</ele>
<time>2021-04-09T07:41:33.000Z</time>
</trkpt>
<trkpt lat="30.8426420" lon="34.9703430">
<ele>293.500000</ele>
<time>2021-04-09T07:41:35.000Z</time>
</trkpt>
<trkpt lat="30.8426910" lon="34.9703690">
<ele>293.600006</ele>
<time>2021-04-09T07:41:37.000Z</time>
</trkpt>
<trkpt lat="30.8427620" lon="34.9703850">
<ele>293.700012</ele>
<time>2021-04-09T07:41:39.000Z</time>
</trkpt>
<trkpt lat="30.8428280" lon="34.9703670">
<ele>293.799988</ele>
<time>2021-04-09T07:41:41.000Z</time>
</trkpt>
<trkpt lat="30.8428560" lon="34.9703860">
<ele>293.899994</ele>
<time>2021-04-09T07:41:43.000Z</time>
</trkpt>
<trkpt lat="30.8429490" lon="34.9705740">
<ele>294.700012</ele>
<time>2021-04-09T07:41:51.000Z</time>
</trkpt>
<trkpt lat="30.8429620" lon="34.9706510">
<ele>295.200012</ele>
<time>2021-04-09T07:41:54.000Z</time>
</trkpt>
<trkpt lat="30.8430120" lon="34.9708150">
<ele>296.600006</ele>
<time>2021-04-09T07:42:01.000Z</time>
</trkpt>
<trkpt lat="30.8430400" lon="34.9708540">
<ele>297.100006</ele>
<time>2021-04-09T07:42:04.000Z</time>
</trkpt>
<trkpt lat="30.8430770" lon="34.9710370">
<ele>298.600006</ele>
<time>2021-04-09T07:42:12.000Z</time>
</trkpt>
<trkpt lat="30.8432030" lon="34.9712990">
<ele>299.699982</ele>
<time>2021-04-09T07:42:23.000Z</time>
</trkpt>
<trkpt lat="30.8432900" lon="34.9713790">
<ele>299.699982</ele>
<time>2021-04-09T07:42:27.000Z</time>
</trkpt>
<trkpt lat="30.8433780" lon="34.9714150">
<ele>299.399994</ele>
<time>2021-04-09T07:42:29.000Z</time>
</trkpt>
<trkpt lat="30.8436620" lon="34.9714680">
<ele>298.199982</ele>
<time>2021-04-09T07:42:36.000Z</time>
</trkpt>
<trkpt lat="30.8439990" lon="34.9716480">
<ele>297.500000</ele>
<time>2021-04-09T07:42:46.000Z</time>
</trkpt>
<trkpt lat="30.8441170" lon="34.9717400">
<ele>297.600006</ele>
<time>2021-04-09T07:42:52.000Z</time>
</trkpt>
<trkpt lat="30.8441920" lon="34.9718630">
<ele>297.600006</ele>
<time>2021-04-09T07:42:59.000Z</time>
</trkpt>
<trkpt lat="30.8445190" lon="34.9720840">
<ele>297.100006</ele>
<time>2021-04-09T07:43:11.000Z</time>
</trkpt>
<trkpt lat="30.8447880" lon="34.9722340">
<ele>297.899994</ele>
<time>2021-04-09T07:43:19.000Z</time>
</trkpt>
<trkpt lat="30.8448930" lon="34.9724330">
<ele>298.000000</ele>
<time>2021-04-09T07:43:26.000Z</time>
</trkpt>
<trkpt lat="30.8450800" lon="34.9725580">
<ele>297.700012</ele>
<time>2021-04-09T07:43:32.000Z</time>
</trkpt>
<trkpt lat="30.8454730" lon="34.9726380">
<ele>297.500000</ele>
<time>2021-04-09T07:43:44.000Z</time>
</trkpt>
<trkpt lat="30.8455590" lon="34.9726680">
<ele>297.799988</ele>
<time>2021-04-09T07:43:46.000Z</time>
</trkpt>
<trkpt lat="30.8456890" lon="34.9727860">
<ele>298.100006</ele>
<time>2021-04-09T07:43:51.000Z</time>
</trkpt>
<trkpt lat="30.8457640" lon="34.9729250">
<ele>298.399994</ele>
<time>2021-04-09T07:43:56.000Z</time>
</trkpt>
<trkpt lat="30.8458990" lon="34.9730580">
<ele>298.799988</ele>
<time>2021-04-09T07:44:04.000Z</time>
</trkpt>
<trkpt lat="30.8461070" lon="34.9730720">
<ele>299.200012</ele>
<time>2021-04-09T07:44:11.000Z</time>
</trkpt>
<trkpt lat="30.8462490" lon="34.9731010">
<ele>299.399994</ele>
<time>2021-04-09T07:44:17.000Z</time>
</trkpt>
<trkpt lat="30.8463210" lon="34.9730780">
<ele>299.500000</ele>
<time>2021-04-09T07:44:22.000Z</time>
</trkpt>
<trkpt lat="30.8463530" lon="34.9730930">
<ele>299.500000</ele>
<time>2021-04-09T07:44:24.000Z</time>
</trkpt>
<trkpt lat="30.8463730" lon="34.9730370">
<ele>299.600006</ele>
<time>2021-04-09T07:44:32.000Z</time>
</trkpt>
<trkpt lat="30.8463520" lon="34.9729950">
<ele>299.699982</ele>
<time>2021-04-09T07:44:42.000Z</time>
</trkpt>
<trkpt lat="30.8464620" lon="34.9728160">
<ele>300.000000</ele>
<time>2021-04-09T07:45:04.000Z</time>
</trkpt>
<trkpt lat="30.8465360" lon="34.9727650">
<ele>300.100006</ele>
<time>2021-04-09T07:45:11.000Z</time>
</trkpt>
<trkpt lat="30.8468030" lon="34.9728010">
<ele>300.600006</ele>
<time>2021-04-09T07:45:21.000Z</time>
</trkpt>
<trkpt lat="30.8469690" lon="34.9728570">
<ele>300.799988</ele>
<time>2021-04-09T07:45:27.000Z</time>
</trkpt>
<trkpt lat="30.8470890" lon="34.9728770">
<ele>301.000000</ele>
<time>2021-04-09T07:45:31.000Z</time>
</trkpt>
<trkpt lat="30.8472020" lon="34.9728660">
<ele>301.199982</ele>
<time>2021-04-09T07:45:35.000Z</time>
</trkpt>
<trkpt lat="30.8473600" lon="34.9728200">
<ele>301.399994</ele>
<time>2021-04-09T07:45:40.000Z</time>
</trkpt>
<trkpt lat="30.8479340" lon="34.9726990">
<ele>302.199982</ele>
<time>2021-04-09T07:45:59.000Z</time>
</trkpt>
<trkpt lat="30.8480650" lon="34.9727300">
<ele>302.399994</ele>
<time>2021-04-09T07:46:03.000Z</time>
</trkpt>
<trkpt lat="30.8481890" lon="34.9726980">
<ele>302.600006</ele>
<time>2021-04-09T07:46:08.000Z</time>
</trkpt>
<trkpt lat="30.8483890" lon="34.9726840">
<ele>302.799988</ele>
<time>2021-04-09T07:46:17.000Z</time>
</trkpt>
<trkpt lat="30.8485100" lon="34.9726460">
<ele>303.000000</ele>
<time>2021-04-09T07:46:21.000Z</time>
</trkpt>
<trkpt lat="30.8486110" lon="34.9725540">
<ele>303.200012</ele>
<time>2021-04-09T07:46:26.000Z</time>
</trkpt>
<trkpt lat="30.8486810" lon="34.9725310">
<ele>303.399994</ele>
<time>2021-04-09T07:46:29.000Z</time>
</trkpt>
<trkpt lat="30.8487840" lon="34.9725230">
<ele>303.699982</ele>
<time>2021-04-09T07:46:32.000Z</time>
</trkpt>
<trkpt lat="30.8490360" lon="34.9723760">
<ele>304.399994</ele>
<time>2021-04-09T07:46:41.000Z</time>
</trkpt>
<trkpt lat="30.8491040" lon="34.9723610">
<ele>304.500000</ele>
<time>2021-04-09T07:46:43.000Z</time>
</trkpt>
<trkpt lat="30.8491890" lon="34.9723190">
<ele>304.700012</ele>
<time>2021-04-09T07:46:46.000Z</time>
</trkpt>
<trkpt lat="30.8493230" lon="34.9723050">
<ele>305.000000</ele>
<time>2021-04-09T07:46:51.000Z</time>
</trkpt>
<trkpt lat="30.8493990" lon="34.9723040">
<ele>305.000000</ele>
<time>2021-04-09T07:46:54.000Z</time>
</trkpt>
<trkpt lat="30.8495710" lon="34.9723520">
<ele>305.199982</ele>
<time>2021-04-09T07:47:00.000Z</time>
</trkpt>
<trkpt lat="30.8499370" lon="34.9724040">
<ele>305.600006</ele>
<time>2021-04-09T07:47:14.000Z</time>
</trkpt>
<trkpt lat="30.8500630" lon="34.9724540">
<ele>305.799988</ele>
<time>2021-04-09T07:47:19.000Z</time>
</trkpt>
<trkpt lat="30.8502650" lon="34.9724810">
<ele>306.000000</ele>
<time>2021-04-09T07:47:25.000Z</time>
</trkpt>
<trkpt lat="30.8505970" lon="34.9725860">
<ele>306.299988</ele>
<time>2021-04-09T07:47:35.000Z</time>
</trkpt>
<trkpt lat="30.8512310" lon="34.9726990">
<ele>307.600006</ele>
<time>2021-04-09T07:47:53.000Z</time>
</trkpt>
<trkpt lat="30.8512950" lon="34.9727280">
<ele>307.700012</ele>
<time>2021-04-09T07:47:55.000Z</time>
</trkpt>
<trkpt lat="30.8515090" lon="34.9729770">
<ele>308.299988</ele>
<time>2021-04-09T07:48:05.000Z</time>
</trkpt>
<trkpt lat="30.8515670" lon="34.9730020">
<ele>308.399994</ele>
<time>2021-04-09T07:48:08.000Z</time>
</trkpt>
<trkpt lat="30.8517130" lon="34.9730200">
<ele>308.700012</ele>
<time>2021-04-09T07:48:15.000Z</time>
</trkpt>
<trkpt lat="30.8520140" lon="34.9729370">
<ele>309.399994</ele>
<time>2021-04-09T07:48:29.000Z</time>
</trkpt>
<trkpt lat="30.8520520" lon="34.9729240">
<ele>309.399994</ele>
<time>2021-04-09T07:48:31.000Z</time>
</trkpt>
<trkpt lat="30.8522640" lon="34.9729700">
<ele>309.899994</ele>
<time>2021-04-09T07:48:39.000Z</time>
</trkpt>
<trkpt lat="30.8524590" lon="34.9729490">
<ele>310.399994</ele>
<time>2021-04-09T07:48:46.000Z</time>
</trkpt>
<trkpt lat="30.8525640" lon="34.9729220">
<ele>310.500000</ele>
<time>2021-04-09T07:48:50.000Z</time>
</trkpt>
<trkpt lat="30.8526890" lon="34.9728340">
<ele>310.699982</ele>
<time>2021-04-09T07:48:56.000Z</time>
</trkpt>
<trkpt lat="30.8527670" lon="34.9728100">
<ele>310.800018</ele>
<time>2021-04-09T07:48:59.000Z</time>
</trkpt>
<trkpt lat="30.8529920" lon="34.9727920">
<ele>311.399994</ele>
<time>2021-04-09T07:49:07.000Z</time>
</trkpt>
<trkpt lat="30.8530250" lon="34.9728030">
<ele>311.500000</ele>
<time>2021-04-09T07:49:09.000Z</time>
</trkpt>
<trkpt lat="30.8532400" lon="34.9728040">
<ele>311.799988</ele>
<time>2021-04-09T07:49:16.000Z</time>
</trkpt>
<trkpt lat="30.8533130" lon="34.9727670">
<ele>311.899994</ele>
<time>2021-04-09T07:49:19.000Z</time>
</trkpt>
<trkpt lat="30.8534490" lon="34.9728240">
<ele>312.000000</ele>
<time>2021-04-09T07:49:25.000Z</time>
</trkpt>
<trkpt lat="30.8535640" lon="34.9727600">
<ele>311.799988</ele>
<time>2021-04-09T07:49:31.000Z</time>
</trkpt>
<trkpt lat="30.8536620" lon="34.9726480">
<ele>311.500000</ele>
<time>2021-04-09T07:49:37.000Z</time>
</trkpt>
<trkpt lat="30.8537470" lon="34.9725870">
<ele>311.399994</ele>
<time>2021-04-09T07:49:41.000Z</time>
</trkpt>
<trkpt lat="30.8537670" lon="34.9723980">
<ele>311.500000</ele>
<time>2021-04-09T07:49:48.000Z</time>
</trkpt>
<trkpt lat="30.8537950" lon="34.9723440">
<ele>311.500000</ele>
<time>2021-04-09T07:49:51.000Z</time>
</trkpt>
<trkpt lat="30.8539610" lon="34.9722360">
<ele>311.500000</ele>
<time>2021-04-09T07:49:58.000Z</time>
</trkpt>
<trkpt lat="30.8540590" lon="34.9721190">
<ele>311.700012</ele>
<time>2021-04-09T07:50:03.000Z</time>
</trkpt>
<trkpt lat="30.8542550" lon="34.9720190">
<ele>312.899994</ele>
<time>2021-04-09T07:50:10.000Z</time>
</trkpt>
<trkpt lat="30.8542860" lon="34.9719850">
<ele>312.999969</ele>
<time>2021-04-09T07:50:12.000Z</time>
</trkpt>
<trkpt lat="30.8543620" lon="34.9718300">
<ele>312.799988</ele>
<time>2021-04-09T07:50:18.000Z</time>
</trkpt>
<trkpt lat="30.8543880" lon="34.9717240">
<ele>312.899994</ele>
<time>2021-04-09T07:50:22.000Z</time>
</trkpt>
<trkpt lat="30.8543960" lon="34.9714830">
<ele>312.600006</ele>
<time>2021-04-09T07:50:29.000Z</time>
</trkpt>
<trkpt lat="30.8543510" lon="34.9712660">
<ele>312.199982</ele>
<time>2021-04-09T07:50:36.000Z</time>
</trkpt>
<trkpt lat="30.8543750" lon="34.9709670">
<ele>312.100006</ele>
<time>2021-04-09T07:50:45.000Z</time>
</trkpt>
<trkpt lat="30.8545570" lon="34.9707430">
<ele>312.500000</ele>
<time>2021-04-09T07:50:55.000Z</time>
</trkpt>
<trkpt lat="30.8545770" lon="34.9706850">
<ele>312.600006</ele>
<time>2021-04-09T07:50:57.000Z</time>
</trkpt>
<trkpt lat="30.8545690" lon="34.9705300">
<ele>312.600006</ele>
<time>2021-04-09T07:51:03.000Z</time>
</trkpt>
<trkpt lat="30.8545850" lon="34.9704130">
<ele>312.600006</ele>
<time>2021-04-09T07:51:07.000Z</time>
</trkpt>
<trkpt lat="30.8546230" lon="34.9703100">
<ele>312.699982</ele>
<time>2021-04-09T07:51:11.000Z</time>
</trkpt>
<trkpt lat="30.8546810" lon="34.9702490">
<ele>312.799988</ele>
<time>2021-04-09T07:51:15.000Z</time>
</trkpt>
<trkpt lat="30.8548670" lon="34.9697190">
<ele>313.599976</ele>
<time>2021-04-09T07:51:38.000Z</time>
</trkpt>
<trkpt lat="30.8551350" lon="34.9693390">
<ele>314.199982</ele>
<time>2021-04-09T07:51:52.000Z</time>
</trkpt>
<trkpt lat="30.8555530" lon="34.9690990">
<ele>315.500000</ele>
<time>2021-04-09T07:52:10.000Z</time>
</trkpt>
<trkpt lat="30.8556290" lon="34.9690250">
<ele>316.100006</ele>
<time>2021-04-09T07:52:14.000Z</time>
</trkpt>
<trkpt lat="30.8557320" lon="34.9689760">
<ele>316.899994</ele>
<time>2021-04-09T07:52:21.000Z</time>
</trkpt>
<trkpt lat="30.8557550" lon="34.9689410">
<ele>317.199982</ele>
<time>2021-04-09T07:52:23.000Z</time>
</trkpt>
<trkpt lat="30.8557230" lon="34.9688890">
<ele>317.600006</ele>
<time>2021-04-09T07:52:27.000Z</time>
</trkpt>
<trkpt lat="30.8556870" lon="34.9688830">
<ele>317.799988</ele>
<time>2021-04-09T07:52:29.000Z</time>
</trkpt>
<trkpt lat="30.8553320" lon="34.9687020">
<ele>319.299988</ele>
<time>2021-04-09T07:52:48.000Z</time>
</trkpt>
<trkpt lat="30.8552960" lon="34.9686290">
<ele>319.399994</ele>
<time>2021-04-09T07:52:51.000Z</time>
</trkpt>
<trkpt lat="30.8552400" lon="34.9684130">
<ele>319.599976</ele>
<time>2021-04-09T07:53:00.000Z</time>
</trkpt>
<trkpt lat="30.8552480" lon="34.9682820">
<ele>319.800018</ele>
<time>2021-04-09T07:53:05.000Z</time>
</trkpt>
<trkpt lat="30.8553300" lon="34.9681120">
<ele>320.400024</ele>
<time>2021-04-09T07:53:13.000Z</time>
</trkpt>
<trkpt lat="30.8553820" lon="34.9677540">
<ele>321.300018</ele>
<time>2021-04-09T07:53:26.000Z</time>
</trkpt>
<trkpt lat="30.8555190" lon="34.9671760">
<ele>321.800018</ele>
<time>2021-04-09T07:53:46.000Z</time>
</trkpt>
<trkpt lat="30.8555720" lon="34.9670290">
<ele>322.000000</ele>
<time>2021-04-09T07:53:50.000Z</time>
</trkpt>
<trkpt lat="30.8557860" lon="34.9666190">
<ele>322.200012</ele>
<time>2021-04-09T07:54:03.000Z</time>
</trkpt>
<trkpt lat="30.8558690" lon="34.9663480">
<ele>321.900024</ele>
<time>2021-04-09T07:54:10.000Z</time>
</trkpt>
<trkpt lat="30.8559630" lon="34.9660800">
<ele>322.600006</ele>
<time>2021-04-09T07:54:18.000Z</time>
</trkpt>
<trkpt lat="30.8560060" lon="34.9658990">
<ele>323.199982</ele>
<time>2021-04-09T07:54:23.000Z</time>
</trkpt>
<trkpt lat="30.8560660" lon="34.9657660">
<ele>323.799988</ele>
<time>2021-04-09T07:54:28.000Z</time>
</trkpt>
<trkpt lat="30.8560420" lon="34.9657260">
<ele>323.999969</ele>
<time>2021-04-09T07:54:29.000Z</time>
</trkpt>
<trkpt lat="30.8556320" lon="34.9655660">
<ele>322.700012</ele>
<time>2021-04-09T07:54:44.000Z</time>
</trkpt>
<trkpt lat="30.8555660" lon="34.9655150">
<ele>322.500031</ele>
<time>2021-04-09T07:54:47.000Z</time>
</trkpt>
<trkpt lat="30.8555510" lon="34.9654660">
<ele>322.299988</ele>
<time>2021-04-09T07:54:49.000Z</time>
</trkpt>
<trkpt lat="30.8555580" lon="34.9654190">
<ele>322.200012</ele>
<time>2021-04-09T07:54:52.000Z</time>
</trkpt>
<trkpt lat="30.8555640" lon="34.9653940">
<ele>322.100006</ele>
<time>2021-04-09T07:54:53.000Z</time>
</trkpt>
<trkpt lat="30.8557170" lon="34.9654150">
<ele>321.699982</ele>
<time>2021-04-09T07:55:15.000Z</time>
</trkpt>
<trkpt lat="30.8558620" lon="34.9653850">
<ele>321.200012</ele>
<time>2021-04-09T08:01:41.000Z</time>
</trkpt>
<trkpt lat="30.8558970" lon="34.9652840">
<ele>321.000031</ele>
<time>2021-04-09T08:01:44.000Z</time>
</trkpt>
<trkpt lat="30.8562160" lon="34.9647110">
<ele>319.200012</ele>
<time>2021-04-09T08:02:04.000Z</time>
</trkpt>
<trkpt lat="30.8562610" lon="34.9645120">
<ele>318.699982</ele>
<time>2021-04-09T08:02:10.000Z</time>
</trkpt>
<trkpt lat="30.8564780" lon="34.9640700">
<ele>317.400024</ele>
<time>2021-04-09T08:02:22.000Z</time>
</trkpt>
<trkpt lat="30.8564970" lon="34.9639680">
<ele>317.100006</ele>
<time>2021-04-09T08:02:24.000Z</time>
</trkpt>
<trkpt lat="30.8564950" lon="34.9638550">
<ele>316.899994</ele>
<time>2021-04-09T08:02:27.000Z</time>
</trkpt>
<trkpt lat="30.8564770" lon="34.9637710">
<ele>316.599976</ele>
<time>2021-04-09T08:02:29.000Z</time>
</trkpt>
<trkpt lat="30.8564080" lon="34.9637220">
<ele>316.399994</ele>
<time>2021-04-09T08:02:33.000Z</time>
</trkpt>
<trkpt lat="30.8563810" lon="34.9636320">
<ele>316.100006</ele>
<time>2021-04-09T08:02:36.000Z</time>
</trkpt>
<trkpt lat="30.8564100" lon="34.9635520">
<ele>315.900024</ele>
<time>2021-04-09T08:02:39.000Z</time>
</trkpt>
<trkpt lat="30.8565590" lon="34.9634510">
<ele>315.399994</ele>
<time>2021-04-09T08:02:45.000Z</time>
</trkpt>
<trkpt lat="30.8567930" lon="34.9633550">
<ele>314.700012</ele>
<time>2021-04-09T08:02:57.000Z</time>
</trkpt>
<trkpt lat="30.8568760" lon="34.9633400">
<ele>314.400024</ele>
<time>2021-04-09T08:03:01.000Z</time>
</trkpt>
<trkpt lat="30.8569860" lon="34.9632890">
<ele>314.100006</ele>
<time>2021-04-09T08:03:07.000Z</time>
</trkpt>
<trkpt lat="30.8571360" lon="34.9632690">
<ele>313.599976</ele>
<time>2021-04-09T08:03:13.000Z</time>
</trkpt>
<trkpt lat="30.8572140" lon="34.9632240">
<ele>312.799988</ele>
<time>2021-04-09T08:03:17.000Z</time>
</trkpt>
<trkpt lat="30.8569940" lon="34.9629570">
<ele>311.399994</ele>
<time>2021-04-09T08:03:28.000Z</time>
</trkpt>
<trkpt lat="30.8567860" lon="34.9625590">
<ele>310.800018</ele>
<time>2021-04-09T08:03:36.000Z</time>
</trkpt>
<trkpt lat="30.8565800" lon="34.9623730">
<ele>311.600006</ele>
<time>2021-04-09T08:03:42.000Z</time>
</trkpt>
<trkpt lat="30.8564490" lon="34.9623200">
<ele>311.799988</ele>
<time>2021-04-09T08:03:47.000Z</time>
</trkpt>
<trkpt lat="30.8563000" lon="34.9622040">
<ele>312.000000</ele>
<time>2021-04-09T08:03:54.000Z</time>
</trkpt>
<trkpt lat="30.8560230" lon="34.9619180">
<ele>311.899994</ele>
<time>2021-04-09T08:04:05.000Z</time>
</trkpt>
<trkpt lat="30.8558730" lon="34.9617520">
<ele>311.799988</ele>
<time>2021-04-09T08:04:09.000Z</time>
</trkpt>
<trkpt lat="30.8548280" lon="34.9603710">
<ele>306.200012</ele>
<time>2021-04-09T08:04:28.000Z</time>
</trkpt>
<trkpt lat="30.8544100" lon="34.9599390">
<ele>304.399994</ele>
<time>2021-04-09T08:04:35.000Z</time>
</trkpt>
<trkpt lat="30.8535550" lon="34.9591780">
<ele>304.100006</ele>
<time>2021-04-09T08:04:52.000Z</time>
</trkpt>
<trkpt lat="30.8534070" lon="34.9589880">
<ele>304.100006</ele>
<time>2021-04-09T08:04:56.000Z</time>
</trkpt>
<trkpt lat="30.8532270" lon="34.9585320">
<ele>304.100006</ele>
<time>2021-04-09T08:05:05.000Z</time>
</trkpt>
<trkpt lat="30.8528020" lon="34.9566350">
<ele>300.100006</ele>
<time>2021-04-09T08:05:36.000Z</time>
</trkpt>
<trkpt lat="30.8525990" lon="34.9558630">
<ele>299.600006</ele>
<time>2021-04-09T08:05:50.000Z</time>
</trkpt>
<trkpt lat="30.8524960" lon="34.9555330">
<ele>299.699982</ele>
<time>2021-04-09T08:05:57.000Z</time>
</trkpt>
<trkpt lat="30.8524380" lon="34.9552390">
<ele>299.600006</ele>
<time>2021-04-09T08:06:03.000Z</time>
</trkpt>
<trkpt lat="30.8524030" lon="34.9552160">
<ele>299.600006</ele>
<time>2021-04-09T08:06:04.000Z</time>
</trkpt>
<trkpt lat="30.8523970" lon="34.9549490">
<ele>299.399994</ele>
<time>2021-04-09T08:06:08.000Z</time>
</trkpt>
<trkpt lat="30.8523220" lon="34.9544670">
<ele>298.799988</ele>
<time>2021-04-09T08:06:16.000Z</time>
</trkpt>
<trkpt lat="30.8521950" lon="34.9533740">
<ele>296.600006</ele>
<time>2021-04-09T08:06:34.000Z</time>
</trkpt>
<trkpt lat="30.8520580" lon="34.9529360">
<ele>295.200012</ele>
<time>2021-04-09T08:06:41.000Z</time>
</trkpt>
<trkpt lat="30.8518450" lon="34.9523470">
<ele>294.199982</ele>
<time>2021-04-09T08:06:50.000Z</time>
</trkpt>
<trkpt lat="30.8517460" lon="34.9518870">
<ele>293.899994</ele>
<time>2021-04-09T08:06:57.000Z</time>
</trkpt>
<trkpt lat="30.8514680" lon="34.9509410">
<ele>291.899994</ele>
<time>2021-04-09T08:07:10.000Z</time>
</trkpt>
<trkpt lat="30.8514380" lon="34.9508710">
<ele>291.799988</ele>
<time>2021-04-09T08:07:11.000Z</time>
</trkpt>
<trkpt lat="30.8512240" lon="34.9505960">
<ele>291.500000</ele>
<time>2021-04-09T08:07:16.000Z</time>
</trkpt>
<trkpt lat="30.8508310" lon="34.9500240">
<ele>291.399994</ele>
<time>2021-04-09T08:07:27.000Z</time>
</trkpt>
<trkpt lat="30.8508100" lon="34.9499320">
<ele>291.300018</ele>
<time>2021-04-09T08:07:32.000Z</time>
</trkpt>
<trkpt lat="30.8506850" lon="34.9496930">
<ele>291.300018</ele>
<time>2021-04-09T08:07:43.000Z</time>
</trkpt>
<trkpt lat="30.8506480" lon="34.9495380">
<ele>291.199982</ele>
<time>2021-04-09T08:07:47.000Z</time>
</trkpt>
<trkpt lat="30.8504470" lon="34.9488550">
<ele>290.399994</ele>
<time>2021-04-09T08:08:09.000Z</time>
</trkpt>
<trkpt lat="30.8503020" lon="34.9486830">
<ele>290.000000</ele>
<time>2021-04-09T08:08:17.000Z</time>
</trkpt>
<trkpt lat="30.8500630" lon="34.9481090">
<ele>289.000000</ele>
<time>2021-04-09T08:08:30.000Z</time>
</trkpt>
<trkpt lat="30.8498090" lon="34.9476370">
<ele>288.500000</ele>
<time>2021-04-09T08:08:40.000Z</time>
</trkpt>
<trkpt lat="30.8496640" lon="34.9473070">
<ele>288.200012</ele>
<time>2021-04-09T08:08:47.000Z</time>
</trkpt>
<trkpt lat="30.8494730" lon="34.9468040">
<ele>286.200012</ele>
<time>2021-04-09T08:08:56.000Z</time>
</trkpt>
<trkpt lat="30.8492400" lon="34.9462980">
<ele>286.200012</ele>
<time>2021-04-09T08:09:05.000Z</time>
</trkpt>
<trkpt lat="30.8489320" lon="34.9458520">
<ele>286.000000</ele>
<time>2021-04-09T08:09:15.000Z</time>
</trkpt>
<trkpt lat="30.8486530" lon="34.9456130">
<ele>284.700012</ele>
<time>2021-04-09T08:09:22.000Z</time>
</trkpt>
<trkpt lat="30.8481310" lon="34.9450230">
<ele>282.399994</ele>
<time>2021-04-09T08:09:35.000Z</time>
</trkpt>
<trkpt lat="30.8477580" lon="34.9444130">
<ele>281.200012</ele>
<time>2021-04-09T08:09:47.000Z</time>
</trkpt>
<trkpt lat="30.8474010" lon="34.9437410">
<ele>280.500000</ele>
<time>2021-04-09T08:10:01.000Z</time>
</trkpt>
<trkpt lat="30.8469710" lon="34.9431920">
<ele>279.399994</ele>
<time>2021-04-09T08:10:13.000Z</time>
</trkpt>
<trkpt lat="30.8462680" lon="34.9420830">
<ele>276.000000</ele>
<time>2021-04-09T08:10:31.000Z</time>
</trkpt>
<trkpt lat="30.8454730" lon="34.9410800">
<ele>276.299988</ele>
<time>2021-04-09T08:10:50.000Z</time>
</trkpt>
<trkpt lat="30.8449340" lon="34.9403180">
<ele>273.700012</ele>
<time>2021-04-09T08:11:03.000Z</time>
</trkpt>
<trkpt lat="30.8443940" lon="34.9396370">
<ele>272.600006</ele>
<time>2021-04-09T08:11:15.000Z</time>
</trkpt>
<trkpt lat="30.8441640" lon="34.9392970">
<ele>273.700012</ele>
<time>2021-04-09T08:11:22.000Z</time>
</trkpt>
<trkpt lat="30.8440690" lon="34.9390030">
<ele>273.899994</ele>
<time>2021-04-09T08:11:27.000Z</time>
</trkpt>
<trkpt lat="30.8440610" lon="34.9387750">
<ele>273.199982</ele>
<time>2021-04-09T08:11:30.000Z</time>
</trkpt>
<trkpt lat="30.8440050" lon="34.9383220">
<ele>271.200012</ele>
<time>2021-04-09T08:11:36.000Z</time>
</trkpt>
<trkpt lat="30.8438740" lon="34.9377040">
<ele>269.399994</ele>
<time>2021-04-09T08:11:46.000Z</time>
</trkpt>
<trkpt lat="30.8437520" lon="34.9369150">
<ele>267.800018</ele>
<time>2021-04-09T08:11:56.000Z</time>
</trkpt>
<trkpt lat="30.8436900" lon="34.9366520">
<ele>267.200012</ele>
<time>2021-04-09T08:11:59.000Z</time>
</trkpt>
<trkpt lat="30.8436610" lon="34.9363870">
<ele>266.199982</ele>
<time>2021-04-09T08:12:02.000Z</time>
</trkpt>
<trkpt lat="30.8433450" lon="34.9347070">
<ele>266.000000</ele>
<time>2021-04-09T08:12:27.000Z</time>
</trkpt>
<trkpt lat="30.8432510" lon="34.9344410">
<ele>267.100006</ele>
<time>2021-04-09T08:12:32.000Z</time>
</trkpt>
<trkpt lat="30.8431370" lon="34.9342330">
<ele>267.600006</ele>
<time>2021-04-09T08:12:38.000Z</time>
</trkpt>
<trkpt lat="30.8430670" lon="34.9341760">
<ele>267.600006</ele>
<time>2021-04-09T08:12:41.000Z</time>
</trkpt>
<trkpt lat="30.8428390" lon="34.9336460">
<ele>267.500000</ele>
<time>2021-04-09T08:12:56.000Z</time>
</trkpt>
<trkpt lat="30.8424180" lon="34.9327870">
<ele>266.600006</ele>
<time>2021-04-09T08:13:14.000Z</time>
</trkpt>
<trkpt lat="30.8422000" lon="34.9324770">
<ele>265.500000</ele>
<time>2021-04-09T08:13:21.000Z</time>
</trkpt>
<trkpt lat="30.8420940" lon="34.9322800">
<ele>265.200012</ele>
<time>2021-04-09T08:13:25.000Z</time>
</trkpt>
<trkpt lat="30.8419450" lon="34.9319130">
<ele>264.600006</ele>
<time>2021-04-09T08:13:32.000Z</time>
</trkpt>
<trkpt lat="30.8417020" lon="34.9315340">
<ele>262.399994</ele>
<time>2021-04-09T08:13:40.000Z</time>
</trkpt>
<trkpt lat="30.8412130" lon="34.9308440">
<ele>259.799988</ele>
<time>2021-04-09T08:13:51.000Z</time>
</trkpt>
<trkpt lat="30.8409730" lon="34.9303730">
<ele>259.899994</ele>
<time>2021-04-09T08:13:58.000Z</time>
</trkpt>
<trkpt lat="30.8405410" lon="34.9298310">
<ele>257.800018</ele>
<time>2021-04-09T08:14:08.000Z</time>
</trkpt>
<trkpt lat="30.8400970" lon="34.9294250">
<ele>257.899994</ele>
<time>2021-04-09T08:14:17.000Z</time>
</trkpt>
<trkpt lat="30.8399900" lon="34.9293750">
<ele>258.000000</ele>
<time>2021-04-09T08:14:19.000Z</time>
</trkpt>
<trkpt lat="30.8398290" lon="34.9292420">
<ele>258.000000</ele>
<time>2021-04-09T08:14:23.000Z</time>
</trkpt>
<trkpt lat="30.8397240" lon="34.9290460">
<ele>257.600006</ele>
<time>2021-04-09T08:14:27.000Z</time>
</trkpt>
<trkpt lat="30.8394130" lon="34.9287070">
<ele>256.200012</ele>
<time>2021-04-09T08:14:35.000Z</time>
</trkpt>
<trkpt lat="30.8392130" lon="34.9285550">
<ele>255.500000</ele>
<time>2021-04-09T08:14:39.000Z</time>
</trkpt>
<trkpt lat="30.8387910" lon="34.9283060">
<ele>254.800003</ele>
<time>2021-04-09T08:14:47.000Z</time>
</trkpt>
<trkpt lat="30.8382040" lon="34.9277220">
<ele>255.100006</ele>
<time>2021-04-09T08:15:00.000Z</time>
</trkpt>
<trkpt lat="30.8378480" lon="34.9274450">
<ele>255.199997</ele>
<time>2021-04-09T08:15:09.000Z</time>
</trkpt>
<trkpt lat="30.8372040" lon="34.9270150">
<ele>254.199997</ele>
<time>2021-04-09T08:15:23.000Z</time>
</trkpt>
<trkpt lat="30.8369250" lon="34.9267720">
<ele>253.399994</ele>
<time>2021-04-09T08:15:30.000Z</time>
</trkpt>
<trkpt lat="30.8366430" lon="34.9264500">
<ele>252.399994</ele>
<time>2021-04-09T08:15:38.000Z</time>
</trkpt>
<trkpt lat="30.8363980" lon="34.9260870">
<ele>253.200012</ele>
<time>2021-04-09T08:15:46.000Z</time>
</trkpt>
<trkpt lat="30.8361710" lon="34.9257060">
<ele>252.699997</ele>
<time>2021-04-09T08:15:53.000Z</time>
</trkpt>
<trkpt lat="30.8358550" lon="34.9253450">
<ele>251.400009</ele>
<time>2021-04-09T08:16:01.000Z</time>
</trkpt>
<trkpt lat="30.8355360" lon="34.9248730">
<ele>250.800003</ele>
<time>2021-04-09T08:16:10.000Z</time>
</trkpt>
<trkpt lat="30.8353470" lon="34.9244820">
<ele>250.300003</ele>
<time>2021-04-09T08:16:17.000Z</time>
</trkpt>
<trkpt lat="30.8350390" lon="34.9233600">
<ele>250.599991</ele>
<time>2021-04-09T08:16:35.000Z</time>
</trkpt>
<trkpt lat="30.8346930" lon="34.9226280">
<ele>248.300003</ele>
<time>2021-04-09T08:16:48.000Z</time>
</trkpt>
<trkpt lat="30.8344360" lon="34.9220300">
<ele>245.600006</ele>
<time>2021-04-09T08:16:58.000Z</time>
</trkpt>
<trkpt lat="30.8340890" lon="34.9213570">
<ele>243.700012</ele>
<time>2021-04-09T08:17:10.000Z</time>
</trkpt>
<trkpt lat="30.8337480" lon="34.9206310">
<ele>242.699997</ele>
<time>2021-04-09T08:17:24.000Z</time>
</trkpt>
<trkpt lat="30.8336080" lon="34.9204230">
<ele>242.600006</ele>
<time>2021-04-09T08:17:29.000Z</time>
</trkpt>
<trkpt lat="30.8333470" lon="34.9202160">
<ele>242.200012</ele>
<time>2021-04-09T08:17:35.000Z</time>
</trkpt>
<trkpt lat="30.8328060" lon="34.9199650">
<ele>241.399994</ele>
<time>2021-04-09T08:17:45.000Z</time>
</trkpt>
<trkpt lat="30.8325340" lon="34.9198930">
<ele>241.399994</ele>
<time>2021-04-09T08:17:50.000Z</time>
</trkpt>
<trkpt lat="30.8310940" lon="34.9196890">
<ele>239.300003</ele>
<time>2021-04-09T08:18:13.000Z</time>
</trkpt>
<trkpt lat="30.8307560" lon="34.9195770">
<ele>239.399994</ele>
<time>2021-04-09T08:18:19.000Z</time>
</trkpt>
<trkpt lat="30.8305960" lon="34.9195640">
<ele>239.500000</ele>
<time>2021-04-09T08:18:22.000Z</time>
</trkpt>
<trkpt lat="30.8302800" lon="34.9195910">
<ele>239.500000</ele>
<time>2021-04-09T08:18:28.000Z</time>
</trkpt>
<trkpt lat="30.8297270" lon="34.9195180">
<ele>238.000000</ele>
<time>2021-04-09T08:18:37.000Z</time>
</trkpt>
<trkpt lat="30.8291010" lon="34.9193760">
<ele>235.699997</ele>
<time>2021-04-09T08:18:47.000Z</time>
</trkpt>
<trkpt lat="30.8289830" lon="34.9193620">
<ele>235.099991</ele>
<time>2021-04-09T08:18:49.000Z</time>
</trkpt>
<trkpt lat="30.8287720" lon="34.9194430">
<ele>234.500000</ele>
<time>2021-04-09T08:18:54.000Z</time>
</trkpt>
<trkpt lat="30.8286950" lon="34.9194580">
<ele>234.399994</ele>
<time>2021-04-09T08:18:56.000Z</time>
</trkpt>
<trkpt lat="30.8286130" lon="34.9194480">
<ele>234.399994</ele>
<time>2021-04-09T08:18:58.000Z</time>
</trkpt>
<trkpt lat="30.8283930" lon="34.9193620">
<ele>234.300003</ele>
<time>2021-04-09T08:19:03.000Z</time>
</trkpt>
<trkpt lat="30.8280280" lon="34.9193430">
<ele>234.500000</ele>
<time>2021-04-09T08:19:11.000Z</time>
</trkpt>
<trkpt lat="30.8278770" lon="34.9193550">
<ele>234.500000</ele>
<time>2021-04-09T08:19:14.000Z</time>
</trkpt>
<trkpt lat="30.8276670" lon="34.9194230">
<ele>234.500000</ele>
<time>2021-04-09T08:19:19.000Z</time>
</trkpt>
<trkpt lat="30.8274290" lon="34.9195920">
<ele>234.399994</ele>
<time>2021-04-09T08:19:25.000Z</time>
</trkpt>
<trkpt lat="30.8272960" lon="34.9197430">
<ele>234.100006</ele>
<time>2021-04-09T08:19:29.000Z</time>
</trkpt>
<trkpt lat="30.8270710" lon="34.9199190">
<ele>233.700012</ele>
<time>2021-04-09T08:19:37.000Z</time>
</trkpt>
<trkpt lat="30.8270020" lon="34.9200650">
<ele>233.299988</ele>
<time>2021-04-09T08:19:42.000Z</time>
</trkpt>
<trkpt lat="30.8269900" lon="34.9201330">
<ele>233.199997</ele>
<time>2021-04-09T08:19:44.000Z</time>
</trkpt>
<trkpt lat="30.8268550" lon="34.9202610">
<ele>232.599991</ele>
<time>2021-04-09T08:19:50.000Z</time>
</trkpt>
<trkpt lat="30.8268640" lon="34.9203290">
<ele>232.399994</ele>
<time>2021-04-09T08:19:53.000Z</time>
</trkpt>
<trkpt lat="30.8269660" lon="34.9204780">
<ele>232.099991</ele>
<time>2021-04-09T08:20:00.000Z</time>
</trkpt>
<trkpt lat="30.8269580" lon="34.9204430">
<ele>232.000000</ele>
<time>2021-04-09T08:20:06.000Z</time>
</trkpt>
<trkpt lat="30.8269000" lon="34.9204060">
<ele>231.900009</ele>
<time>2021-04-09T08:20:39.000Z</time>
</trkpt>
<trkpt lat="30.8268370" lon="34.9202760">
<ele>231.799988</ele>
<time>2021-04-09T08:20:45.000Z</time>
</trkpt>
<trkpt lat="30.8268080" lon="34.9202500">
<ele>231.799988</ele>
<time>2021-04-09T08:20:46.000Z</time>
</trkpt>
<trkpt lat="30.8267570" lon="34.9202490">
<ele>231.799988</ele>
<time>2021-04-09T08:20:49.000Z</time>
</trkpt>
<trkpt lat="30.8266900" lon="34.9203410">
<ele>231.900009</ele>
<time>2021-04-09T08:20:54.000Z</time>
</trkpt>
<trkpt lat="30.8266490" lon="34.9205430">
<ele>231.900009</ele>
<time>2021-04-09T08:21:01.000Z</time>
</trkpt>
<trkpt lat="30.8266120" lon="34.9206490">
<ele>232.099991</ele>
<time>2021-04-09T08:21:05.000Z</time>
</trkpt>
<trkpt lat="30.8264850" lon="34.9207730">
<ele>232.800003</ele>
<time>2021-04-09T08:21:12.000Z</time>
</trkpt>
<trkpt lat="30.8263240" lon="34.9209910">
<ele>233.899994</ele>
<time>2021-04-09T08:21:24.000Z</time>
</trkpt>
<trkpt lat="30.8262920" lon="34.9210070">
<ele>234.100006</ele>
<time>2021-04-09T08:21:25.000Z</time>
</trkpt>
<trkpt lat="30.8262100" lon="34.9209490">
<ele>235.000000</ele>
<time>2021-04-09T08:21:29.000Z</time>
</trkpt>
<trkpt lat="30.8261790" lon="34.9207490">
<ele>236.199997</ele>
<time>2021-04-09T08:21:40.000Z</time>
</trkpt>
<trkpt lat="30.8261400" lon="34.9206370">
<ele>236.400009</ele>
<time>2021-04-09T08:22:33.000Z</time>
</trkpt>
<trkpt lat="30.8261580" lon="34.9206310">
<ele>236.400009</ele>
<time>2021-04-09T08:22:35.000Z</time>
</trkpt>
<trkpt lat="30.8260890" lon="34.9204710">
<ele>236.500000</ele>
<time>2021-04-09T08:22:42.000Z</time>
</trkpt>
<trkpt lat="30.8260440" lon="34.9202060">
<ele>236.700012</ele>
<time>2021-04-09T08:22:51.000Z</time>
</trkpt>
<trkpt lat="30.8260450" lon="34.9199830">
<ele>237.000015</ele>
<time>2021-04-09T08:22:56.000Z</time>
</trkpt>
<trkpt lat="30.8260170" lon="34.9196310">
<ele>237.600006</ele>
<time>2021-04-09T08:23:05.000Z</time>
</trkpt>
<trkpt lat="30.8261380" lon="34.9193080">
<ele>238.099991</ele>
<time>2021-04-09T08:23:16.000Z</time>
</trkpt>
<trkpt lat="30.8261460" lon="34.9191440">
<ele>238.399994</ele>
<time>2021-04-09T08:23:21.000Z</time>
</trkpt>
<trkpt lat="30.8261290" lon="34.9186970">
<ele>238.600006</ele>
<time>2021-04-09T08:23:34.000Z</time>
</trkpt>
<trkpt lat="30.8261360" lon="34.9183710">
<ele>238.699997</ele>
<time>2021-04-09T08:23:44.000Z</time>
</trkpt>
<trkpt lat="30.8261620" lon="34.9181230">
<ele>238.799988</ele>
<time>2021-04-09T08:23:51.000Z</time>
</trkpt>
<trkpt lat="30.8261330" lon="34.9178830">
<ele>238.900009</ele>
<time>2021-04-09T08:23:58.000Z</time>
</trkpt>
<trkpt lat="30.8260350" lon="34.9176040">
<ele>238.499985</ele>
<time>2021-04-09T08:24:06.000Z</time>
</trkpt>
<trkpt lat="30.8260890" lon="34.9173100">
<ele>239.199997</ele>
<time>2021-04-09T08:24:11.000Z</time>
</trkpt>
<trkpt lat="30.8262300" lon="34.9170200">
<ele>241.199997</ele>
<time>2021-04-09T08:24:17.000Z</time>
</trkpt>
<trkpt lat="30.8262540" lon="34.9169080">
<ele>242.000000</ele>
<time>2021-04-09T08:24:19.000Z</time>
</trkpt>
<trkpt lat="30.8262150" lon="34.9167110">
<ele>243.700012</ele>
<time>2021-04-09T08:24:25.000Z</time>
</trkpt>
<trkpt lat="30.8260170" lon="34.9164780">
<ele>246.800003</ele>
<time>2021-04-09T08:24:44.000Z</time>
</trkpt>
<trkpt lat="30.8259810" lon="34.9164070">
<ele>247.299988</ele>
<time>2021-04-09T08:24:49.000Z</time>
</trkpt>
<trkpt lat="30.8258910" lon="34.9160880">
<ele>248.600006</ele>
<time>2021-04-09T08:25:07.000Z</time>
</trkpt>
<trkpt lat="30.8257970" lon="34.9158430">
<ele>249.200012</ele>
<time>2021-04-09T08:25:17.000Z</time>
</trkpt>
<trkpt lat="30.8255140" lon="34.9153780">
<ele>250.400009</ele>
<time>2021-04-09T08:25:38.000Z</time>
</trkpt>
<trkpt lat="30.8250340" lon="34.9141520">
<ele>251.500000</ele>
<time>2021-04-09T08:26:15.000Z</time>
</trkpt>
<trkpt lat="30.8249150" lon="34.9137780">
<ele>251.500000</ele>
<time>2021-04-09T08:26:26.000Z</time>
</trkpt>
<trkpt lat="30.8245730" lon="34.9129530">
<ele>251.400009</ele>
<time>2021-04-09T08:26:47.000Z</time>
</trkpt>
<trkpt lat="30.8244950" lon="34.9126840">
<ele>250.500000</ele>
<time>2021-04-09T08:26:55.000Z</time>
</trkpt>
<trkpt lat="30.8244410" lon="34.9124890">
<ele>249.900009</ele>
<time>2021-04-09T08:27:01.000Z</time>
</trkpt>
<trkpt lat="30.8244160" lon="34.9123390">
<ele>249.500015</ele>
<time>2021-04-09T08:27:06.000Z</time>
</trkpt>
<trkpt lat="30.8244190" lon="34.9122470">
<ele>249.099991</ele>
<time>2021-04-09T08:27:08.000Z</time>
</trkpt>
<trkpt lat="30.8243700" lon="34.9120500">
<ele>247.899994</ele>
<time>2021-04-09T08:27:14.000Z</time>
</trkpt>
<trkpt lat="30.8243140" lon="34.9116020">
<ele>244.599991</ele>
<time>2021-04-09T08:27:23.000Z</time>
</trkpt>
<trkpt lat="30.8243020" lon="34.9113750">
<ele>244.400009</ele>
<time>2021-04-09T08:27:25.000Z</time>
</trkpt>
<trkpt lat="30.8243050" lon="34.9111210">
<ele>245.300003</ele>
<time>2021-04-09T08:27:29.000Z</time>
</trkpt>
<trkpt lat="30.8242880" lon="34.9108650">
<ele>246.200012</ele>
<time>2021-04-09T08:27:35.000Z</time>
</trkpt>
<trkpt lat="30.8242510" lon="34.9106310">
<ele>247.000000</ele>
<time>2021-04-09T08:27:44.000Z</time>
</trkpt>
<trkpt lat="30.8242580" lon="34.9104050">
<ele>247.100006</ele>
<time>2021-04-09T08:27:52.000Z</time>
</trkpt>
<trkpt lat="30.8242330" lon="34.9099120">
<ele>247.700012</ele>
<time>2021-04-09T08:28:09.000Z</time>
</trkpt>
<trkpt lat="30.8242470" lon="34.9096620">
<ele>247.700012</ele>
<time>2021-04-09T08:28:16.000Z</time>
</trkpt>
<trkpt lat="30.8242920" lon="34.9093470">
<ele>247.100006</ele>
<time>2021-04-09T08:28:24.000Z</time>
</trkpt>
<trkpt lat="30.8242730" lon="34.9090760">
<ele>247.100006</ele>
<time>2021-04-09T08:28:30.000Z</time>
</trkpt>
<trkpt lat="30.8240320" lon="34.9083460">
<ele>248.300003</ele>
<time>2021-04-09T08:28:48.000Z</time>
</trkpt>
<trkpt lat="30.8236310" lon="34.9074860">
<ele>250.000000</ele>
<time>2021-04-09T08:29:16.000Z</time>
</trkpt>
<trkpt lat="30.8234900" lon="34.9068610">
<ele>250.300003</ele>
<time>2021-04-09T08:29:34.000Z</time>
</trkpt>
<trkpt lat="30.8234270" lon="34.9065460">
<ele>250.400009</ele>
<time>2021-04-09T08:29:42.000Z</time>
</trkpt>
<trkpt lat="30.8234070" lon="34.9063450">
<ele>250.400009</ele>
<time>2021-04-09T08:29:47.000Z</time>
</trkpt>
<trkpt lat="30.8233580" lon="34.9061370">
<ele>250.400009</ele>
<time>2021-04-09T08:29:53.000Z</time>
</trkpt>
<trkpt lat="30.8233560" lon="34.9060200">
<ele>250.599991</ele>
<time>2021-04-09T08:29:56.000Z</time>
</trkpt>
<trkpt lat="30.8233050" lon="34.9057550">
<ele>251.100006</ele>
<time>2021-04-09T08:30:03.000Z</time>
</trkpt>
<trkpt lat="30.8231040" lon="34.9050490">
<ele>251.800003</ele>
<time>2021-04-09T08:30:26.000Z</time>
</trkpt>
<trkpt lat="30.8230500" lon="34.9048790">
<ele>252.099991</ele>
<time>2021-04-09T08:30:32.000Z</time>
</trkpt>
<trkpt lat="30.8229810" lon="34.9047640">
<ele>252.399994</ele>
<time>2021-04-09T08:30:36.000Z</time>
</trkpt>
<trkpt lat="30.8228990" lon="34.9045360">
<ele>252.900009</ele>
<time>2021-04-09T08:30:43.000Z</time>
</trkpt>
<trkpt lat="30.8228180" lon="34.9042350">
<ele>253.399994</ele>
<time>2021-04-09T08:30:53.000Z</time>
</trkpt>
<trkpt lat="30.8227300" lon="34.9040870">
<ele>253.500000</ele>
<time>2021-04-09T08:30:59.000Z</time>
</trkpt>
<trkpt lat="30.8226050" lon="34.9038160">
<ele>253.699997</ele>
<time>2021-04-09T08:31:07.000Z</time>
</trkpt>
<trkpt lat="30.8224320" lon="34.9033390">
<ele>254.599991</ele>
<time>2021-04-09T08:31:21.000Z</time>
</trkpt>
<trkpt lat="30.8223110" lon="34.9031760">
<ele>255.100006</ele>
<time>2021-04-09T08:31:28.000Z</time>
</trkpt>
<trkpt lat="30.8222350" lon="34.9030020">
<ele>255.399994</ele>
<time>2021-04-09T08:31:33.000Z</time>
</trkpt>
<trkpt lat="30.8221310" lon="34.9027490">
<ele>255.699997</ele>
<time>2021-04-09T08:31:41.000Z</time>
</trkpt>
<trkpt lat="30.8219340" lon="34.9021040">
<ele>255.800003</ele>
<time>2021-04-09T08:32:00.000Z</time>
</trkpt>
<trkpt lat="30.8218910" lon="34.9018510">
<ele>254.400009</ele>
<time>2021-04-09T08:32:06.000Z</time>
</trkpt>
<trkpt lat="30.8219140" lon="34.9017530">
<ele>253.300003</ele>
<time>2021-04-09T08:32:08.000Z</time>
</trkpt>
<trkpt lat="30.8219770" lon="34.9016430">
<ele>251.800003</ele>
<time>2021-04-09T08:32:11.000Z</time>
</trkpt>
<trkpt lat="30.8222950" lon="34.9013170">
<ele>249.600006</ele>
<time>2021-04-09T08:32:16.000Z</time>
</trkpt>
<trkpt lat="30.8223310" lon="34.9012310">
<ele>249.500015</ele>
<time>2021-04-09T08:32:18.000Z</time>
</trkpt>
<trkpt lat="30.8224060" lon="34.9008760">
<ele>249.399994</ele>
<time>2021-04-09T08:32:28.000Z</time>
</trkpt>
<trkpt lat="30.8224840" lon="34.9006390">
<ele>249.399994</ele>
<time>2021-04-09T08:32:35.000Z</time>
</trkpt>
<trkpt lat="30.8225480" lon="34.9001980">
<ele>249.200012</ele>
<time>2021-04-09T08:32:48.000Z</time>
</trkpt>
<trkpt lat="30.8226320" lon="34.8998540">
<ele>249.699997</ele>
<time>2021-04-09T08:34:00.000Z</time>
</trkpt>
<trkpt lat="30.8226790" lon="34.8994050">
<ele>250.199997</ele>
<time>2021-04-09T08:34:11.000Z</time>
</trkpt>
<trkpt lat="30.8227080" lon="34.8992410">
<ele>250.199997</ele>
<time>2021-04-09T08:34:14.000Z</time>
</trkpt>
<trkpt lat="30.8228380" lon="34.8986990">
<ele>250.700012</ele>
<time>2021-04-09T08:34:24.000Z</time>
</trkpt>
<trkpt lat="30.8228440" lon="34.8985310">
<ele>251.100006</ele>
<time>2021-04-09T08:34:27.000Z</time>
</trkpt>
<trkpt lat="30.8230130" lon="34.8980280">
<ele>251.699997</ele>
<time>2021-04-09T08:34:38.000Z</time>
</trkpt>
<trkpt lat="30.8230850" lon="34.8975770">
<ele>252.199997</ele>
<time>2021-04-09T08:34:47.000Z</time>
</trkpt>
<trkpt lat="30.8230880" lon="34.8973060">
<ele>252.600006</ele>
<time>2021-04-09T08:34:52.000Z</time>
</trkpt>
<trkpt lat="30.8230410" lon="34.8969350">
<ele>253.099991</ele>
<time>2021-04-09T08:35:00.000Z</time>
</trkpt>
<trkpt lat="30.8229570" lon="34.8960710">
<ele>254.299988</ele>
<time>2021-04-09T08:35:23.000Z</time>
</trkpt>
<trkpt lat="30.8229330" lon="34.8959700">
<ele>254.400009</ele>
<time>2021-04-09T08:35:25.000Z</time>
</trkpt>
<trkpt lat="30.8227770" lon="34.8956200">
<ele>254.700012</ele>
<time>2021-04-09T08:35:33.000Z</time>
</trkpt>
<trkpt lat="30.8227430" lon="34.8955110">
<ele>254.899994</ele>
<time>2021-04-09T08:35:35.000Z</time>
</trkpt>
<trkpt lat="30.8225800" lon="34.8952430">
<ele>255.500000</ele>
<time>2021-04-09T08:35:42.000Z</time>
</trkpt>
<trkpt lat="30.8223950" lon="34.8948210">
<ele>256.000000</ele>
<time>2021-04-09T08:35:54.000Z</time>
</trkpt>
<trkpt lat="30.8223210" lon="34.8945570">
<ele>256.200012</ele>
<time>2021-04-09T08:36:02.000Z</time>
</trkpt>
<trkpt lat="30.8222850" lon="34.8944370">
<ele>256.299988</ele>
<time>2021-04-09T08:36:05.000Z</time>
</trkpt>
<trkpt lat="30.8222450" lon="34.8940930">
<ele>256.600006</ele>
<time>2021-04-09T08:36:15.000Z</time>
</trkpt>
<trkpt lat="30.8221670" lon="34.8937860">
<ele>256.699982</ele>
<time>2021-04-09T08:36:23.000Z</time>
</trkpt>
<trkpt lat="30.8220980" lon="34.8935790">
<ele>256.800018</ele>
<time>2021-04-09T08:36:30.000Z</time>
</trkpt>
<trkpt lat="30.8219470" lon="34.8932620">
<ele>257.200012</ele>
<time>2021-04-09T08:36:41.000Z</time>
</trkpt>
<trkpt lat="30.8219260" lon="34.8931370">
<ele>257.399994</ele>
<time>2021-04-09T08:36:45.000Z</time>
</trkpt>
<trkpt lat="30.8219370" lon="34.8928000">
<ele>258.500000</ele>
<time>2021-04-09T08:36:54.000Z</time>
</trkpt>
<trkpt lat="30.8218590" lon="34.8924210">
<ele>260.000000</ele>
<time>2021-04-09T08:37:03.000Z</time>
</trkpt>
<trkpt lat="30.8218370" lon="34.8923740">
<ele>260.100006</ele>
<time>2021-04-09T08:37:05.000Z</time>
</trkpt>
<trkpt lat="30.8216390" lon="34.8921650">
<ele>261.500000</ele>
<time>2021-04-09T08:37:15.000Z</time>
</trkpt>
<trkpt lat="30.8215670" lon="34.8920510">
<ele>262.000000</ele>
<time>2021-04-09T08:37:21.000Z</time>
</trkpt>
<trkpt lat="30.8212380" lon="34.8912840">
<ele>264.200012</ele>
<time>2021-04-09T08:37:52.000Z</time>
</trkpt>
<trkpt lat="30.8207820" lon="34.8904420">
<ele>265.200012</ele>
<time>2021-04-09T08:38:22.000Z</time>
</trkpt>
<trkpt lat="30.8205890" lon="34.8901480">
<ele>265.500000</ele>
<time>2021-04-09T08:38:33.000Z</time>
</trkpt>
<trkpt lat="30.8195690" lon="34.8890770">
<ele>267.699982</ele>
<time>2021-04-09T08:39:13.000Z</time>
</trkpt>
<trkpt lat="30.8193910" lon="34.8887720">
<ele>268.200012</ele>
<time>2021-04-09T08:39:25.000Z</time>
</trkpt>
<trkpt lat="30.8192860" lon="34.8884740">
<ele>267.600006</ele>
<time>2021-04-09T08:39:35.000Z</time>
</trkpt>
<trkpt lat="30.8192770" lon="34.8883020">
<ele>266.899994</ele>
<time>2021-04-09T08:39:41.000Z</time>
</trkpt>
<trkpt lat="30.8193000" lon="34.8881370">
<ele>265.799988</ele>
<time>2021-04-09T08:39:46.000Z</time>
</trkpt>
<trkpt lat="30.8193020" lon="34.8878000">
<ele>262.799988</ele>
<time>2021-04-09T08:39:53.000Z</time>
</trkpt>
<trkpt lat="30.8193560" lon="34.8876310">
<ele>262.199982</ele>
<time>2021-04-09T08:39:56.000Z</time>
</trkpt>
<trkpt lat="30.8195930" lon="34.8872300">
<ele>262.799988</ele>
<time>2021-04-09T08:40:06.000Z</time>
</trkpt>
<trkpt lat="30.8196200" lon="34.8871260">
<ele>262.899994</ele>
<time>2021-04-09T08:40:11.000Z</time>
</trkpt>
<trkpt lat="30.8196240" lon="34.8869160">
<ele>263.100006</ele>
<time>2021-04-09T08:40:20.000Z</time>
</trkpt>
<trkpt lat="30.8196890" lon="34.8866140">
<ele>263.600006</ele>
<time>2021-04-09T08:40:30.000Z</time>
</trkpt>
<trkpt lat="30.8197840" lon="34.8862620">
<ele>263.899994</ele>
<time>2021-04-09T08:40:40.000Z</time>
</trkpt>
<trkpt lat="30.8198500" lon="34.8859290">
<ele>263.700012</ele>
<time>2021-04-09T08:40:50.000Z</time>
</trkpt>
<trkpt lat="30.8199770" lon="34.8856920">
<ele>263.799988</ele>
<time>2021-04-09T08:40:58.000Z</time>
</trkpt>
<trkpt lat="30.8200900" lon="34.8854280">
<ele>264.200012</ele>
<time>2021-04-09T08:41:06.000Z</time>
</trkpt>
<trkpt lat="30.8201020" lon="34.8853290">
<ele>264.299988</ele>
<time>2021-04-09T08:41:08.000Z</time>
</trkpt>
<trkpt lat="30.8201070" lon="34.8848580">
<ele>265.100006</ele>
<time>2021-04-09T08:41:20.000Z</time>
</trkpt>
<trkpt lat="30.8202470" lon="34.8843080">
<ele>266.399994</ele>
<time>2021-04-09T08:41:38.000Z</time>
</trkpt>
<trkpt lat="30.8203390" lon="34.8835560">
<ele>267.600006</ele>
<time>2021-04-09T08:42:03.000Z</time>
</trkpt>
<trkpt lat="30.8204160" lon="34.8831230">
<ele>268.200012</ele>
<time>2021-04-09T08:42:16.000Z</time>
</trkpt>
<trkpt lat="30.8204870" lon="34.8828210">
<ele>268.700012</ele>
<time>2021-04-09T08:42:25.000Z</time>
</trkpt>
<trkpt lat="30.8205940" lon="34.8821880">
<ele>270.100006</ele>
<time>2021-04-09T08:42:46.000Z</time>
</trkpt>
<trkpt lat="30.8206440" lon="34.8819610">
<ele>270.399994</ele>
<time>2021-04-09T08:42:53.000Z</time>
</trkpt>
<trkpt lat="30.8207340" lon="34.8813730">
<ele>271.299988</ele>
<time>2021-04-09T08:43:11.000Z</time>
</trkpt>
<trkpt lat="30.8208030" lon="34.8810320">
<ele>271.600006</ele>
<time>2021-04-09T08:43:22.000Z</time>
</trkpt>
<trkpt lat="30.8209730" lon="34.8803350">
<ele>272.000000</ele>
<time>2021-04-09T08:43:44.000Z</time>
</trkpt>
<trkpt lat="30.8210140" lon="34.8802090">
<ele>272.100006</ele>
<time>2021-04-09T08:43:48.000Z</time>
</trkpt>
<trkpt lat="30.8210810" lon="34.8798690">
<ele>271.600006</ele>
<time>2021-04-09T08:43:58.000Z</time>
</trkpt>
<trkpt lat="30.8211690" lon="34.8796480">
<ele>271.800018</ele>
<time>2021-04-09T08:44:04.000Z</time>
</trkpt>
<trkpt lat="30.8213620" lon="34.8789050">
<ele>273.100006</ele>
<time>2021-04-09T08:44:25.000Z</time>
</trkpt>
<trkpt lat="30.8213860" lon="34.8788150">
<ele>273.300018</ele>
<time>2021-04-09T08:44:27.000Z</time>
</trkpt>
<trkpt lat="30.8214460" lon="34.8782850">
<ele>274.000000</ele>
<time>2021-04-09T08:44:41.000Z</time>
</trkpt>
<trkpt lat="30.8214940" lon="34.8780900">
<ele>274.399994</ele>
<time>2021-04-09T08:44:47.000Z</time>
</trkpt>
<trkpt lat="30.8215300" lon="34.8775990">
<ele>275.200012</ele>
<time>2021-04-09T08:45:00.000Z</time>
</trkpt>
<trkpt lat="30.8216320" lon="34.8770270">
<ele>275.500000</ele>
<time>2021-04-09T08:45:15.000Z</time>
</trkpt>
<trkpt lat="30.8217960" lon="34.8765690">
<ele>277.399994</ele>
<time>2021-04-09T08:45:28.000Z</time>
</trkpt>
<trkpt lat="30.8218260" lon="34.8763150">
<ele>278.399994</ele>
<time>2021-04-09T08:45:35.000Z</time>
</trkpt>
<trkpt lat="30.8218240" lon="34.8762680">
<ele>278.500000</ele>
<time>2021-04-09T08:45:36.000Z</time>
</trkpt>
<trkpt lat="30.8220600" lon="34.8751280">
<ele>279.700012</ele>
<time>2021-04-09T08:46:13.000Z</time>
</trkpt>
<trkpt lat="30.8221160" lon="34.8748280">
<ele>279.899994</ele>
<time>2021-04-09T08:46:22.000Z</time>
</trkpt>
<trkpt lat="30.8221990" lon="34.8741000">
<ele>281.800018</ele>
<time>2021-04-09T08:46:44.000Z</time>
</trkpt>
<trkpt lat="30.8222150" lon="34.8738430">
<ele>282.699982</ele>
<time>2021-04-09T08:46:53.000Z</time>
</trkpt>
<trkpt lat="30.8221580" lon="34.8735340">
<ele>283.299988</ele>
<time>2021-04-09T08:47:03.000Z</time>
</trkpt>
<trkpt lat="30.8221430" lon="34.8733620">
<ele>283.799988</ele>
<time>2021-04-09T08:47:09.000Z</time>
</trkpt>
<trkpt lat="30.8221690" lon="34.8729480">
<ele>285.100006</ele>
<time>2021-04-09T08:47:24.000Z</time>
</trkpt>
<trkpt lat="30.8221770" lon="34.8726560">
<ele>285.500000</ele>
<time>2021-04-09T08:47:33.000Z</time>
</trkpt>
<trkpt lat="30.8221620" lon="34.8723800">
<ele>286.100006</ele>
<time>2021-04-09T08:47:44.000Z</time>
</trkpt>
<trkpt lat="30.8221740" lon="34.8722270">
<ele>286.600006</ele>
<time>2021-04-09T08:47:49.000Z</time>
</trkpt>
<trkpt lat="30.8222070" lon="34.8720290">
<ele>287.199982</ele>
<time>2021-04-09T08:47:56.000Z</time>
</trkpt>
<trkpt lat="30.8222150" lon="34.8718050">
<ele>287.899994</ele>
<time>2021-04-09T08:48:05.000Z</time>
</trkpt>
<trkpt lat="30.8221950" lon="34.8711830">
<ele>290.299988</ele>
<time>2021-04-09T08:48:28.000Z</time>
</trkpt>
<trkpt lat="30.8222120" lon="34.8709500">
<ele>290.799988</ele>
<time>2021-04-09T08:48:37.000Z</time>
</trkpt>
<trkpt lat="30.8222910" lon="34.8706850">
<ele>292.100006</ele>
<time>2021-04-09T08:48:49.000Z</time>
</trkpt>
<trkpt lat="30.8222880" lon="34.8705570">
<ele>292.800018</ele>
<time>2021-04-09T08:48:55.000Z</time>
</trkpt>
<trkpt lat="30.8222990" lon="34.8705130">
<ele>293.100006</ele>
<time>2021-04-09T08:48:58.000Z</time>
</trkpt>
<trkpt lat="30.8222870" lon="34.8704720">
<ele>293.299988</ele>
<time>2021-04-09T08:49:01.000Z</time>
</trkpt>
<trkpt lat="30.8223990" lon="34.8699790">
<ele>294.399994</ele>
<time>2021-04-09T08:49:38.000Z</time>
</trkpt>
<trkpt lat="30.8223980" lon="34.8698520">
<ele>294.600006</ele>
<time>2021-04-09T08:49:45.000Z</time>
</trkpt>
<trkpt lat="30.8224330" lon="34.8695140">
<ele>296.100006</ele>
<time>2021-04-09T08:50:04.000Z</time>
</trkpt>
<trkpt lat="30.8224330" lon="34.8690080">
<ele>299.200012</ele>
<time>2021-04-09T08:50:32.000Z</time>
</trkpt>
<trkpt lat="30.8224030" lon="34.8688270">
<ele>300.200012</ele>
<time>2021-04-09T08:50:42.000Z</time>
</trkpt>
<trkpt lat="30.8224130" lon="34.8686430">
<ele>300.799988</ele>
<time>2021-04-09T08:50:51.000Z</time>
</trkpt>
<trkpt lat="30.8224680" lon="34.8683330">
<ele>300.899994</ele>
<time>2021-04-09T08:51:08.000Z</time>
</trkpt>
<trkpt lat="30.8224690" lon="34.8683560">
<ele>301.000000</ele>
<time>2021-04-09T08:51:13.000Z</time>
</trkpt>
<trkpt lat="30.8224890" lon="34.8682000">
<ele>301.199982</ele>
<time>2021-04-09T08:54:12.000Z</time>
</trkpt>
<trkpt lat="30.8225290" lon="34.8680040">
<ele>301.700012</ele>
<time>2021-04-09T08:54:19.000Z</time>
</trkpt>
<trkpt lat="30.8225930" lon="34.8678080">
<ele>302.100006</ele>
<time>2021-04-09T08:54:27.000Z</time>
</trkpt>
<trkpt lat="30.8226700" lon="34.8672250">
<ele>303.200012</ele>
<time>2021-04-09T08:54:47.000Z</time>
</trkpt>
<trkpt lat="30.8226520" lon="34.8663330">
<ele>303.899994</ele>
<time>2021-04-09T08:55:18.000Z</time>
</trkpt>
<trkpt lat="30.8227010" lon="34.8659210">
<ele>304.899994</ele>
<time>2021-04-09T08:55:32.000Z</time>
</trkpt>
<trkpt lat="30.8227680" lon="34.8651960">
<ele>305.899994</ele>
<time>2021-04-09T08:55:59.000Z</time>
</trkpt>
<trkpt lat="30.8228100" lon="34.8634660">
<ele>309.100006</ele>
<time>2021-04-09T08:56:58.000Z</time>
</trkpt>
<trkpt lat="30.8227800" lon="34.8632510">
<ele>309.300018</ele>
<time>2021-04-09T08:57:04.000Z</time>
</trkpt>
<trkpt lat="30.8226530" lon="34.8628500">
<ele>309.799988</ele>
<time>2021-04-09T08:57:17.000Z</time>
</trkpt>
<trkpt lat="30.8225750" lon="34.8625710">
<ele>310.399994</ele>
<time>2021-04-09T08:57:27.000Z</time>
</trkpt>
<trkpt lat="30.8225170" lon="34.8622010">
<ele>311.299988</ele>
<time>2021-04-09T08:57:39.000Z</time>
</trkpt>
<trkpt lat="30.8224410" lon="34.8619650">
<ele>311.600006</ele>
<time>2021-04-09T08:57:47.000Z</time>
</trkpt>
<trkpt lat="30.8223680" lon="34.8618370">
<ele>311.799988</ele>
<time>2021-04-09T08:57:52.000Z</time>
</trkpt>
<trkpt lat="30.8221300" lon="34.8615110">
<ele>312.500000</ele>
<time>2021-04-09T08:58:06.000Z</time>
</trkpt>
<trkpt lat="30.8217230" lon="34.8610980">
<ele>312.300018</ele>
<time>2021-04-09T08:58:24.000Z</time>
</trkpt>
<trkpt lat="30.8215840" lon="34.8608790">
<ele>312.699982</ele>
<time>2021-04-09T08:58:31.000Z</time>
</trkpt>
<trkpt lat="30.8215420" lon="34.8607700">
<ele>312.699982</ele>
<time>2021-04-09T08:58:35.000Z</time>
</trkpt>
<trkpt lat="30.8215170" lon="34.8605930">
<ele>312.399994</ele>
<time>2021-04-09T08:58:41.000Z</time>
</trkpt>
<trkpt lat="30.8215280" lon="34.8603390">
<ele>312.000000</ele>
<time>2021-04-09T08:58:48.000Z</time>
</trkpt>
<trkpt lat="30.8215720" lon="34.8601060">
<ele>312.000000</ele>
<time>2021-04-09T08:58:55.000Z</time>
</trkpt>
<trkpt lat="30.8216010" lon="34.8595030">
<ele>312.899994</ele>
<time>2021-04-09T08:59:15.000Z</time>
</trkpt>
<trkpt lat="30.8218620" lon="34.8582700">
<ele>311.899994</ele>
<time>2021-04-09T08:59:55.000Z</time>
</trkpt>
<trkpt lat="30.8218950" lon="34.8578910">
<ele>312.600006</ele>
<time>2021-04-09T09:00:04.000Z</time>
</trkpt>
<trkpt lat="30.8219410" lon="34.8577090">
<ele>312.799988</ele>
<time>2021-04-09T09:00:08.000Z</time>
</trkpt>
<trkpt lat="30.8220000" lon="34.8575550">
<ele>312.999969</ele>
<time>2021-04-09T09:00:14.000Z</time>
</trkpt>
<trkpt lat="30.8220250" lon="34.8572580">
<ele>313.299988</ele>
<time>2021-04-09T09:00:22.000Z</time>
</trkpt>
<trkpt lat="30.8220900" lon="34.8570310">
<ele>313.299988</ele>
<time>2021-04-09T09:00:30.000Z</time>
</trkpt>
<trkpt lat="30.8221710" lon="34.8565320">
<ele>311.299988</ele>
<time>2021-04-09T09:00:48.000Z</time>
</trkpt>
<trkpt lat="30.8221870" lon="34.8563100">
<ele>310.899994</ele>
<time>2021-04-09T09:00:53.000Z</time>
</trkpt>
<trkpt lat="30.8222760" lon="34.8557660">
<ele>310.600006</ele>
<time>2021-04-09T09:01:04.000Z</time>
</trkpt>
<trkpt lat="30.8222910" lon="34.8555020">
<ele>310.500000</ele>
<time>2021-04-09T09:01:10.000Z</time>
</trkpt>
<trkpt lat="30.8222560" lon="34.8550790">
<ele>310.699982</ele>
<time>2021-04-09T09:01:20.000Z</time>
</trkpt>
<trkpt lat="30.8223310" lon="34.8546280">
<ele>311.399994</ele>
<time>2021-04-09T09:01:32.000Z</time>
</trkpt>
<trkpt lat="30.8223710" lon="34.8542240">
<ele>311.799988</ele>
<time>2021-04-09T09:01:44.000Z</time>
</trkpt>
<trkpt lat="30.8224200" lon="34.8539650">
<ele>312.300018</ele>
<time>2021-04-09T09:01:53.000Z</time>
</trkpt>
<trkpt lat="30.8224010" lon="34.8539010">
<ele>312.399994</ele>
<time>2021-04-09T09:01:55.000Z</time>
</trkpt>
<trkpt lat="30.8224440" lon="34.8538720">
<ele>312.399994</ele>
<time>2021-04-09T09:01:59.000Z</time>
</trkpt>
<trkpt lat="30.8224550" lon="34.8538060">
<ele>312.500000</ele>
<time>2021-04-09T09:02:03.000Z</time>
</trkpt>
<trkpt lat="30.8224550" lon="34.8536860">
<ele>312.500000</ele>
<time>2021-04-09T09:02:08.000Z</time>
</trkpt>
<trkpt lat="30.8224290" lon="34.8535750">
<ele>312.600006</ele>
<time>2021-04-09T09:02:11.000Z</time>
</trkpt>
<trkpt lat="30.8224280" lon="34.8532220">
<ele>312.999969</ele>
<time>2021-04-09T09:02:22.000Z</time>
</trkpt>
<trkpt lat="30.8223840" lon="34.8530210">
<ele>313.100006</ele>
<time>2021-04-09T09:02:29.000Z</time>
</trkpt>
<trkpt lat="30.8223980" lon="34.8528540">
<ele>313.200012</ele>
<time>2021-04-09T09:02:35.000Z</time>
</trkpt>
<trkpt lat="30.8224790" lon="34.8524840">
<ele>313.299988</ele>
<time>2021-04-09T09:02:47.000Z</time>
</trkpt>
<trkpt lat="30.8226160" lon="34.8514910">
<ele>314.000000</ele>
<time>2021-04-09T09:03:17.000Z</time>
</trkpt>
<trkpt lat="30.8226340" lon="34.8512370">
<ele>314.700012</ele>
<time>2021-04-09T09:03:24.000Z</time>
</trkpt>
<trkpt lat="30.8226810" lon="34.8509580">
<ele>315.099976</ele>
<time>2021-04-09T09:03:32.000Z</time>
</trkpt>
<trkpt lat="30.8226900" lon="34.8507850">
<ele>315.600006</ele>
<time>2021-04-09T09:03:37.000Z</time>
</trkpt>
<trkpt lat="30.8227400" lon="34.8505130">
<ele>317.100006</ele>
<time>2021-04-09T09:03:45.000Z</time>
</trkpt>
<trkpt lat="30.8227750" lon="34.8502100">
<ele>319.399994</ele>
<time>2021-04-09T09:03:55.000Z</time>
</trkpt>
<trkpt lat="30.8227420" lon="34.8500590">
<ele>320.299988</ele>
<time>2021-04-09T09:04:02.000Z</time>
</trkpt>
<trkpt lat="30.8227850" lon="34.8497620">
<ele>321.300018</ele>
<time>2021-04-09T09:04:19.000Z</time>
</trkpt>
<trkpt lat="30.8227950" lon="34.8497730">
<ele>321.300018</ele>
<time>2021-04-09T09:04:27.000Z</time>
</trkpt>
<trkpt lat="30.8227950" lon="34.8497460">
<ele>321.300018</ele>
<time>2021-04-09T09:12:14.000Z</time>
</trkpt>
<trkpt lat="30.8229780" lon="34.8496610">
<ele>321.399994</ele>
<time>2021-04-09T09:12:28.000Z</time>
</trkpt>
<trkpt lat="30.8231270" lon="34.8496120">
<ele>321.500000</ele>
<time>2021-04-09T09:12:34.000Z</time>
</trkpt>
<trkpt lat="30.8235490" lon="34.8493910">
<ele>321.600006</ele>
<time>2021-04-09T09:12:49.000Z</time>
</trkpt>
<trkpt lat="30.8237610" lon="34.8492620">
<ele>321.900024</ele>
<time>2021-04-09T09:12:55.000Z</time>
</trkpt>
<trkpt lat="30.8239230" lon="34.8491950">
<ele>322.299988</ele>
<time>2021-04-09T09:12:59.000Z</time>
</trkpt>
<trkpt lat="30.8244850" lon="34.8488340">
<ele>323.500000</ele>
<time>2021-04-09T09:13:15.000Z</time>
</trkpt>
<trkpt lat="30.8246870" lon="34.8486740">
<ele>323.600006</ele>
<time>2021-04-09T09:13:23.000Z</time>
</trkpt>
<trkpt lat="30.8252460" lon="34.8483260">
<ele>324.299988</ele>
<time>2021-04-09T09:13:38.000Z</time>
</trkpt>
<trkpt lat="30.8256060" lon="34.8481210">
<ele>322.600006</ele>
<time>2021-04-09T09:13:50.000Z</time>
</trkpt>
<trkpt lat="30.8259950" lon="34.8477910">
<ele>320.500000</ele>
<time>2021-04-09T09:13:58.000Z</time>
</trkpt>
<trkpt lat="30.8265800" lon="34.8471910">
<ele>322.299988</ele>
<time>2021-04-09T09:14:14.000Z</time>
</trkpt>
<trkpt lat="30.8265960" lon="34.8472510">
<ele>322.299988</ele>
<time>2021-04-09T09:14:15.000Z</time>
</trkpt>
<trkpt lat="30.8270450" lon="34.8466680">
<ele>321.200012</ele>
<time>2021-04-09T09:14:30.000Z</time>
</trkpt>
<trkpt lat="30.8273740" lon="34.8463470">
<ele>321.600006</ele>
<time>2021-04-09T09:14:39.000Z</time>
</trkpt>
<trkpt lat="30.8282110" lon="34.8454060">
<ele>321.600006</ele>
<time>2021-04-09T09:15:06.000Z</time>
</trkpt>
<trkpt lat="30.8286750" lon="34.8449110">
<ele>324.699982</ele>
<time>2021-04-09T09:15:20.000Z</time>
</trkpt>
<trkpt lat="30.8287300" lon="34.8448630">
<ele>325.399994</ele>
<time>2021-04-09T09:15:23.000Z</time>
</trkpt>
<trkpt lat="30.8287700" lon="34.8448580">
<ele>325.799988</ele>
<time>2021-04-09T09:15:25.000Z</time>
</trkpt>
<trkpt lat="30.8289750" lon="34.8446270">
<ele>327.800018</ele>
<time>2021-04-09T09:15:39.000Z</time>
</trkpt>
<trkpt lat="30.8291880" lon="34.8443000">
<ele>325.799988</ele>
<time>2021-04-09T09:15:55.000Z</time>
</trkpt>
<trkpt lat="30.8295300" lon="34.8436830">
<ele>323.400024</ele>
<time>2021-04-09T09:16:03.000Z</time>
</trkpt>
<trkpt lat="30.8297780" lon="34.8434100">
<ele>324.100006</ele>
<time>2021-04-09T09:16:08.000Z</time>
</trkpt>
<trkpt lat="30.8301510" lon="34.8429130">
<ele>325.399994</ele>
<time>2021-04-09T09:16:18.000Z</time>
</trkpt>
<trkpt lat="30.8303950" lon="34.8424960">
<ele>329.000000</ele>
<time>2021-04-09T09:16:30.000Z</time>
</trkpt>
<trkpt lat="30.8303920" lon="34.8424660">
<ele>329.200012</ele>
<time>2021-04-09T09:16:31.000Z</time>
</trkpt>
<trkpt lat="30.8306070" lon="34.8421860">
<ele>330.399994</ele>
<time>2021-04-09T09:16:44.000Z</time>
</trkpt>
<trkpt lat="30.8306660" lon="34.8420840">
<ele>330.599976</ele>
<time>2021-04-09T09:16:48.000Z</time>
</trkpt>
<trkpt lat="30.8306940" lon="34.8419300">
<ele>330.899994</ele>
<time>2021-04-09T09:16:52.000Z</time>
</trkpt>
<trkpt lat="30.8308020" lon="34.8417460">
<ele>331.100006</ele>
<time>2021-04-09T09:16:58.000Z</time>
</trkpt>
<trkpt lat="30.8309370" lon="34.8415400">
<ele>331.700012</ele>
<time>2021-04-09T09:17:05.000Z</time>
</trkpt>
<trkpt lat="30.8311810" lon="34.8412600">
<ele>332.399994</ele>
<time>2021-04-09T09:17:17.000Z</time>
</trkpt>
<trkpt lat="30.8316080" lon="34.8405390">
<ele>331.100006</ele>
<time>2021-04-09T09:17:40.000Z</time>
</trkpt>
<trkpt lat="30.8318690" lon="34.8401640">
<ele>330.500000</ele>
<time>2021-04-09T09:17:46.000Z</time>
</trkpt>
<trkpt lat="30.8323490" lon="34.8393940">
<ele>331.400024</ele>
<time>2021-04-09T09:18:05.000Z</time>
</trkpt>
<trkpt lat="30.8327420" lon="34.8388690">
<ele>333.500031</ele>
<time>2021-04-09T09:18:22.000Z</time>
</trkpt>
<trkpt lat="30.8329220" lon="34.8385940">
<ele>333.800018</ele>
<time>2021-04-09T09:18:30.000Z</time>
</trkpt>
<trkpt lat="30.8330720" lon="34.8383190">
<ele>332.799988</ele>
<time>2021-04-09T09:18:40.000Z</time>
</trkpt>
<trkpt lat="30.8333990" lon="34.8378820">
<ele>333.600006</ele>
<time>2021-04-09T09:18:47.000Z</time>
</trkpt>
<trkpt lat="30.8334380" lon="34.8377780">
<ele>334.000000</ele>
<time>2021-04-09T09:18:50.000Z</time>
</trkpt>
<trkpt lat="30.8337670" lon="34.8372790">
<ele>335.600006</ele>
<time>2021-04-09T09:19:03.000Z</time>
</trkpt>
<trkpt lat="30.8339400" lon="34.8370710">
<ele>336.799988</ele>
<time>2021-04-09T09:19:14.000Z</time>
</trkpt>
<trkpt lat="30.8350310" lon="34.8354740">
<ele>331.799988</ele>
<time>2021-04-09T09:19:54.000Z</time>
</trkpt>
<trkpt lat="30.8356520" lon="34.8344740">
<ele>330.599976</ele>
<time>2021-04-09T09:20:10.000Z</time>
</trkpt>
<trkpt lat="30.8359380" lon="34.8339720">
<ele>332.500000</ele>
<time>2021-04-09T09:20:23.000Z</time>
</trkpt>
<trkpt lat="30.8358970" lon="34.8339470">
<ele>332.600006</ele>
<time>2021-04-09T09:20:25.000Z</time>
</trkpt>
<trkpt lat="30.8362910" lon="34.8334440">
<ele>333.899994</ele>
<time>2021-04-09T09:20:37.000Z</time>
</trkpt>
<trkpt lat="30.8368370" lon="34.8328410">
<ele>335.200012</ele>
<time>2021-04-09T09:21:02.000Z</time>
</trkpt>
<trkpt lat="30.8372500" lon="34.8322210">
<ele>337.799988</ele>
<time>2021-04-09T09:21:31.000Z</time>
</trkpt>
<trkpt lat="30.8379050" lon="34.8313370">
<ele>337.099976</ele>
<time>2021-04-09T09:22:00.000Z</time>
</trkpt>
<trkpt lat="30.8382990" lon="34.8308810">
<ele>336.500031</ele>
<time>2021-04-09T09:22:15.000Z</time>
</trkpt>
<trkpt lat="30.8389910" lon="34.8300000">
<ele>334.700012</ele>
<time>2021-04-09T09:22:35.000Z</time>
</trkpt>
<trkpt lat="30.8394080" lon="34.8295070">
<ele>334.700012</ele>
<time>2021-04-09T09:22:49.000Z</time>
</trkpt>
<trkpt lat="30.8394300" lon="34.8295180">
<ele>334.799988</ele>
<time>2021-04-09T09:22:50.000Z</time>
</trkpt>
<trkpt lat="30.8398100" lon="34.8289410">
<ele>333.800018</ele>
<time>2021-04-09T09:23:05.000Z</time>
</trkpt>
<trkpt lat="30.8402900" lon="34.8283090">
<ele>333.800018</ele>
<time>2021-04-09T09:23:22.000Z</time>
</trkpt>
<trkpt lat="30.8404340" lon="34.8281830">
<ele>333.399994</ele>
<time>2021-04-09T09:23:26.000Z</time>
</trkpt>
<trkpt lat="30.8405270" lon="34.8280070">
<ele>333.000000</ele>
<time>2021-04-09T09:23:30.000Z</time>
</trkpt>
<trkpt lat="30.8408480" lon="34.8275300">
<ele>331.600006</ele>
<time>2021-04-09T09:23:41.000Z</time>
</trkpt>
<trkpt lat="30.8414890" lon="34.8267970">
<ele>331.500000</ele>
<time>2021-04-09T09:23:57.000Z</time>
</trkpt>
<trkpt lat="30.8422280" lon="34.8258700">
<ele>328.000000</ele>
<time>2021-04-09T09:24:20.000Z</time>
</trkpt>
<trkpt lat="30.8426650" lon="34.8252700">
<ele>328.500000</ele>
<time>2021-04-09T09:24:32.000Z</time>
</trkpt>
<trkpt lat="30.8431770" lon="34.8246270">
<ele>331.899994</ele>
<time>2021-04-09T09:24:51.000Z</time>
</trkpt>
<trkpt lat="30.8431770" lon="34.8245770">
<ele>332.000000</ele>
<time>2021-04-09T09:24:53.000Z</time>
</trkpt>
<trkpt lat="30.8434080" lon="34.8243470">
<ele>332.900024</ele>
<time>2021-04-09T09:25:01.000Z</time>
</trkpt>
<trkpt lat="30.8441200" lon="34.8234600">
<ele>328.299988</ele>
<time>2021-04-09T09:25:31.000Z</time>
</trkpt>
<trkpt lat="30.8442070" lon="34.8232480">
<ele>327.599976</ele>
<time>2021-04-09T09:25:34.000Z</time>
</trkpt>
<trkpt lat="30.8441920" lon="34.8231140">
<ele>326.900024</ele>
<time>2021-04-09T09:25:36.000Z</time>
</trkpt>
<trkpt lat="30.8440900" lon="34.8228740">
<ele>325.700012</ele>
<time>2021-04-09T09:25:40.000Z</time>
</trkpt>
<trkpt lat="30.8440610" lon="34.8223360">
<ele>324.299988</ele>
<time>2021-04-09T09:25:48.000Z</time>
</trkpt>
<trkpt lat="30.8440320" lon="34.8222290">
<ele>324.200012</ele>
<time>2021-04-09T09:25:50.000Z</time>
</trkpt>
<trkpt lat="30.8438360" lon="34.8216900">
<ele>324.299988</ele>
<time>2021-04-09T09:26:01.000Z</time>
</trkpt>
<trkpt lat="30.8438630" lon="34.8214660">
<ele>324.100006</ele>
<time>2021-04-09T09:26:05.000Z</time>
</trkpt>
<trkpt lat="30.8438220" lon="34.8212370">
<ele>324.200012</ele>
<time>2021-04-09T09:26:09.000Z</time>
</trkpt>
<trkpt lat="30.8437650" lon="34.8210960">
<ele>324.299988</ele>
<time>2021-04-09T09:26:13.000Z</time>
</trkpt>
<trkpt lat="30.8436970" lon="34.8207520">
<ele>324.399994</ele>
<time>2021-04-09T09:26:20.000Z</time>
</trkpt>
<trkpt lat="30.8436660" lon="34.8205150">
<ele>324.500000</ele>
<time>2021-04-09T09:26:25.000Z</time>
</trkpt>
<trkpt lat="30.8436730" lon="34.8202110">
<ele>324.899994</ele>
<time>2021-04-09T09:26:31.000Z</time>
</trkpt>
<trkpt lat="30.8435930" lon="34.8198860">
<ele>325.399994</ele>
<time>2021-04-09T09:26:39.000Z</time>
</trkpt>
<trkpt lat="30.8435170" lon="34.8197580">
<ele>325.499969</ele>
<time>2021-04-09T09:26:43.000Z</time>
</trkpt>
<trkpt lat="30.8434710" lon="34.8197250">
<ele>325.600006</ele>
<time>2021-04-09T09:26:45.000Z</time>
</trkpt>
<trkpt lat="30.8434180" lon="34.8197280">
<ele>325.700012</ele>
<time>2021-04-09T09:26:46.000Z</time>
</trkpt>
<trkpt lat="30.8433020" lon="34.8195860">
<ele>325.899994</ele>
<time>2021-04-09T09:26:51.000Z</time>
</trkpt>
<trkpt lat="30.8432510" lon="34.8194570">
<ele>326.000000</ele>
<time>2021-04-09T09:26:55.000Z</time>
</trkpt>
<trkpt lat="30.8432030" lon="34.8190260">
<ele>326.399994</ele>
<time>2021-04-09T09:27:06.000Z</time>
</trkpt>
<trkpt lat="30.8430760" lon="34.8186840">
<ele>326.600006</ele>
<time>2021-04-09T09:27:15.000Z</time>
</trkpt>
<trkpt lat="30.8429720" lon="34.8183020">
<ele>326.999969</ele>
<time>2021-04-09T09:27:25.000Z</time>
</trkpt>
<trkpt lat="30.8428170" lon="34.8179400">
<ele>327.899994</ele>
<time>2021-04-09T09:27:34.000Z</time>
</trkpt>
<trkpt lat="30.8427670" lon="34.8178870">
<ele>328.100006</ele>
<time>2021-04-09T09:27:36.000Z</time>
</trkpt>
<trkpt lat="30.8425730" lon="34.8177790">
<ele>328.600006</ele>
<time>2021-04-09T09:27:43.000Z</time>
</trkpt>
<trkpt lat="30.8425040" lon="34.8177070">
<ele>328.799988</ele>
<time>2021-04-09T09:27:46.000Z</time>
</trkpt>
<trkpt lat="30.8423800" lon="34.8174430">
<ele>329.500000</ele>
<time>2021-04-09T09:27:53.000Z</time>
</trkpt>
<trkpt lat="30.8420320" lon="34.8168940">
<ele>329.699982</ele>
<time>2021-04-09T09:28:11.000Z</time>
</trkpt>
<trkpt lat="30.8418960" lon="34.8165710">
<ele>329.799988</ele>
<time>2021-04-09T09:28:17.000Z</time>
</trkpt>
<trkpt lat="30.8416090" lon="34.8161810">
<ele>330.800018</ele>
<time>2021-04-09T09:28:28.000Z</time>
</trkpt>
<trkpt lat="30.8414530" lon="34.8160120">
<ele>331.299988</ele>
<time>2021-04-09T09:28:34.000Z</time>
</trkpt>
<trkpt lat="30.8410770" lon="34.8154530">
<ele>332.099976</ele>
<time>2021-04-09T09:28:50.000Z</time>
</trkpt>
<trkpt lat="30.8409020" lon="34.8152350">
<ele>332.399994</ele>
<time>2021-04-09T09:28:57.000Z</time>
</trkpt>
<trkpt lat="30.8403690" lon="34.8147830">
<ele>333.700012</ele>
<time>2021-04-09T09:29:16.000Z</time>
</trkpt>
<trkpt lat="30.8403300" lon="34.8147410">
<ele>333.800018</ele>
<time>2021-04-09T09:29:18.000Z</time>
</trkpt>
<trkpt lat="30.8402240" lon="34.8144960">
<ele>334.199982</ele>
<time>2021-04-09T09:29:26.000Z</time>
</trkpt>
<trkpt lat="30.8396370" lon="34.8136960">
<ele>335.300018</ele>
<time>2021-04-09T09:29:52.000Z</time>
</trkpt>
<trkpt lat="30.8395350" lon="34.8135660">
<ele>335.600006</ele>
<time>2021-04-09T09:29:56.000Z</time>
</trkpt>
<trkpt lat="30.8392560" lon="34.8133560">
<ele>336.399994</ele>
<time>2021-04-09T09:30:05.000Z</time>
</trkpt>
<trkpt lat="30.8391550" lon="34.8131690">
<ele>336.600006</ele>
<time>2021-04-09T09:30:10.000Z</time>
</trkpt>
<trkpt lat="30.8389550" lon="34.8126560">
<ele>337.500000</ele>
<time>2021-04-09T09:30:24.000Z</time>
</trkpt>
<trkpt lat="30.8385440" lon="34.8121160">
<ele>339.000000</ele>
<time>2021-04-09T09:30:44.000Z</time>
</trkpt>
<trkpt lat="30.8382580" lon="34.8119760">
<ele>339.899994</ele>
<time>2021-04-09T09:30:54.000Z</time>
</trkpt>
<trkpt lat="30.8379470" lon="34.8119160">
<ele>340.600006</ele>
<time>2021-04-09T09:31:05.000Z</time>
</trkpt>
<trkpt lat="30.8377160" lon="34.8118350">
<ele>340.900024</ele>
<time>2021-04-09T09:31:12.000Z</time>
</trkpt>
<trkpt lat="30.8373480" lon="34.8116280">
<ele>339.499969</ele>
<time>2021-04-09T09:31:23.000Z</time>
</trkpt>
<trkpt lat="30.8371250" lon="34.8114140">
<ele>338.299988</ele>
<time>2021-04-09T09:31:28.000Z</time>
</trkpt>
<trkpt lat="30.8369580" lon="34.8113230">
<ele>338.100006</ele>
<time>2021-04-09T09:31:31.000Z</time>
</trkpt>
<trkpt lat="30.8367710" lon="34.8112870">
<ele>337.999969</ele>
<time>2021-04-09T09:31:36.000Z</time>
</trkpt>
<trkpt lat="30.8365640" lon="34.8112920">
<ele>337.699982</ele>
<time>2021-04-09T09:31:41.000Z</time>
</trkpt>
<trkpt lat="30.8363950" lon="34.8113630">
<ele>337.099976</ele>
<time>2021-04-09T09:31:45.000Z</time>
</trkpt>
<trkpt lat="30.8362340" lon="34.8115270">
<ele>335.399994</ele>
<time>2021-04-09T09:31:50.000Z</time>
</trkpt>
<trkpt lat="30.8361910" lon="34.8115610">
<ele>335.000031</ele>
<time>2021-04-09T09:31:51.000Z</time>
</trkpt>
<trkpt lat="30.8361050" lon="34.8115700">
<ele>334.700012</ele>
<time>2021-04-09T09:31:53.000Z</time>
</trkpt>
<trkpt lat="30.8359440" lon="34.8114950">
<ele>334.500000</ele>
<time>2021-04-09T09:31:57.000Z</time>
</trkpt>
<trkpt lat="30.8357410" lon="34.8114750">
<ele>333.500031</ele>
<time>2021-04-09T09:32:05.000Z</time>
</trkpt>
<trkpt lat="30.8355570" lon="34.8113390">
<ele>333.299988</ele>
<time>2021-04-09T09:32:14.000Z</time>
</trkpt>
<trkpt lat="30.8353310" lon="34.8112850">
<ele>333.299988</ele>
<time>2021-04-09T09:32:49.000Z</time>
</trkpt>
<trkpt lat="30.8350050" lon="34.8111720">
<ele>333.500031</ele>
<time>2021-04-09T09:32:57.000Z</time>
</trkpt>
<trkpt lat="30.8347530" lon="34.8111180">
<ele>334.000000</ele>
<time>2021-04-09T09:33:03.000Z</time>
</trkpt>
<trkpt lat="30.8344110" lon="34.8111840">
<ele>334.500000</ele>
<time>2021-04-09T09:33:12.000Z</time>
</trkpt>
<trkpt lat="30.8340580" lon="34.8111020">
<ele>334.700012</ele>
<time>2021-04-09T09:33:21.000Z</time>
</trkpt>
<trkpt lat="30.8338990" lon="34.8111110">
<ele>334.899994</ele>
<time>2021-04-09T09:33:25.000Z</time>
</trkpt>
<trkpt lat="30.8334590" lon="34.8112910">
<ele>335.800018</ele>
<time>2021-04-09T09:33:55.000Z</time>
</trkpt>
<trkpt lat="30.8331900" lon="34.8115020">
<ele>335.500000</ele>
<time>2021-04-09T09:34:04.000Z</time>
</trkpt>
<trkpt lat="30.8331240" lon="34.8115020">
<ele>335.300018</ele>
<time>2021-04-09T09:34:06.000Z</time>
</trkpt>
<trkpt lat="30.8329180" lon="34.8114330">
<ele>335.200012</ele>
<time>2021-04-09T09:34:12.000Z</time>
</trkpt>
<trkpt lat="30.8327770" lon="34.8114180">
<ele>335.600006</ele>
<time>2021-04-09T09:34:16.000Z</time>
</trkpt>
<trkpt lat="30.8325030" lon="34.8117320">
<ele>337.699982</ele>
<time>2021-04-09T09:34:31.000Z</time>
</trkpt>
<trkpt lat="30.8324290" lon="34.8117220">
<ele>338.500000</ele>
<time>2021-04-09T09:34:34.000Z</time>
</trkpt>
<trkpt lat="30.8322730" lon="34.8115610">
<ele>340.500000</ele>
<time>2021-04-09T09:34:45.000Z</time>
</trkpt>
<trkpt lat="30.8321920" lon="34.8115110">
<ele>341.200012</ele>
<time>2021-04-09T09:34:51.000Z</time>
</trkpt>
<trkpt lat="30.8321140" lon="34.8115210">
<ele>341.800018</ele>
<time>2021-04-09T09:34:56.000Z</time>
</trkpt>
<trkpt lat="30.8318410" lon="34.8116160">
<ele>343.699982</ele>
<time>2021-04-09T09:35:11.000Z</time>
</trkpt>
<trkpt lat="30.8316930" lon="34.8115700">
<ele>344.599976</ele>
<time>2021-04-09T09:35:18.000Z</time>
</trkpt>
<trkpt lat="30.8315800" lon="34.8116090">
<ele>345.500000</ele>
<time>2021-04-09T09:35:24.000Z</time>
</trkpt>
<trkpt lat="30.8312810" lon="34.8116440">
<ele>347.399994</ele>
<time>2021-04-09T09:35:37.000Z</time>
</trkpt>
<trkpt lat="30.8312060" lon="34.8116440">
<ele>347.899994</ele>
<time>2021-04-09T09:35:42.000Z</time>
</trkpt>
<trkpt lat="30.8309200" lon="34.8115790">
<ele>348.899994</ele>
<time>2021-04-09T09:35:59.000Z</time>
</trkpt>
<trkpt lat="30.8308430" lon="34.8115870">
<ele>349.200012</ele>
<time>2021-04-09T09:36:03.000Z</time>
</trkpt>
<trkpt lat="30.8305510" lon="34.8116890">
<ele>350.199982</ele>
<time>2021-04-09T09:36:15.000Z</time>
</trkpt>
<trkpt lat="30.8303880" lon="34.8116890">
<ele>350.799988</ele>
<time>2021-04-09T09:36:21.000Z</time>
</trkpt>
<trkpt lat="30.8300270" lon="34.8116430">
<ele>351.300018</ele>
<time>2021-04-09T09:36:32.000Z</time>
</trkpt>
<trkpt lat="30.8297980" lon="34.8115730">
<ele>351.799988</ele>
<time>2021-04-09T09:36:39.000Z</time>
</trkpt>
<trkpt lat="30.8296580" lon="34.8114870">
<ele>352.299988</ele>
<time>2021-04-09T09:36:43.000Z</time>
</trkpt>
<trkpt lat="30.8295610" lon="34.8113770">
<ele>353.000000</ele>
<time>2021-04-09T09:36:47.000Z</time>
</trkpt>
<trkpt lat="30.8294720" lon="34.8113100">
<ele>353.600006</ele>
<time>2021-04-09T09:36:50.000Z</time>
</trkpt>
<trkpt lat="30.8293950" lon="34.8112040">
<ele>354.300018</ele>
<time>2021-04-09T09:36:53.000Z</time>
</trkpt>
<trkpt lat="30.8293220" lon="34.8110180">
<ele>355.000000</ele>
<time>2021-04-09T09:37:01.000Z</time>
</trkpt>
<trkpt lat="30.8292660" lon="34.8109340">
<ele>355.299988</ele>
<time>2021-04-09T09:37:05.000Z</time>
</trkpt>
<trkpt lat="30.8291620" lon="34.8108550">
<ele>355.500000</ele>
<time>2021-04-09T09:37:12.000Z</time>
</trkpt>
<trkpt lat="30.8289520" lon="34.8106140">
<ele>355.399994</ele>
<time>2021-04-09T09:37:27.000Z</time>
</trkpt>
<trkpt lat="30.8286520" lon="34.8104400">
<ele>355.399994</ele>
<time>2021-04-09T09:37:36.000Z</time>
</trkpt>
<trkpt lat="30.8285580" lon="34.8103560">
<ele>355.299988</ele>
<time>2021-04-09T09:37:39.000Z</time>
</trkpt>
<trkpt lat="30.8284600" lon="34.8102180">
<ele>354.900024</ele>
<time>2021-04-09T09:37:43.000Z</time>
</trkpt>
<trkpt lat="30.8283700" lon="34.8101580">
<ele>354.799988</ele>
<time>2021-04-09T09:37:46.000Z</time>
</trkpt>
<trkpt lat="30.8281990" lon="34.8101500">
<ele>355.200012</ele>
<time>2021-04-09T09:37:49.000Z</time>
</trkpt>
<trkpt lat="30.8279910" lon="34.8101040">
<ele>355.899994</ele>
<time>2021-04-09T09:37:53.000Z</time>
</trkpt>
<trkpt lat="30.8278460" lon="34.8100280">
<ele>356.100006</ele>
<time>2021-04-09T09:37:57.000Z</time>
</trkpt>
<trkpt lat="30.8276290" lon="34.8098580">
<ele>356.500000</ele>
<time>2021-04-09T09:38:06.000Z</time>
</trkpt>
<trkpt lat="30.8272080" lon="34.8096620">
<ele>357.399994</ele>
<time>2021-04-09T09:38:20.000Z</time>
</trkpt>
<trkpt lat="30.8270810" lon="34.8095710">
<ele>357.600006</ele>
<time>2021-04-09T09:38:24.000Z</time>
</trkpt>
<trkpt lat="30.8269940" lon="34.8094720">
<ele>357.399994</ele>
<time>2021-04-09T09:38:28.000Z</time>
</trkpt>
<trkpt lat="30.8269050" lon="34.8092760">
<ele>356.000000</ele>
<time>2021-04-09T09:38:35.000Z</time>
</trkpt>
<trkpt lat="30.8268230" lon="34.8091780">
<ele>354.799988</ele>
<time>2021-04-09T09:38:40.000Z</time>
</trkpt>
<trkpt lat="30.8267690" lon="34.8091830">
<ele>354.300018</ele>
<time>2021-04-09T09:38:42.000Z</time>
</trkpt>
<trkpt lat="30.8266690" lon="34.8092800">
<ele>353.199982</ele>
<time>2021-04-09T09:38:45.000Z</time>
</trkpt>
<trkpt lat="30.8264800" lon="34.8093490">
<ele>352.200012</ele>
<time>2021-04-09T09:38:50.000Z</time>
</trkpt>
<trkpt lat="30.8262540" lon="34.8094720">
<ele>351.699982</ele>
<time>2021-04-09T09:38:55.000Z</time>
</trkpt>
<trkpt lat="30.8259360" lon="34.8095630">
<ele>351.300018</ele>
<time>2021-04-09T09:39:05.000Z</time>
</trkpt>
<trkpt lat="30.8258530" lon="34.8095240">
<ele>351.399994</ele>
<time>2021-04-09T09:39:08.000Z</time>
</trkpt>
<trkpt lat="30.8255960" lon="34.8095160">
<ele>351.999969</ele>
<time>2021-04-09T09:39:17.000Z</time>
</trkpt>
<trkpt lat="30.8255570" lon="34.8095040">
<ele>352.100006</ele>
<time>2021-04-09T09:39:19.000Z</time>
</trkpt>
<trkpt lat="30.8254620" lon="34.8091760">
<ele>353.100006</ele>
<time>2021-04-09T09:39:29.000Z</time>
</trkpt>
<trkpt lat="30.8253830" lon="34.8090460">
<ele>354.300018</ele>
<time>2021-04-09T09:39:33.000Z</time>
</trkpt>
<trkpt lat="30.8253030" lon="34.8090140">
<ele>355.200012</ele>
<time>2021-04-09T09:39:37.000Z</time>
</trkpt>
<trkpt lat="30.8251600" lon="34.8090060">
<ele>357.000000</ele>
<time>2021-04-09T09:39:44.000Z</time>
</trkpt>
<trkpt lat="30.8249960" lon="34.8089170">
<ele>359.100006</ele>
<time>2021-04-09T09:39:57.000Z</time>
</trkpt>
<trkpt lat="30.8248850" lon="34.8089390">
<ele>359.799988</ele>
<time>2021-04-09T09:40:05.000Z</time>
</trkpt>
<trkpt lat="30.8246760" lon="34.8089210">
<ele>360.800018</ele>
<time>2021-04-09T09:40:14.000Z</time>
</trkpt>
<trkpt lat="30.8244460" lon="34.8088520">
<ele>361.800018</ele>
<time>2021-04-09T09:40:25.000Z</time>
</trkpt>
<trkpt lat="30.8241130" lon="34.8087120">
<ele>362.500000</ele>
<time>2021-04-09T09:40:42.000Z</time>
</trkpt>
<trkpt lat="30.8240300" lon="34.8086940">
<ele>362.300018</ele>
<time>2021-04-09T09:40:45.000Z</time>
</trkpt>
<trkpt lat="30.8238440" lon="34.8087700">
<ele>361.100006</ele>
<time>2021-04-09T09:40:51.000Z</time>
</trkpt>
<trkpt lat="30.8237930" lon="34.8087680">
<ele>360.800018</ele>
<time>2021-04-09T09:40:52.000Z</time>
</trkpt>
<trkpt lat="30.8234080" lon="34.8086200">
<ele>359.799988</ele>
<time>2021-04-09T09:41:00.000Z</time>
</trkpt>
<trkpt lat="30.8231670" lon="34.8083950">
<ele>359.199982</ele>
<time>2021-04-09T09:41:06.000Z</time>
</trkpt>
<trkpt lat="30.8230280" lon="34.8081060">
<ele>358.800018</ele>
<time>2021-04-09T09:41:13.000Z</time>
</trkpt>
<trkpt lat="30.8229810" lon="34.8080520">
<ele>358.700012</ele>
<time>2021-04-09T09:41:15.000Z</time>
</trkpt>
<trkpt lat="30.8228320" lon="34.8079760">
<ele>358.899994</ele>
<time>2021-04-09T09:41:19.000Z</time>
</trkpt>
<trkpt lat="30.8227650" lon="34.8078840">
<ele>359.500000</ele>
<time>2021-04-09T09:41:22.000Z</time>
</trkpt>
<trkpt lat="30.8226730" lon="34.8078680">
<ele>360.200012</ele>
<time>2021-04-09T09:41:26.000Z</time>
</trkpt>
<trkpt lat="30.8226450" lon="34.8079040">
<ele>360.500000</ele>
<time>2021-04-09T09:41:27.000Z</time>
</trkpt>
<trkpt lat="30.8225560" lon="34.8081560">
<ele>362.199982</ele>
<time>2021-04-09T09:41:37.000Z</time>
</trkpt>
<trkpt lat="30.8224300" lon="34.8084090">
<ele>364.000000</ele>
<time>2021-04-09T09:41:49.000Z</time>
</trkpt>
<trkpt lat="30.8222060" lon="34.8086530">
<ele>366.800018</ele>
<time>2021-04-09T09:42:06.000Z</time>
</trkpt>
<trkpt lat="30.8218770" lon="34.8089320">
<ele>371.000000</ele>
<time>2021-04-09T09:42:32.000Z</time>
</trkpt>
<trkpt lat="30.8217050" lon="34.8091570">
<ele>371.399994</ele>
<time>2021-04-09T09:42:43.000Z</time>
</trkpt>
<trkpt lat="30.8213000" lon="34.8095990">
<ele>376.199982</ele>
<time>2021-04-09T09:43:15.000Z</time>
</trkpt>
<trkpt lat="30.8211760" lon="34.8096690">
<ele>377.800018</ele>
<time>2021-04-09T09:43:25.000Z</time>
</trkpt>
<trkpt lat="30.8209600" lon="34.8097340">
<ele>380.000000</ele>
<time>2021-04-09T09:43:40.000Z</time>
</trkpt>
<trkpt lat="30.8207750" lon="34.8097660">
<ele>381.700012</ele>
<time>2021-04-09T09:43:52.000Z</time>
</trkpt>
<trkpt lat="30.8206280" lon="34.8098500">
<ele>383.100006</ele>
<time>2021-04-09T09:44:03.000Z</time>
</trkpt>
<trkpt lat="30.8205240" lon="34.8098640">
<ele>383.800018</ele>
<time>2021-04-09T09:44:09.000Z</time>
</trkpt>
<trkpt lat="30.8202510" lon="34.8099320">
<ele>385.399994</ele>
<time>2021-04-09T09:44:24.000Z</time>
</trkpt>
<trkpt lat="30.8200020" lon="34.8099330">
<ele>387.600006</ele>
<time>2021-04-09T09:44:36.000Z</time>
</trkpt>
<trkpt lat="30.8199640" lon="34.8099190">
<ele>387.999969</ele>
<time>2021-04-09T09:44:38.000Z</time>
</trkpt>
<trkpt lat="30.8199050" lon="34.8099250">
<ele>388.599976</ele>
<time>2021-04-09T09:44:43.000Z</time>
</trkpt>
<trkpt lat="30.8197720" lon="34.8098910">
<ele>389.700012</ele>
<time>2021-04-09T09:44:51.000Z</time>
</trkpt>
<trkpt lat="30.8196530" lon="34.8098960">
<ele>390.399994</ele>
<time>2021-04-09T09:44:57.000Z</time>
</trkpt>
<trkpt lat="30.8194260" lon="34.8100000">
<ele>390.600006</ele>
<time>2021-04-09T09:45:09.000Z</time>
</trkpt>
<trkpt lat="30.8191000" lon="34.8103020">
<ele>388.699982</ele>
<time>2021-04-09T09:45:24.000Z</time>
</trkpt>
<trkpt lat="30.8187850" lon="34.8107910">
<ele>384.600006</ele>
<time>2021-04-09T09:45:36.000Z</time>
</trkpt>
<trkpt lat="30.8187200" lon="34.8108290">
<ele>383.800018</ele>
<time>2021-04-09T09:45:39.000Z</time>
</trkpt>
<trkpt lat="30.8187570" lon="34.8107880">
<ele>383.000000</ele>
<time>2021-04-09T09:45:47.000Z</time>
</trkpt>
<trkpt lat="30.8187370" lon="34.8107640">
<ele>382.399994</ele>
<time>2021-04-09T09:46:22.000Z</time>
</trkpt>
<trkpt lat="30.8186650" lon="34.8108020">
<ele>381.299988</ele>
<time>2021-04-09T09:46:29.000Z</time>
</trkpt>
<trkpt lat="30.8185920" lon="34.8108790">
<ele>380.500000</ele>
<time>2021-04-09T09:46:39.000Z</time>
</trkpt>
<trkpt lat="30.8184640" lon="34.8109600">
<ele>381.000000</ele>
<time>2021-04-09T09:47:26.000Z</time>
</trkpt>
<trkpt lat="30.8183560" lon="34.8109830">
<ele>382.200012</ele>
<time>2021-04-09T09:47:37.000Z</time>
</trkpt>
<trkpt lat="30.8181720" lon="34.8111010">
<ele>384.500000</ele>
<time>2021-04-09T09:47:56.000Z</time>
</trkpt>
<trkpt lat="30.8181220" lon="34.8111850">
<ele>385.200012</ele>
<time>2021-04-09T09:48:07.000Z</time>
</trkpt>
<trkpt lat="30.8179380" lon="34.8113810">
<ele>386.200012</ele>
<time>2021-04-09T09:48:35.000Z</time>
</trkpt>
<trkpt lat="30.8177060" lon="34.8116710">
<ele>386.299988</ele>
<time>2021-04-09T09:49:04.000Z</time>
</trkpt>
<trkpt lat="30.8176300" lon="34.8118620">
<ele>385.300018</ele>
<time>2021-04-09T09:49:22.000Z</time>
</trkpt>
<trkpt lat="30.8174390" lon="34.8120080">
<ele>384.000000</ele>
<time>2021-04-09T09:49:40.000Z</time>
</trkpt>
<trkpt lat="30.8173770" lon="34.8121370">
<ele>383.399994</ele>
<time>2021-04-09T09:49:50.000Z</time>
</trkpt>
<trkpt lat="30.8172220" lon="34.8123500">
<ele>382.600006</ele>
<time>2021-04-09T09:50:11.000Z</time>
</trkpt>
<trkpt lat="30.8168170" lon="34.8124640">
<ele>382.099976</ele>
<time>2021-04-09T09:50:55.000Z</time>
</trkpt>
<trkpt lat="30.8166620" lon="34.8124650">
<ele>382.600006</ele>
<time>2021-04-09T09:51:16.000Z</time>
</trkpt>
<trkpt lat="30.8165800" lon="34.8124420">
<ele>382.900024</ele>
<time>2021-04-09T09:51:33.000Z</time>
</trkpt>
<trkpt lat="30.8165800" lon="34.8124240">
<ele>382.900024</ele>
<time>2021-04-09T09:51:44.000Z</time>
</trkpt>
<trkpt lat="30.8165460" lon="34.8124270">
<ele>383.000000</ele>
<time>2021-04-09T09:51:50.000Z</time>
</trkpt>
<trkpt lat="30.8165140" lon="34.8124550">
<ele>383.000000</ele>
<time>2021-04-09T09:51:55.000Z</time>
</trkpt>
<trkpt lat="30.8164650" lon="34.8124630">
<ele>383.000000</ele>
<time>2021-04-09T09:52:00.000Z</time>
</trkpt>
<trkpt lat="30.8163070" lon="34.8126650">
<ele>383.100006</ele>
<time>2021-04-09T09:52:18.000Z</time>
</trkpt>
<trkpt lat="30.8162190" lon="34.8126790">
<ele>383.200012</ele>
<time>2021-04-09T09:52:26.000Z</time>
</trkpt>
<trkpt lat="30.8160910" lon="34.8127560">
<ele>383.399994</ele>
<time>2021-04-09T09:52:39.000Z</time>
</trkpt>
<trkpt lat="30.8159250" lon="34.8127950">
<ele>383.700012</ele>
<time>2021-04-09T09:52:53.000Z</time>
</trkpt>
<trkpt lat="30.8157470" lon="34.8128850">
<ele>383.899994</ele>
<time>2021-04-09T09:53:11.000Z</time>
</trkpt>
<trkpt lat="30.8156240" lon="34.8129760">
<ele>384.100006</ele>
<time>2021-04-09T09:53:24.000Z</time>
</trkpt>
<trkpt lat="30.8152670" lon="34.8133580">
<ele>384.600006</ele>
<time>2021-04-09T09:54:07.000Z</time>
</trkpt>
<trkpt lat="30.8150880" lon="34.8134460">
<ele>384.700012</ele>
<time>2021-04-09T09:54:24.000Z</time>
</trkpt>
<trkpt lat="30.8149470" lon="34.8134830">
<ele>384.799988</ele>
<time>2021-04-09T09:54:39.000Z</time>
</trkpt>
<trkpt lat="30.8146790" lon="34.8134880">
<ele>384.899994</ele>
<time>2021-04-09T09:55:08.000Z</time>
</trkpt>
<trkpt lat="30.8146930" lon="34.8135230">
<ele>384.899994</ele>
<time>2021-04-09T09:55:41.000Z</time>
</trkpt>
<trkpt lat="30.8146980" lon="34.8135510">
<ele>384.899994</ele>
<time>2021-04-09T09:56:02.000Z</time>
</trkpt>
<trkpt lat="30.8146860" lon="34.8135630">
<ele>384.899994</ele>
<time>2021-04-09T09:56:22.000Z</time>
</trkpt>
<trkpt lat="30.8146900" lon="34.8135350">
<ele>384.899994</ele>
<time>2021-04-09T09:56:47.000Z</time>
</trkpt>
<trkpt lat="30.8146720" lon="34.8135560">
<ele>384.899994</ele>
<time>2021-04-09T09:58:28.000Z</time>
</trkpt>
<trkpt lat="30.8146580" lon="34.8135540">
<ele>385.000031</ele>
<time>2021-04-09T09:58:45.000Z</time>
</trkpt>
<trkpt lat="30.8146750" lon="34.8134980">
<ele>385.000031</ele>
<time>2021-04-09T09:59:11.000Z</time>
</trkpt>
<trkpt lat="30.8146580" lon="34.8134880">
<ele>385.000031</ele>
<time>2021-04-09T09:59:22.000Z</time>
</trkpt>
<trkpt lat="30.8146480" lon="34.8135020">
<ele>385.100006</ele>
<time>2021-04-09T09:59:37.000Z</time>
</trkpt>
<trkpt lat="30.8146560" lon="34.8135270">
<ele>385.100006</ele>
<time>2021-04-09T09:59:51.000Z</time>
</trkpt>
<trkpt lat="30.8146850" lon="34.8135350">
<ele>385.100006</ele>
<time>2021-04-09T10:00:04.000Z</time>
</trkpt>
<trkpt lat="30.8146810" lon="34.8135730">
<ele>385.200012</ele>
<time>2021-04-09T10:00:23.000Z</time>
</trkpt>
<trkpt lat="30.8147210" lon="34.8135420">
<ele>385.300018</ele>
<time>2021-04-09T10:02:10.000Z</time>
</trkpt>
<trkpt lat="30.8146500" lon="34.8135280">
<ele>385.399994</ele>
<time>2021-04-09T10:03:10.000Z</time>
</trkpt>
<trkpt lat="30.8146470" lon="34.8135540">
<ele>385.399994</ele>
<time>2021-04-09T10:03:31.000Z</time>
</trkpt>
<trkpt lat="30.8146790" lon="34.8135440">
<ele>385.500000</ele>
<time>2021-04-09T10:04:01.000Z</time>
</trkpt>
<trkpt lat="30.8148730" lon="34.8135360">
<ele>385.399994</ele>
<time>2021-04-09T10:04:30.000Z</time>
</trkpt>
<trkpt lat="30.8151940" lon="34.8134210">
<ele>384.799988</ele>
<time>2021-04-09T10:05:03.000Z</time>
</trkpt>
<trkpt lat="30.8153680" lon="34.8132490">
<ele>384.600006</ele>
<time>2021-04-09T10:05:22.000Z</time>
</trkpt>
<trkpt lat="30.8155340" lon="34.8130730">
<ele>384.199982</ele>
<time>2021-04-09T10:05:42.000Z</time>
</trkpt>
<trkpt lat="30.8156550" lon="34.8128920">
<ele>384.000000</ele>
<time>2021-04-09T10:05:58.000Z</time>
</trkpt>
<trkpt lat="30.8158490" lon="34.8127690">
<ele>383.800018</ele>
<time>2021-04-09T10:06:16.000Z</time>
</trkpt>
<trkpt lat="30.8160810" lon="34.8127140">
<ele>383.500000</ele>
<time>2021-04-09T10:06:36.000Z</time>
</trkpt>
<trkpt lat="30.8161480" lon="34.8127530">
<ele>383.399994</ele>
<time>2021-04-09T10:06:43.000Z</time>
</trkpt>
<trkpt lat="30.8163310" lon="34.8127790">
<ele>383.100006</ele>
<time>2021-04-09T10:07:01.000Z</time>
</trkpt>
<trkpt lat="30.8164010" lon="34.8126990">
<ele>383.100006</ele>
<time>2021-04-09T10:07:09.000Z</time>
</trkpt>
<trkpt lat="30.8164460" lon="34.8125920">
<ele>383.100006</ele>
<time>2021-04-09T10:07:21.000Z</time>
</trkpt>
<trkpt lat="30.8165750" lon="34.8125600">
<ele>383.000000</ele>
<time>2021-04-09T10:07:34.000Z</time>
</trkpt>
<trkpt lat="30.8166740" lon="34.8126180">
<ele>382.799988</ele>
<time>2021-04-09T10:07:45.000Z</time>
</trkpt>
<trkpt lat="30.8167880" lon="34.8125810">
<ele>382.300018</ele>
<time>2021-04-09T10:07:56.000Z</time>
</trkpt>
<trkpt lat="30.8168230" lon="34.8125550">
<ele>382.200012</ele>
<time>2021-04-09T10:08:01.000Z</time>
</trkpt>
<trkpt lat="30.8168300" lon="34.8125160">
<ele>382.099976</ele>
<time>2021-04-09T10:08:06.000Z</time>
</trkpt>
<trkpt lat="30.8168900" lon="34.8124910">
<ele>382.099976</ele>
<time>2021-04-09T10:08:19.000Z</time>
</trkpt>
<trkpt lat="30.8169740" lon="34.8124240">
<ele>382.099976</ele>
<time>2021-04-09T10:08:29.000Z</time>
</trkpt>
<trkpt lat="30.8170070" lon="34.8124200">
<ele>382.099976</ele>
<time>2021-04-09T10:08:40.000Z</time>
</trkpt>
<trkpt lat="30.8170650" lon="34.8123580">
<ele>382.200012</ele>
<time>2021-04-09T10:08:47.000Z</time>
</trkpt>
<trkpt lat="30.8173020" lon="34.8122120">
<ele>383.000000</ele>
<time>2021-04-09T10:09:08.000Z</time>
</trkpt>
<trkpt lat="30.8173480" lon="34.8121470">
<ele>383.200012</ele>
<time>2021-04-09T10:09:14.000Z</time>
</trkpt>
<trkpt lat="30.8173960" lon="34.8119900">
<ele>383.800018</ele>
<time>2021-04-09T10:09:27.000Z</time>
</trkpt>
<trkpt lat="30.8174440" lon="34.8119410">
<ele>384.100006</ele>
<time>2021-04-09T10:09:33.000Z</time>
</trkpt>
<trkpt lat="30.8175390" lon="34.8119320">
<ele>384.700012</ele>
<time>2021-04-09T10:09:41.000Z</time>
</trkpt>
<trkpt lat="30.8176080" lon="34.8118640">
<ele>385.300018</ele>
<time>2021-04-09T10:09:52.000Z</time>
</trkpt>
<trkpt lat="30.8176690" lon="34.8116770">
<ele>386.299988</ele>
<time>2021-04-09T10:10:09.000Z</time>
</trkpt>
<trkpt lat="30.8178620" lon="34.8114230">
<ele>386.200012</ele>
<time>2021-04-09T10:10:36.000Z</time>
</trkpt>
<trkpt lat="30.8180730" lon="34.8112140">
<ele>385.100006</ele>
<time>2021-04-09T10:11:09.000Z</time>
</trkpt>
<trkpt lat="30.8180870" lon="34.8111740">
<ele>384.799988</ele>
<time>2021-04-09T10:11:19.000Z</time>
</trkpt>
<trkpt lat="30.8181740" lon="34.8110640">
<ele>383.500000</ele>
<time>2021-04-09T10:11:32.000Z</time>
</trkpt>
<trkpt lat="30.8183080" lon="34.8109410">
<ele>381.400024</ele>
<time>2021-04-09T10:11:49.000Z</time>
</trkpt>
<trkpt lat="30.8184230" lon="34.8109400">
<ele>380.500000</ele>
<time>2021-04-09T10:11:59.000Z</time>
</trkpt>
<trkpt lat="30.8186790" lon="34.8107770">
<ele>383.200012</ele>
<time>2021-04-09T10:12:31.000Z</time>
</trkpt>
<trkpt lat="30.8187230" lon="34.8107640">
<ele>384.199982</ele>
<time>2021-04-09T10:12:36.000Z</time>
</trkpt>
<trkpt lat="30.8188440" lon="34.8107710">
<ele>385.300018</ele>
<time>2021-04-09T10:12:51.000Z</time>
</trkpt>
<trkpt lat="30.8188580" lon="34.8107880">
<ele>385.399994</ele>
<time>2021-04-09T10:13:42.000Z</time>
</trkpt>
<trkpt lat="30.8190750" lon="34.8103870">
<ele>388.699982</ele>
<time>2021-04-09T10:14:01.000Z</time>
</trkpt>
<trkpt lat="30.8191950" lon="34.8103450">
<ele>389.499969</ele>
<time>2021-04-09T10:14:10.000Z</time>
</trkpt>
<trkpt lat="30.8194170" lon="34.8101110">
<ele>390.500000</ele>
<time>2021-04-09T10:14:29.000Z</time>
</trkpt>
<trkpt lat="30.8195800" lon="34.8099890">
<ele>390.600006</ele>
<time>2021-04-09T10:14:39.000Z</time>
</trkpt>
<trkpt lat="30.8196310" lon="34.8099660">
<ele>390.399994</ele>
<time>2021-04-09T10:14:42.000Z</time>
</trkpt>
<trkpt lat="30.8197830" lon="34.8099470">
<ele>389.499969</ele>
<time>2021-04-09T10:14:47.000Z</time>
</trkpt>
<trkpt lat="30.8199800" lon="34.8099580">
<ele>387.699982</ele>
<time>2021-04-09T10:14:52.000Z</time>
</trkpt>
<trkpt lat="30.8203110" lon="34.8099460">
<ele>385.000031</ele>
<time>2021-04-09T10:14:57.000Z</time>
</trkpt>
<trkpt lat="30.8205620" lon="34.8098800">
<ele>383.500000</ele>
<time>2021-04-09T10:15:01.000Z</time>
</trkpt>
<trkpt lat="30.8209100" lon="34.8097240">
<ele>380.399994</ele>
<time>2021-04-09T10:15:07.000Z</time>
</trkpt>
<trkpt lat="30.8213600" lon="34.8095950">
<ele>375.499969</ele>
<time>2021-04-09T10:15:15.000Z</time>
</trkpt>
<trkpt lat="30.8215720" lon="34.8093740">
<ele>372.500031</ele>
<time>2021-04-09T10:15:19.000Z</time>
</trkpt>
<trkpt lat="30.8218520" lon="34.8089890">
<ele>371.200012</ele>
<time>2021-04-09T10:15:25.000Z</time>
</trkpt>
<trkpt lat="30.8223440" lon="34.8084970">
<ele>364.899994</ele>
<time>2021-04-09T10:15:35.000Z</time>
</trkpt>
<trkpt lat="30.8225070" lon="34.8082180">
<ele>362.699982</ele>
<time>2021-04-09T10:15:39.000Z</time>
</trkpt>
<trkpt lat="30.8225300" lon="34.8080270">
<ele>361.600006</ele>
<time>2021-04-09T10:15:42.000Z</time>
</trkpt>
<trkpt lat="30.8225730" lon="34.8079440">
<ele>361.000000</ele>
<time>2021-04-09T10:15:44.000Z</time>
</trkpt>
<trkpt lat="30.8226360" lon="34.8079330">
<ele>360.500000</ele>
<time>2021-04-09T10:15:46.000Z</time>
</trkpt>
<trkpt lat="30.8227140" lon="34.8079460">
<ele>359.899994</ele>
<time>2021-04-09T10:15:48.000Z</time>
</trkpt>
<trkpt lat="30.8229100" lon="34.8080620">
<ele>358.700012</ele>
<time>2021-04-09T10:15:53.000Z</time>
</trkpt>
<trkpt lat="30.8229710" lon="34.8081180">
<ele>358.599976</ele>
<time>2021-04-09T10:15:57.000Z</time>
</trkpt>
<trkpt lat="30.8230850" lon="34.8084310">
<ele>359.100006</ele>
<time>2021-04-09T10:16:08.000Z</time>
</trkpt>
<trkpt lat="30.8231850" lon="34.8085200">
<ele>359.300018</ele>
<time>2021-04-09T10:16:13.000Z</time>
</trkpt>
<trkpt lat="30.8234880" lon="34.8087050">
<ele>359.899994</ele>
<time>2021-04-09T10:16:25.000Z</time>
</trkpt>
<trkpt lat="30.8236540" lon="34.8087830">
<ele>360.100006</ele>
<time>2021-04-09T10:16:29.000Z</time>
</trkpt>
<trkpt lat="30.8238910" lon="34.8086760">
<ele>361.500031</ele>
<time>2021-04-09T10:16:39.000Z</time>
</trkpt>
<trkpt lat="30.8239960" lon="34.8087020">
<ele>362.199982</ele>
<time>2021-04-09T10:16:44.000Z</time>
</trkpt>
<trkpt lat="30.8244180" lon="34.8089030">
<ele>361.899994</ele>
<time>2021-04-09T10:16:59.000Z</time>
</trkpt>
<trkpt lat="30.8246690" lon="34.8089570">
<ele>360.800018</ele>
<time>2021-04-09T10:17:07.000Z</time>
</trkpt>
<trkpt lat="30.8249020" lon="34.8088880">
<ele>359.600006</ele>
<time>2021-04-09T10:17:13.000Z</time>
</trkpt>
<trkpt lat="30.8252610" lon="34.8090470">
<ele>355.500000</ele>
<time>2021-04-09T10:17:22.000Z</time>
</trkpt>
<trkpt lat="30.8254020" lon="34.8091590">
<ele>353.700012</ele>
<time>2021-04-09T10:17:23.000Z</time>
</trkpt>
<trkpt lat="30.8255330" lon="34.8094660">
<ele>352.299988</ele>
<time>2021-04-09T10:17:27.000Z</time>
</trkpt>
<trkpt lat="30.8255800" lon="34.8095760">
<ele>352.100006</ele>
<time>2021-04-09T10:17:29.000Z</time>
</trkpt>
<trkpt lat="30.8256200" lon="34.8095980">
<ele>351.899994</ele>
<time>2021-04-09T10:17:30.000Z</time>
</trkpt>
<trkpt lat="30.8258520" lon="34.8095690">
<ele>351.399994</ele>
<time>2021-04-09T10:17:35.000Z</time>
</trkpt>
<trkpt lat="30.8259970" lon="34.8095950">
<ele>351.300018</ele>
<time>2021-04-09T10:17:41.000Z</time>
</trkpt>
<trkpt lat="30.8261760" lon="34.8095250">
<ele>351.600006</ele>
<time>2021-04-09T10:17:47.000Z</time>
</trkpt>
<trkpt lat="30.8264750" lon="34.8093700">
<ele>352.200012</ele>
<time>2021-04-09T10:17:58.000Z</time>
</trkpt>
<trkpt lat="30.8266100" lon="34.8093270">
<ele>352.800018</ele>
<time>2021-04-09T10:18:03.000Z</time>
</trkpt>
<trkpt lat="30.8267950" lon="34.8092280">
<ele>354.399994</ele>
<time>2021-04-09T10:18:14.000Z</time>
</trkpt>
<trkpt lat="30.8268680" lon="34.8092140">
<ele>355.100006</ele>
<time>2021-04-09T10:18:18.000Z</time>
</trkpt>
<trkpt lat="30.8268890" lon="34.8092330">
<ele>355.399994</ele>
<time>2021-04-09T10:18:20.000Z</time>
</trkpt>
<trkpt lat="30.8269740" lon="34.8094810">
<ele>357.300018</ele>
<time>2021-04-09T10:18:34.000Z</time>
</trkpt>
<trkpt lat="30.8270660" lon="34.8095980">
<ele>357.600006</ele>
<time>2021-04-09T10:18:44.000Z</time>
</trkpt>
<trkpt lat="30.8279390" lon="34.8100970">
<ele>356.000000</ele>
<time>2021-04-09T10:19:13.000Z</time>
</trkpt>
<trkpt lat="30.8280500" lon="34.8101460">
<ele>355.700012</ele>
<time>2021-04-09T10:19:16.000Z</time>
</trkpt>
<trkpt lat="30.8283990" lon="34.8102140">
<ele>354.799988</ele>
<time>2021-04-09T10:19:23.000Z</time>
</trkpt>
<trkpt lat="30.8285540" lon="34.8104060">
<ele>355.299988</ele>
<time>2021-04-09T10:19:28.000Z</time>
</trkpt>
<trkpt lat="30.8288700" lon="34.8105940">
<ele>355.299988</ele>
<time>2021-04-09T10:19:37.000Z</time>
</trkpt>
<trkpt lat="30.8291550" lon="34.8108520">
<ele>355.500000</ele>
<time>2021-04-09T10:19:47.000Z</time>
</trkpt>
<trkpt lat="30.8293410" lon="34.8109900">
<ele>355.000000</ele>
<time>2021-04-09T10:19:52.000Z</time>
</trkpt>
<trkpt lat="30.8296080" lon="34.8114210">
<ele>352.599976</ele>
<time>2021-04-09T10:20:01.000Z</time>
</trkpt>
<trkpt lat="30.8298480" lon="34.8115900">
<ele>351.699982</ele>
<time>2021-04-09T10:20:05.000Z</time>
</trkpt>
<trkpt lat="30.8300200" lon="34.8116260">
<ele>351.300018</ele>
<time>2021-04-09T10:20:08.000Z</time>
</trkpt>
<trkpt lat="30.8303500" lon="34.8116410">
<ele>350.799988</ele>
<time>2021-04-09T10:20:15.000Z</time>
</trkpt>
<trkpt lat="30.8306630" lon="34.8116770">
<ele>349.800018</ele>
<time>2021-04-09T10:20:21.000Z</time>
</trkpt>
<trkpt lat="30.8309030" lon="34.8115950">
<ele>349.000031</ele>
<time>2021-04-09T10:20:26.000Z</time>
</trkpt>
<trkpt lat="30.8312220" lon="34.8116410">
<ele>347.700012</ele>
<time>2021-04-09T10:20:34.000Z</time>
</trkpt>
<trkpt lat="30.8313290" lon="34.8116320">
<ele>347.100006</ele>
<time>2021-04-09T10:20:36.000Z</time>
</trkpt>
<trkpt lat="30.8313370" lon="34.8115950">
<ele>346.900024</ele>
<time>2021-04-09T10:20:37.000Z</time>
</trkpt>
<trkpt lat="30.8315230" lon="34.8116170">
<ele>345.600006</ele>
<time>2021-04-09T10:20:41.000Z</time>
</trkpt>
<trkpt lat="30.8316810" lon="34.8115590">
<ele>344.399994</ele>
<time>2021-04-09T10:20:45.000Z</time>
</trkpt>
<trkpt lat="30.8318780" lon="34.8116290">
<ele>343.200012</ele>
<time>2021-04-09T10:20:49.000Z</time>
</trkpt>
<trkpt lat="30.8321280" lon="34.8115310">
<ele>341.399994</ele>
<time>2021-04-09T10:20:54.000Z</time>
</trkpt>
<trkpt lat="30.8322370" lon="34.8115250">
<ele>340.500000</ele>
<time>2021-04-09T10:20:56.000Z</time>
</trkpt>
<trkpt lat="30.8323760" lon="34.8116140">
<ele>338.899994</ele>
<time>2021-04-09T10:20:59.000Z</time>
</trkpt>
<trkpt lat="30.8324910" lon="34.8117250">
<ele>337.399994</ele>
<time>2021-04-09T10:21:02.000Z</time>
</trkpt>
<trkpt lat="30.8325590" lon="34.8117520">
<ele>336.799988</ele>
<time>2021-04-09T10:21:04.000Z</time>
</trkpt>
<trkpt lat="30.8327150" lon="34.8115990">
<ele>335.800018</ele>
<time>2021-04-09T10:21:10.000Z</time>
</trkpt>
<trkpt lat="30.8327370" lon="34.8116420">
<ele>335.600006</ele>
<time>2021-04-09T10:21:12.000Z</time>
</trkpt>
<trkpt lat="30.8328360" lon="34.8114980">
<ele>335.200012</ele>
<time>2021-04-09T10:21:15.000Z</time>
</trkpt>
<trkpt lat="30.8328960" lon="34.8114600">
<ele>335.200012</ele>
<time>2021-04-09T10:21:16.000Z</time>
</trkpt>
<trkpt lat="30.8330770" lon="34.8114650">
<ele>335.399994</ele>
<time>2021-04-09T10:21:21.000Z</time>
</trkpt>
<trkpt lat="30.8332380" lon="34.8115000">
<ele>335.800018</ele>
<time>2021-04-09T10:21:26.000Z</time>
</trkpt>
<trkpt lat="30.8332810" lon="34.8114920">
<ele>335.900024</ele>
<time>2021-04-09T10:21:28.000Z</time>
</trkpt>
<trkpt lat="30.8333430" lon="34.8113970">
<ele>335.900024</ele>
<time>2021-04-09T10:21:31.000Z</time>
</trkpt>
<trkpt lat="30.8335910" lon="34.8112270">
<ele>335.399994</ele>
<time>2021-04-09T10:21:40.000Z</time>
</trkpt>
<trkpt lat="30.8338660" lon="34.8111270">
<ele>335.000031</ele>
<time>2021-04-09T10:21:49.000Z</time>
</trkpt>
<trkpt lat="30.8340380" lon="34.8111180">
<ele>334.799988</ele>
<time>2021-04-09T10:21:54.000Z</time>
</trkpt>
<trkpt lat="30.8341920" lon="34.8111380">
<ele>334.600006</ele>
<time>2021-04-09T10:21:58.000Z</time>
</trkpt>
<trkpt lat="30.8344480" lon="34.8112060">
<ele>334.500000</ele>
<time>2021-04-09T10:22:05.000Z</time>
</trkpt>
<trkpt lat="30.8346200" lon="34.8111530">
<ele>334.300018</ele>
<time>2021-04-09T10:22:09.000Z</time>
</trkpt>
<trkpt lat="30.8349120" lon="34.8111540">
<ele>333.700012</ele>
<time>2021-04-09T10:22:16.000Z</time>
</trkpt>
<trkpt lat="30.8350100" lon="34.8111730">
<ele>333.500031</ele>
<time>2021-04-09T10:22:19.000Z</time>
</trkpt>
<trkpt lat="30.8355270" lon="34.8113660">
<ele>333.299988</ele>
<time>2021-04-09T10:22:32.000Z</time>
</trkpt>
<trkpt lat="30.8356300" lon="34.8113810">
<ele>333.299988</ele>
<time>2021-04-09T10:22:34.000Z</time>
</trkpt>
<trkpt lat="30.8358150" lon="34.8113050">
<ele>332.900024</ele>
<time>2021-04-09T10:22:39.000Z</time>
</trkpt>
<trkpt lat="30.8361350" lon="34.8108740">
<ele>331.100006</ele>
<time>2021-04-09T10:22:50.000Z</time>
</trkpt>
<trkpt lat="30.8363310" lon="34.8106950">
<ele>331.299988</ele>
<time>2021-04-09T10:22:56.000Z</time>
</trkpt>
<trkpt lat="30.8364100" lon="34.8106660">
<ele>331.400024</ele>
<time>2021-04-09T10:22:59.000Z</time>
</trkpt>
<trkpt lat="30.8365420" lon="34.8106700">
<ele>331.199982</ele>
<time>2021-04-09T10:23:04.000Z</time>
</trkpt>
<trkpt lat="30.8368280" lon="34.8106420">
<ele>330.700012</ele>
<time>2021-04-09T10:23:11.000Z</time>
</trkpt>
<trkpt lat="30.8371190" lon="34.8105830">
<ele>330.200012</ele>
<time>2021-04-09T10:23:17.000Z</time>
</trkpt>
<trkpt lat="30.8377070" lon="34.8104240">
<ele>329.000000</ele>
<time>2021-04-09T10:23:29.000Z</time>
</trkpt>
<trkpt lat="30.8378490" lon="34.8104450">
<ele>328.899994</ele>
<time>2021-04-09T10:23:32.000Z</time>
</trkpt>
<trkpt lat="30.8381950" lon="34.8103060">
<ele>328.899994</ele>
<time>2021-04-09T10:23:41.000Z</time>
</trkpt>
<trkpt lat="30.8384070" lon="34.8102730">
<ele>329.099976</ele>
<time>2021-04-09T10:23:48.000Z</time>
</trkpt>
<trkpt lat="30.8384930" lon="34.8102760">
<ele>329.200012</ele>
<time>2021-04-09T10:23:50.000Z</time>
</trkpt>
<trkpt lat="30.8386470" lon="34.8103380">
<ele>329.099976</ele>
<time>2021-04-09T10:23:56.000Z</time>
</trkpt>
<trkpt lat="30.8388100" lon="34.8103660">
<ele>328.899994</ele>
<time>2021-04-09T10:24:01.000Z</time>
</trkpt>
<trkpt lat="30.8388710" lon="34.8103480">
<ele>328.799988</ele>
<time>2021-04-09T10:24:02.000Z</time>
</trkpt>
<trkpt lat="30.8389060" lon="34.8103110">
<ele>328.700012</ele>
<time>2021-04-09T10:24:04.000Z</time>
</trkpt>
<trkpt lat="30.8389440" lon="34.8101820">
<ele>328.700012</ele>
<time>2021-04-09T10:24:07.000Z</time>
</trkpt>
<trkpt lat="30.8389260" lon="34.8098640">
<ele>328.700012</ele>
<time>2021-04-09T10:24:13.000Z</time>
</trkpt>
<trkpt lat="30.8389870" lon="34.8092990">
<ele>328.899994</ele>
<time>2021-04-09T10:24:24.000Z</time>
</trkpt>
<trkpt lat="30.8389710" lon="34.8091360">
<ele>329.200012</ele>
<time>2021-04-09T10:24:28.000Z</time>
</trkpt>
<trkpt lat="30.8389230" lon="34.8089720">
<ele>329.399994</ele>
<time>2021-04-09T10:24:32.000Z</time>
</trkpt>
<trkpt lat="30.8388520" lon="34.8088500">
<ele>329.300018</ele>
<time>2021-04-09T10:24:36.000Z</time>
</trkpt>
<trkpt lat="30.8388180" lon="34.8087650">
<ele>329.300018</ele>
<time>2021-04-09T10:24:39.000Z</time>
</trkpt>
<trkpt lat="30.8388030" lon="34.8083990">
<ele>329.300018</ele>
<time>2021-04-09T10:24:48.000Z</time>
</trkpt>
<trkpt lat="30.8388500" lon="34.8082330">
<ele>329.500000</ele>
<time>2021-04-09T10:24:53.000Z</time>
</trkpt>
<trkpt lat="30.8387200" lon="34.8079960">
<ele>329.699982</ele>
<time>2021-04-09T10:25:03.000Z</time>
</trkpt>
<trkpt lat="30.8384420" lon="34.8073080">
<ele>330.100006</ele>
<time>2021-04-09T10:25:21.000Z</time>
</trkpt>
<trkpt lat="30.8384280" lon="34.8071280">
<ele>330.200012</ele>
<time>2021-04-09T10:25:26.000Z</time>
</trkpt>
<trkpt lat="30.8383660" lon="34.8068080">
<ele>330.399994</ele>
<time>2021-04-09T10:25:34.000Z</time>
</trkpt>
<trkpt lat="30.8383260" lon="34.8066720">
<ele>330.399994</ele>
<time>2021-04-09T10:25:38.000Z</time>
</trkpt>
<trkpt lat="30.8383250" lon="34.8064750">
<ele>330.299988</ele>
<time>2021-04-09T10:25:42.000Z</time>
</trkpt>
<trkpt lat="30.8385370" lon="34.8061020">
<ele>330.599976</ele>
<time>2021-04-09T10:25:51.000Z</time>
</trkpt>
<trkpt lat="30.8386610" lon="34.8057730">
<ele>330.899994</ele>
<time>2021-04-09T10:26:00.000Z</time>
</trkpt>
<trkpt lat="30.8390900" lon="34.8048670">
<ele>331.100006</ele>
<time>2021-04-09T10:26:25.000Z</time>
</trkpt>
<trkpt lat="30.8396330" lon="34.8040850">
<ele>331.500000</ele>
<time>2021-04-09T10:26:49.000Z</time>
</trkpt>
<trkpt lat="30.8399260" lon="34.8036840">
<ele>331.899994</ele>
<time>2021-04-09T10:27:00.000Z</time>
</trkpt>
<trkpt lat="30.8401170" lon="34.8034760">
<ele>332.099976</ele>
<time>2021-04-09T10:27:07.000Z</time>
</trkpt>
<trkpt lat="30.8402770" lon="34.8033400">
<ele>332.200012</ele>
<time>2021-04-09T10:27:12.000Z</time>
</trkpt>
<trkpt lat="30.8407290" lon="34.8030630">
<ele>332.399994</ele>
<time>2021-04-09T10:27:28.000Z</time>
</trkpt>
<trkpt lat="30.8412140" lon="34.8025440">
<ele>332.900024</ele>
<time>2021-04-09T10:27:46.000Z</time>
</trkpt>
<trkpt lat="30.8412920" lon="34.8024180">
<ele>333.299988</ele>
<time>2021-04-09T10:27:50.000Z</time>
</trkpt>
<trkpt lat="30.8413940" lon="34.8020880">
<ele>336.200012</ele>
<time>2021-04-09T10:28:01.000Z</time>
</trkpt>
<trkpt lat="30.8414120" lon="34.8020370">
<ele>336.899994</ele>
<time>2021-04-09T10:28:05.000Z</time>
</trkpt>
<trkpt lat="30.8415030" lon="34.8019570">
<ele>338.800018</ele>
<time>2021-04-09T10:28:19.000Z</time>
</trkpt>
<trkpt lat="30.8415310" lon="34.8018000">
<ele>340.799988</ele>
<time>2021-04-09T10:28:29.000Z</time>
</trkpt>
<trkpt lat="30.8414910" lon="34.8017470">
<ele>341.599976</ele>
<time>2021-04-09T10:28:35.000Z</time>
</trkpt>
<trkpt lat="30.8414840" lon="34.8015890">
<ele>342.899994</ele>
<time>2021-04-09T10:28:45.000Z</time>
</trkpt>
<trkpt lat="30.8415120" lon="34.8015150">
<ele>343.300018</ele>
<time>2021-04-09T10:28:50.000Z</time>
</trkpt>
<trkpt lat="30.8415090" lon="34.8014620">
<ele>343.500000</ele>
<time>2021-04-09T10:28:53.000Z</time>
</trkpt>
<trkpt lat="30.8415530" lon="34.8014100">
<ele>343.600006</ele>
<time>2021-04-09T10:28:57.000Z</time>
</trkpt>
<trkpt lat="30.8415960" lon="34.8013850">
<ele>343.500000</ele>
<time>2021-04-09T10:29:00.000Z</time>
</trkpt>
<trkpt lat="30.8418140" lon="34.8013470">
<ele>343.500000</ele>
<time>2021-04-09T10:29:06.000Z</time>
</trkpt>
<trkpt lat="30.8420030" lon="34.8013840">
<ele>344.200012</ele>
<time>2021-04-09T10:29:10.000Z</time>
</trkpt>
<trkpt lat="30.8420700" lon="34.8013550">
<ele>344.500000</ele>
<time>2021-04-09T10:29:13.000Z</time>
</trkpt>
<trkpt lat="30.8421240" lon="34.8012740">
<ele>344.700012</ele>
<time>2021-04-09T10:29:17.000Z</time>
</trkpt>
<trkpt lat="30.8421400" lon="34.8011790">
<ele>344.800018</ele>
<time>2021-04-09T10:29:20.000Z</time>
</trkpt>
<trkpt lat="30.8421320" lon="34.8009760">
<ele>344.899994</ele>
<time>2021-04-09T10:29:25.000Z</time>
</trkpt>
<trkpt lat="30.8421650" lon="34.8008250">
<ele>344.800018</ele>
<time>2021-04-09T10:29:30.000Z</time>
</trkpt>
<trkpt lat="30.8421980" lon="34.8007310">
<ele>344.700012</ele>
<time>2021-04-09T10:29:32.000Z</time>
</trkpt>
<trkpt lat="30.8422480" lon="34.8004450">
<ele>344.500000</ele>
<time>2021-04-09T10:29:39.000Z</time>
</trkpt>
<trkpt lat="30.8423290" lon="34.8001580">
<ele>344.700012</ele>
<time>2021-04-09T10:29:45.000Z</time>
</trkpt>
<trkpt lat="30.8424990" lon="34.7997970">
<ele>345.100006</ele>
<time>2021-04-09T10:29:56.000Z</time>
</trkpt>
<trkpt lat="30.8425950" lon="34.7995140">
<ele>345.799988</ele>
<time>2021-04-09T10:30:04.000Z</time>
</trkpt>
<trkpt lat="30.8426270" lon="34.7993490">
<ele>346.300018</ele>
<time>2021-04-09T10:30:09.000Z</time>
</trkpt>
<trkpt lat="30.8426650" lon="34.7987510">
<ele>346.000031</ele>
<time>2021-04-09T10:30:27.000Z</time>
</trkpt>
<trkpt lat="30.8427620" lon="34.7980930">
<ele>344.000000</ele>
<time>2021-04-09T10:30:37.000Z</time>
</trkpt>
<trkpt lat="30.8427210" lon="34.7978680">
<ele>343.600006</ele>
<time>2021-04-09T10:30:41.000Z</time>
</trkpt>
<trkpt lat="30.8426070" lon="34.7977250">
<ele>343.099976</ele>
<time>2021-04-09T10:30:45.000Z</time>
</trkpt>
<trkpt lat="30.8422930" lon="34.7975010">
<ele>343.099976</ele>
<time>2021-04-09T10:30:52.000Z</time>
</trkpt>
<trkpt lat="30.8421290" lon="34.7972530">
<ele>344.299988</ele>
<time>2021-04-09T10:31:00.000Z</time>
</trkpt>
<trkpt lat="30.8421840" lon="34.7972240">
<ele>344.599976</ele>
<time>2021-04-09T10:31:02.000Z</time>
</trkpt>
<trkpt lat="30.8418920" lon="34.7971040">
<ele>345.700012</ele>
<time>2021-04-09T10:31:10.000Z</time>
</trkpt>
<trkpt lat="30.8415580" lon="34.7971060">
<ele>346.200012</ele>
<time>2021-04-09T10:31:19.000Z</time>
</trkpt>
<trkpt lat="30.8412990" lon="34.7970060">
<ele>346.600006</ele>
<time>2021-04-09T10:31:25.000Z</time>
</trkpt>
<trkpt lat="30.8411660" lon="34.7969250">
<ele>346.800018</ele>
<time>2021-04-09T10:31:29.000Z</time>
</trkpt>
<trkpt lat="30.8410650" lon="34.7968110">
<ele>347.100006</ele>
<time>2021-04-09T10:31:32.000Z</time>
</trkpt>
<trkpt lat="30.8409740" lon="34.7966280">
<ele>347.399994</ele>
<time>2021-04-09T10:31:37.000Z</time>
</trkpt>
<trkpt lat="30.8408020" lon="34.7963890">
<ele>347.800018</ele>
<time>2021-04-09T10:31:44.000Z</time>
</trkpt>
<trkpt lat="30.8407120" lon="34.7961700">
<ele>348.000000</ele>
<time>2021-04-09T10:31:51.000Z</time>
</trkpt>
<trkpt lat="30.8405600" lon="34.7959780">
<ele>348.100006</ele>
<time>2021-04-09T10:31:58.000Z</time>
</trkpt>
<trkpt lat="30.8404750" lon="34.7957510">
<ele>348.199982</ele>
<time>2021-04-09T10:32:04.000Z</time>
</trkpt>
<trkpt lat="30.8404660" lon="34.7955230">
<ele>348.400024</ele>
<time>2021-04-09T10:32:09.000Z</time>
</trkpt>
<trkpt lat="30.8405030" lon="34.7952470">
<ele>348.600006</ele>
<time>2021-04-09T10:32:15.000Z</time>
</trkpt>
<trkpt lat="30.8405050" lon="34.7948720">
<ele>348.700012</ele>
<time>2021-04-09T10:32:24.000Z</time>
</trkpt>
<trkpt lat="30.8405690" lon="34.7945550">
<ele>349.000031</ele>
<time>2021-04-09T10:32:30.000Z</time>
</trkpt>
<trkpt lat="30.8406580" lon="34.7943040">
<ele>349.500000</ele>
<time>2021-04-09T10:32:36.000Z</time>
</trkpt>
<trkpt lat="30.8407260" lon="34.7940570">
<ele>349.800018</ele>
<time>2021-04-09T10:32:44.000Z</time>
</trkpt>
<trkpt lat="30.8407770" lon="34.7940170">
<ele>349.899994</ele>
<time>2021-04-09T10:32:46.000Z</time>
</trkpt>
<trkpt lat="30.8408210" lon="34.7939560">
<ele>349.899994</ele>
<time>2021-04-09T10:32:48.000Z</time>
</trkpt>
<trkpt lat="30.8408410" lon="34.7938840">
<ele>350.000000</ele>
<time>2021-04-09T10:32:50.000Z</time>
</trkpt>
<trkpt lat="30.8410270" lon="34.7936510">
<ele>350.100006</ele>
<time>2021-04-09T10:33:00.000Z</time>
</trkpt>
<trkpt lat="30.8412000" lon="34.7935250">
<ele>350.100006</ele>
<time>2021-04-09T10:33:06.000Z</time>
</trkpt>
<trkpt lat="30.8413900" lon="34.7934550">
<ele>350.100006</ele>
<time>2021-04-09T10:33:12.000Z</time>
</trkpt>
<trkpt lat="30.8414370" lon="34.7934260">
<ele>350.100006</ele>
<time>2021-04-09T10:33:14.000Z</time>
</trkpt>
<trkpt lat="30.8416140" lon="34.7930170">
<ele>350.799988</ele>
<time>2021-04-09T10:33:24.000Z</time>
</trkpt>
<trkpt lat="30.8415700" lon="34.7926940">
<ele>351.699982</ele>
<time>2021-04-09T10:33:34.000Z</time>
</trkpt>
<trkpt lat="30.8416740" lon="34.7925870">
<ele>352.299988</ele>
<time>2021-04-09T10:33:40.000Z</time>
</trkpt>
<trkpt lat="30.8418410" lon="34.7925560">
<ele>352.899994</ele>
<time>2021-04-09T10:33:46.000Z</time>
</trkpt>
<trkpt lat="30.8419010" lon="34.7924670">
<ele>353.299988</ele>
<time>2021-04-09T10:33:50.000Z</time>
</trkpt>
<trkpt lat="30.8418790" lon="34.7923460">
<ele>353.899994</ele>
<time>2021-04-09T10:33:55.000Z</time>
</trkpt>
<trkpt lat="30.8418840" lon="34.7922670">
<ele>354.200012</ele>
<time>2021-04-09T10:33:58.000Z</time>
</trkpt>
<trkpt lat="30.8418520" lon="34.7918790">
<ele>355.899994</ele>
<time>2021-04-09T10:34:17.000Z</time>
</trkpt>
<trkpt lat="30.8418030" lon="34.7916200">
<ele>356.799988</ele>
<time>2021-04-09T10:34:29.000Z</time>
</trkpt>
<trkpt lat="30.8417440" lon="34.7914740">
<ele>357.399994</ele>
<time>2021-04-09T10:34:35.000Z</time>
</trkpt>
<trkpt lat="30.8416540" lon="34.7911350">
<ele>358.700012</ele>
<time>2021-04-09T10:34:47.000Z</time>
</trkpt>
<trkpt lat="30.8416150" lon="34.7909770">
<ele>359.000000</ele>
<time>2021-04-09T10:34:53.000Z</time>
</trkpt>
<trkpt lat="30.8415670" lon="34.7906300">
<ele>359.500000</ele>
<time>2021-04-09T10:35:05.000Z</time>
</trkpt>
<trkpt lat="30.8415660" lon="34.7903670">
<ele>359.799988</ele>
<time>2021-04-09T10:35:12.000Z</time>
</trkpt>
<trkpt lat="30.8415930" lon="34.7902620">
<ele>359.799988</ele>
<time>2021-04-09T10:35:15.000Z</time>
</trkpt>
<trkpt lat="30.8416080" lon="34.7900790">
<ele>360.000031</ele>
<time>2021-04-09T10:35:19.000Z</time>
</trkpt>
<trkpt lat="30.8417360" lon="34.7891380">
<ele>361.899994</ele>
<time>2021-04-09T10:35:45.000Z</time>
</trkpt>
<trkpt lat="30.8417060" lon="34.7887710">
<ele>363.599976</ele>
<time>2021-04-09T10:35:57.000Z</time>
</trkpt>
<trkpt lat="30.8417130" lon="34.7885850">
<ele>364.299988</ele>
<time>2021-04-09T10:36:03.000Z</time>
</trkpt>
<trkpt lat="30.8416920" lon="34.7884620">
<ele>364.899994</ele>
<time>2021-04-09T10:36:07.000Z</time>
</trkpt>
<trkpt lat="30.8416990" lon="34.7883410">
<ele>365.399994</ele>
<time>2021-04-09T10:36:11.000Z</time>
</trkpt>
<trkpt lat="30.8416470" lon="34.7879970">
<ele>366.800018</ele>
<time>2021-04-09T10:36:26.000Z</time>
</trkpt>
<trkpt lat="30.8417260" lon="34.7874270">
<ele>367.899994</ele>
<time>2021-04-09T10:36:48.000Z</time>
</trkpt>
<trkpt lat="30.8417990" lon="34.7872970">
<ele>367.600006</ele>
<time>2021-04-09T10:36:53.000Z</time>
</trkpt>
<trkpt lat="30.8419130" lon="34.7872140">
<ele>367.199982</ele>
<time>2021-04-09T10:36:57.000Z</time>
</trkpt>
<trkpt lat="30.8419900" lon="34.7871910">
<ele>366.800018</ele>
<time>2021-04-09T10:37:00.000Z</time>
</trkpt>
<trkpt lat="30.8423980" lon="34.7872640">
<ele>365.099976</ele>
<time>2021-04-09T10:37:09.000Z</time>
</trkpt>
<trkpt lat="30.8425530" lon="34.7872290">
<ele>364.299988</ele>
<time>2021-04-09T10:37:12.000Z</time>
</trkpt>
<trkpt lat="30.8426910" lon="34.7871550">
<ele>363.500000</ele>
<time>2021-04-09T10:37:15.000Z</time>
</trkpt>
<trkpt lat="30.8427740" lon="34.7870750">
<ele>362.899994</ele>
<time>2021-04-09T10:37:18.000Z</time>
</trkpt>
<trkpt lat="30.8428410" lon="34.7869300">
<ele>362.199982</ele>
<time>2021-04-09T10:37:21.000Z</time>
</trkpt>
<trkpt lat="30.8429320" lon="34.7865280">
<ele>361.700012</ele>
<time>2021-04-09T10:37:27.000Z</time>
</trkpt>
<trkpt lat="30.8430460" lon="34.7863110">
<ele>362.799988</ele>
<time>2021-04-09T10:37:32.000Z</time>
</trkpt>
<trkpt lat="30.8430220" lon="34.7862700">
<ele>363.100006</ele>
<time>2021-04-09T10:37:33.000Z</time>
</trkpt>
<trkpt lat="30.8431240" lon="34.7861150">
<ele>363.899994</ele>
<time>2021-04-09T10:37:38.000Z</time>
</trkpt>
<trkpt lat="30.8432170" lon="34.7856910">
<ele>364.600006</ele>
<time>2021-04-09T10:37:54.000Z</time>
</trkpt>
<trkpt lat="30.8432460" lon="34.7856290">
<ele>364.299988</ele>
<time>2021-04-09T10:37:57.000Z</time>
</trkpt>
<trkpt lat="30.8433700" lon="34.7855070">
<ele>363.299988</ele>
<time>2021-04-09T10:38:02.000Z</time>
</trkpt>
<trkpt lat="30.8435440" lon="34.7850700">
<ele>361.299988</ele>
<time>2021-04-09T10:38:09.000Z</time>
</trkpt>
<trkpt lat="30.8435910" lon="34.7846590">
<ele>361.399994</ele>
<time>2021-04-09T10:38:16.000Z</time>
</trkpt>
<trkpt lat="30.8435690" lon="34.7840930">
<ele>362.199982</ele>
<time>2021-04-09T10:38:28.000Z</time>
</trkpt>
<trkpt lat="30.8435770" lon="34.7840480">
<ele>362.199982</ele>
<time>2021-04-09T10:38:29.000Z</time>
</trkpt>
<trkpt lat="30.8436330" lon="34.7839810">
<ele>362.199982</ele>
<time>2021-04-09T10:38:30.000Z</time>
</trkpt>
<trkpt lat="30.8436290" lon="34.7839270">
<ele>362.199982</ele>
<time>2021-04-09T10:38:31.000Z</time>
</trkpt>
<trkpt lat="30.8435530" lon="34.7835610">
<ele>362.300018</ele>
<time>2021-04-09T10:38:40.000Z</time>
</trkpt>
<trkpt lat="30.8435120" lon="34.7834260">
<ele>362.399994</ele>
<time>2021-04-09T10:38:44.000Z</time>
</trkpt>
<trkpt lat="30.8435030" lon="34.7833820">
<ele>362.399994</ele>
<time>2021-04-09T10:38:45.000Z</time>
</trkpt>
<trkpt lat="30.8435000" lon="34.7833320">
<ele>362.500000</ele>
<time>2021-04-09T10:38:46.000Z</time>
</trkpt>
<trkpt lat="30.8435370" lon="34.7832580">
<ele>362.500000</ele>
<time>2021-04-09T10:38:48.000Z</time>
</trkpt>
<trkpt lat="30.8435400" lon="34.7831690">
<ele>362.500000</ele>
<time>2021-04-09T10:38:51.000Z</time>
</trkpt>
<trkpt lat="30.8435140" lon="34.7829400">
<ele>362.699982</ele>
<time>2021-04-09T10:38:57.000Z</time>
</trkpt>
<trkpt lat="30.8433390" lon="34.7820050">
<ele>364.600006</ele>
<time>2021-04-09T10:39:28.000Z</time>
</trkpt>
<trkpt lat="30.8433410" lon="34.7817080">
<ele>364.799988</ele>
<time>2021-04-09T10:39:37.000Z</time>
</trkpt>
<trkpt lat="30.8433810" lon="34.7815250">
<ele>364.899994</ele>
<time>2021-04-09T10:39:42.000Z</time>
</trkpt>
<trkpt lat="30.8433950" lon="34.7814200">
<ele>364.899994</ele>
<time>2021-04-09T10:39:45.000Z</time>
</trkpt>
<trkpt lat="30.8434430" lon="34.7812480">
<ele>365.000000</ele>
<time>2021-04-09T10:39:49.000Z</time>
</trkpt>
<trkpt lat="30.8434920" lon="34.7809410">
<ele>365.099976</ele>
<time>2021-04-09T10:39:58.000Z</time>
</trkpt>
<trkpt lat="30.8435320" lon="34.7808630">
<ele>365.200012</ele>
<time>2021-04-09T10:40:03.000Z</time>
</trkpt>
<trkpt lat="30.8435180" lon="34.7809070">
<ele>365.200012</ele>
<time>2021-04-09T10:40:15.000Z</time>
</trkpt>
<trkpt lat="30.8435710" lon="34.7809230">
<ele>365.200012</ele>
<time>2021-04-09T10:40:22.000Z</time>
</trkpt>
<trkpt lat="30.8435820" lon="34.7809570">
<ele>365.200012</ele>
<time>2021-04-09T10:40:26.000Z</time>
</trkpt>
<trkpt lat="30.8435500" lon="34.7809310">
<ele>365.300018</ele>
<time>2021-04-09T10:42:48.000Z</time>
</trkpt>
<trkpt lat="30.8435510" lon="34.7809050">
<ele>365.300018</ele>
<time>2021-04-09T10:42:52.000Z</time>
</trkpt>
<trkpt lat="30.8435710" lon="34.7809350">
<ele>365.300018</ele>
<time>2021-04-09T10:48:53.000Z</time>
</trkpt>
<trkpt lat="30.8436360" lon="34.7809720">
<ele>365.399994</ele>
<time>2021-04-09T10:49:01.000Z</time>
</trkpt>
<trkpt lat="30.8436020" lon="34.7809410">
<ele>365.399994</ele>
<time>2021-04-09T10:49:17.000Z</time>
</trkpt>
<trkpt lat="30.8436100" lon="34.7810070">
<ele>365.500000</ele>
<time>2021-04-09T10:49:27.000Z</time>
</trkpt>
<trkpt lat="30.8435780" lon="34.7809510">
<ele>365.500000</ele>
<time>2021-04-09T10:49:47.000Z</time>
</trkpt>
<trkpt lat="30.8436420" lon="34.7809070">
<ele>365.600006</ele>
<time>2021-04-09T10:50:10.000Z</time>
</trkpt>
<trkpt lat="30.8436230" lon="34.7809270">
<ele>365.600006</ele>
<time>2021-04-09T10:50:16.000Z</time>
</trkpt>
<trkpt lat="30.8435570" lon="34.7809410">
<ele>365.699982</ele>
<time>2021-04-09T10:50:34.000Z</time>
</trkpt>
</trkseg>
</trk>
</gpx>
